[[{"header":{"parameterUnit":"m.s-1","parameterCategory":1,"la1":30.6,"la2":28.766,"lo1":-90.7593,"lo2":-88.6598,"dy":0.0162,"dx":0.0183,"nx":116,"ny":114,"refTime":"2023-03-16T00:00:00:Z","depth":0,"parameterNumber":2,"parameterNumberName":"U-component_of_WINDS"},"data":[0.0,0.0,0.0,0.0,0.0,0.0,0.0,0.0,0.0,0.0,0.0,0.0,0.0,0.0,0.0,0.0,0.0,0.0,0.0,0.0,0.0,0.0,0.0,0.0,0.0,0.0,0.0,0.0,0.0,0.0,0.0,0.0,0.0,0.0,0.0,0.0,0.0,0.0,0.0,0.0,0.0,0.0,0.0,0.0,0.0,0.0,0.0,0.0,0.0,0.0,0.0,0.0,0.0,0.0,0.0,0.0,0.0,0.0,0.0,0.0,0.0,0.0,0.0,0.0,0.0,0.0,0.0,0.0,0.0,0.0,0.0,0.0,0.0,0.0,0.0,0.0,0.0,0.0,0.0,0.0,0.0,0.0,0.0,0.0,0.0,0.0,0.0,0.0,0.0,0.0,0.0,0.0,0.0,0.0,0.0,0.0,0.0,0.0,0.0,0.0,0.0,0.0,0.0,0.0,0.0,0.0,0.0,0.0,0.0,0.0,0.0,0.0,0.0,0.0,0.0,0.0,0.0,0.0,0.0,0.0,0.0,0.0,0.0,0.0,0.0,0.0,0.0,0.0,0.0,0.0,0.0,0.0,0.0,0.0,0.0,0.0,0.0,0.0,0.0,0.0,0.0,0.0,0.0,0.0,0.0,0.0,0.0,0.0,0.0,0.0,0.0,0.0,0.0,0.0,0.0,0.0,0.0,0.0,0.0,0.0,0.0,0.0,0.0,0.0,0.0,0.0,0.0,0.0,0.0,0.0,0.0,0.0,0.0,0.0,0.0,0.0,0.0,0.0,0.0,0.0,0.0,0.0,0.0,0.0,0.0,0.0,0.0,0.0,0.0,0.0,0.0,0.0,0.0,0.0,0.0,0.0,0.0,0.0,0.0,0.0,0.0,0.0,0.0,0.0,0.0,0.0,0.0,0.0,0.0,0.0,0.0,0.0,0.0,0.0,0.0,0.0,0.0,0.0,0.0,0.0,0.0,0.0,0.0,0.0,0.0,0.0,0.0,0.0,0.0,0.0,0.0,0.0,0.0,0.0,0.0,0.0,0.0,0.0,0.0,0.0,0.0,0.0,0.0,0.0,0.0,0.0,0.0,0.0,0.0,0.0,0.0,0.0,0.0,0.0,0.0,0.0,0.0,0.0,0.0,0.0,0.0,0.0,0.0,0.0,0.0,0.0,0.0,0.0,0.0,0.0,0.0,0.0,0.0,0.0,0.0,0.0,0.0,0.0,0.0,0.0,0.0,0.0,0.0,0.0,0.0,0.0,0.0,0.0,0.0,0.0,0.0,0.0,0.0,0.0,0.0,0.0,0.0,0.0,0.0,0.0,0.0,0.0,0.0,0.0,0.0,0.0,0.0,0.0,0.0,0.0,0.0,0.0,0.0,0.0,0.0,0.0,0.0,0.0,0.0,0.0,0.0,0.0,0.0,0.0,0.0,0.0,0.0,0.0,0.0,0.0,0.0,0.0,0.0,0.0,0.0,0.0,0.0,0.0,0.0,0.0,0.0,0.0,0.0,0.0,0.0,0.0,0.0,0.0,0.0,0.0,0.0,0.0,0.0,0.0,0.0,0.0,0.0,0.0,0.0,0.0,0.0,0.0,0.0,0.0,0.0,0.0,0.0,0.0,0.0,0.0,0.0,0.0,0.0,0.0,0.0,0.0,0.0,0.0,0.0,0.0,0.0,0.0,0.0,0.0,0.0,0.0,0.0,0.0,0.0,0.0,0.0,0.0,0.0,0.0,0.0,0.0,0.0,0.0,0.0,0.0,0.0,0.0,0.0,0.0,0.0,0.0,0.0,0.0,0.0,0.0,0.0,0.0,0.0,0.0,0.0,0.0,0.0,0.0,0.0,0.0,0.0,0.0,0.0,0.0,0.0,0.0,0.0,0.0,0.0,0.0,0.0,0.0,0.0,0.0,0.0,0.0,0.0,0.0,0.0,0.0,0.0,0.0,0.0,0.0,0.0,0.0,0.0,0.0,0.0,0.0,0.0,0.0,0.0,0.0,0.0,0.0,0.0,0.0,0.0,0.0,0.0,0.0,0.0,0.0,0.0,0.0,0.0,0.0,0.0,0.0,0.0,0.0,0.0,0.0,0.0,0.0,0.0,0.0,0.0,0.0,0.0,0.0,0.0,0.0,0.0,0.0,0.0,0.0,0.0,0.0,0.0,0.0,0.0,0.0,0.0,0.0,0.0,0.0,0.0,0.0,0.0,0.0,0.0,0.0,0.0,0.0,0.0,0.0,0.0,0.0,0.0,0.0,0.0,0.0,0.0,0.0,0.0,0.0,0.0,0.0,0.0,0.0,0.0,0.0,0.0,0.0,0.0,0.0,0.0,0.0,0.0,0.0,0.0,0.0,0.0,0.0,0.0,0.0,0.0,0.0,0.0,0.0,0.0,0.0,0.0,0.0,0.0,0.0,0.0,0.0,0.0,0.0,0.0,0.0,0.0,0.0,0.0,0.0,0.0,0.0,0.0,0.0,0.0,0.0,0.0,0.0,0.0,0.0,0.0,0.0,0.0,0.0,0.0,0.0,0.0,0.0,0.0,0.0,0.0,0.0,0.0,0.0,0.0,0.0,0.0,0.0,0.0,0.0,0.0,0.0,0.0,0.0,0.0,0.0,0.0,0.0,0.0,0.0,0.0,0.0,0.0,0.0,0.0,0.0,0.0,0.0,0.0,0.0,0.0,0.0,0.0,0.0,0.0,0.0,0.0,0.0,0.0,0.0,0.0,0.0,0.0,0.0,0.0,0.0,0.0,0.0,0.0,0.0,0.0,0.0,0.0,0.0,0.0,0.0,0.0,0.0,0.0,0.0,0.0,0.0,0.0,0.0,0.0,0.0,0.0,0.0,0.0,0.0,0.0,0.0,0.0,0.0,0.0,0.0,0.0,0.0,0.0,0.0,0.0,0.0,0.0,0.0,0.0,0.0,0.0,0.0,0.0,0.0,0.0,0.0,0.0,0.0,0.0,0.0,0.0,0.0,0.0,0.0,0.0,0.0,0.0,0.0,0.0,0.0,0.0,0.0,0.0,0.0,0.0,0.0,0.0,0.0,0.0,0.0,0.0,0.0,0.0,0.0,0.0,0.0,0.0,0.0,0.0,0.0,0.0,0.0,0.0,0.0,0.0,0.0,0.0,0.0,0.0,0.0,0.0,0.0,0.0,0.0,0.0,0.0,0.0,0.0,0.0,0.0,0.0,0.0,0.0,0.0,0.0,0.0,0.0,0.0,0.0,0.0,0.0,0.0,0.0,0.0,0.0,0.0,0.0,0.0,0.0,0.0,0.0,0.0,0.0,0.0,0.0,0.0,0.0,0.0,0.0,0.0,0.0,0.0,0.0,0.0,0.0,0.0,0.0,0.0,0.0,0.0,0.0,0.0,0.0,0.0,0.0,0.0,0.0,0.0,0.0,0.0,0.0,0.0,0.0,0.0,0.0,0.0,0.0,0.0,0.0,0.0,0.0,0.0,0.0,0.0,0.0,0.0,0.0,0.0,0.0,0.0,0.0,0.0,0.0,0.0,0.0,0.0,0.0,0.0,0.0,0.0,0.0,0.0,0.0,0.0,0.0,0.0,0.0,0.0,0.0,0.0,0.0,0.0,0.0,0.0,0.0,0.0,0.0,0.0,0.0,0.0,0.0,0.0,0.0,0.0,0.0,0.0,0.0,0.0,0.0,0.0,0.0,0.0,0.0,0.0,0.0,0.0,0.0,0.0,0.0,0.0,0.0,0.0,0.0,0.0,0.0,0.0,0.0,0.0,0.0,0.0,0.0,0.0,0.0,0.0,0.0,0.0,0.0,0.0,0.0,0.0,0.0,0.0,0.0,0.0,0.0,0.0,0.0,0.0,0.0,0.0,0.0,0.0,0.0,0.0,0.0,0.0,0.0,0.0,0.0,0.0,0.0,0.0,0.0,0.0,0.0,0.0,0.0,0.0,0.0,0.0,0.0,0.0,0.0,0.0,0.0,0.0,0.0,0.0,0.0,0.0,0.0,0.0,0.0,0.0,0.0,0.0,0.0,0.0,0.0,0.0,0.0,0.0,0.0,0.0,0.0,0.0,0.0,0.0,0.0,0.0,0.0,0.0,0.0,0.0,0.0,0.0,0.0,0.0,0.0,0.0,0.0,0.0,0.0,0.0,0.0,0.0,0.0,0.0,0.0,0.0,0.0,0.0,0.0,0.0,0.0,0.0,0.0,0.0,0.0,0.0,0.0,0.0,0.0,0.0,0.0,0.0,0.0,0.0,0.0,0.0,0.0,0.0,0.0,0.0,0.0,0.0,0.0,0.0,0.0,0.0,0.0,0.0,0.0,0.0,0.0,0.0,0.0,0.0,0.0,0.0,0.0,0.0,0.0,0.0,0.0,0.0,0.0,0.0,0.0,0.0,0.0,0.0,0.0,0.0,0.0,0.0,0.0,0.0,0.0,0.0,0.0,0.0,0.0,0.0,0.0,0.0,0.0,0.0,0.0,0.0,0.0,0.0,0.0,0.0,0.0,0.0,0.0,0.0,0.0,0.0,0.0,0.0,0.0,0.0,0.0,0.0,0.0,0.0,0.0,0.0,0.0,0.0,0.0,0.0,0.0,0.0,0.0,0.0,0.0,0.0,0.0,0.0,0.0,0.0,0.0,0.0,0.0,0.0,0.0,0.0,0.0,0.0,0.0,0.0,0.0,0.0,0.0,0.0,0.0,0.0,0.0,0.0,0.0,0.0,0.0,0.0,0.0,0.0,0.0,0.0,0.0,0.0,0.0,0.0,0.0,0.0,0.0,0.0,0.0,0.0,0.0,0.0,0.0,0.0,0.0,0.0,0.0,0.0,0.0,0.0,0.0,0.0,0.0,0.0,0.0,0.0,0.0,0.0,0.0,0.0,0.0,0.0,0.0,0.0,0.0,0.0,0.0,0.0,0.0,0.0,0.0,0.0,0.0,0.0,0.0,0.0,0.0,0.0,0.0,0.0,0.0,0.0,0.0,0.0,0.0,0.0,0.0,0.0,0.0,0.0,0.0,0.0,0.0,0.0,0.0,0.0,0.0,0.0,0.0,0.0,0.0,0.0,0.0,0.0,0.0,0.0,0.0,0.0,0.0,0.0,0.0,0.0,0.0,0.0,0.0,0.0,0.0,0.0,0.0,0.0,0.0,0.0,0.0,0.0,0.0,0.0,0.0,0.0,0.0,0.0,0.0,0.0,0.0,0.0,0.0,0.0,0.0,0.0,0.0,0.0,0.0,0.0,0.0,0.0,0.0,0.0,0.0,0.0,0.0,0.0,0.0,0.0,0.0,0.0,0.0,0.0,0.0,0.0,0.0,0.0,0.0,0.0,0.0,0.0,0.0,0.0,0.0,0.0,0.0,0.0,0.0,0.0,0.0,0.0,0.0,0.0,0.0,0.0,0.0,0.0,0.0,0.0,0.0,0.0,0.0,0.0,0.0,0.0,0.0,0.0,0.0,0.0,0.0,0.0,0.0,0.0,0.0,0.0,0.0,0.0,0.0,0.0,0.0,0.0,0.0,0.0,0.0,0.0,0.0,0.0,0.0,0.0,0.0,0.0,0.0,0.0,0.0,0.0,0.0,0.0,0.0,0.0,0.0,0.0,0.0,0.0,0.0,0.0,0.0,0.0,0.0,0.0,0.0,0.0,0.0,0.0,0.0,0.0,0.0,0.0,0.0,0.0,0.0,0.0,0.0,0.0,0.0,0.0,0.0,0.0,0.0,0.0,0.0,0.0,0.0,0.0,0.0,0.0,0.0,0.0,0.0,0.0,0.0,0.0,0.0,0.0,0.0,0.0,0.0,0.0,0.0,0.0,0.0,0.0,0.0,0.0,0.0,0.0,0.0,0.0,0.0,0.0,0.0,0.0,0.0,0.0,0.0,0.0,0.0,0.0,0.0,0.0,0.0,0.0,0.0,0.0,0.0,0.0,0.0,0.0,0.0,0.0,0.0,0.0,0.0,0.0,0.0,0.0,0.0,0.0,0.0,0.0,0.0,0.0,0.0,0.0,0.0,0.0,0.0,0.0,0.0,0.0,0.0,0.0,0.0,0.0,0.0,0.0,0.0,0.0,0.0,0.0,0.0,0.0,0.0,0.0,5.3509,0.0,0.0,0.0,0.0,0.0,0.0,0.0,0.0,0.0,0.0,0.0,0.0,0.0,0.0,0.0,0.0,0.0,0.0,0.0,0.0,0.0,0.0,0.0,0.0,0.0,0.0,0.0,0.0,0.0,0.0,0.0,0.0,0.0,0.0,0.0,0.0,0.0,0.0,0.0,4.2172,4.2302,4.2302,4.2302,4.2302,4.2302,0.0,0.0,0.0,0.0,0.0,0.0,0.0,0.0,0.0,0.0,0.0,0.0,0.0,0.0,0.0,0.0,0.0,0.0,0.0,0.0,0.0,0.0,0.0,0.0,0.0,0.0,0.0,0.0,0.0,0.0,0.0,0.0,0.0,0.0,0.0,0.0,0.0,0.0,0.0,0.0,0.0,0.0,0.0,0.0,0.0,0.0,0.0,0.0,0.0,0.0,0.0,0.0,0.0,0.0,0.0,0.0,0.0,0.0,0.0,0.0,0.0,0.0,0.0,0.0,0.0,0.0,0.0,0.0,0.0,0.0,0.0,5.4558,0.0,0.0,0.0,0.0,0.0,0.0,0.0,0.0,0.0,0.0,0.0,0.0,0.0,0.0,0.0,0.0,0.0,0.0,0.0,0.0,0.0,0.0,0.0,0.0,3.8926,3.8044,3.9562,4.0576,0.0,0.0,0.0,0.0,0.0,0.0,0.0,4.2271,4.2551,4.2551,4.305,4.33,4.33,4.33,4.33,4.33,4.33,0.0,0.0,0.0,0.0,0.0,0.0,0.0,0.0,0.0,0.0,0.0,0.0,0.0,0.0,0.0,0.0,0.0,0.0,0.0,0.0,0.0,0.0,0.0,0.0,0.0,0.0,0.0,0.0,0.0,0.0,0.0,0.0,0.0,0.0,0.0,0.0,0.0,0.0,0.0,0.0,0.0,0.0,0.0,0.0,0.0,0.0,0.0,0.0,0.0,0.0,0.0,0.0,0.0,0.0,0.0,0.0,0.0,0.0,0.0,0.0,0.0,0.0,0.0,5.5902,5.5969,5.6071,5.6071,5.6071,5.6071,5.6071,5.5936,5.5699,0.0,0.0,0.0,0.0,0.0,0.0,0.0,0.0,0.0,0.0,0.0,0.0,0.0,0.0,0.0,0.0,0.0,0.0,0.0,0.0,0.0,0.0,3.788,3.8813,3.8678,4.0259,4.1283,0.0,0.0,0.0,0.0,0.0,0.0,4.304,4.315,4.319,4.319,4.327,4.33,4.33,4.33,4.33,4.33,4.33,4.33,4.33,0.0,0.0,0.0,0.0,0.0,0.0,0.0,0.0,0.0,0.0,0.0,0.0,0.0,0.0,0.0,0.0,0.0,0.0,0.0,0.0,0.0,0.0,0.0,0.0,0.0,0.0,0.0,0.0,0.0,0.0,0.0,0.0,0.0,0.0,0.0,0.0,0.0,0.0,0.0,0.0,0.0,4.8212,4.8308,0.0,0.0,0.0,0.0,0.0,0.0,0.0,0.0,0.0,0.0,0.0,0.0,0.0,0.0,5.5564,5.5665,5.6003,5.6655,5.6655,5.7002,5.762,5.762,5.762,5.762,5.762,0.0,5.5699,5.5699,0.0,0.0,0.0,0.0,0.0,0.0,0.0,0.0,0.0,0.0,0.0,0.0,0.0,0.0,0.0,0.0,0.0,0.0,0.0,0.0,0.0,3.8242,3.9292,3.9361,4.0958,4.1952,4.1952,0.0,0.0,0.0,0.0,4.302,4.33,4.33,4.33,4.33,4.33,4.33,4.33,4.33,4.33,4.33,4.33,4.33,4.33,4.33,0.0,0.0,0.0,0.0,0.0,0.0,0.0,0.0,0.0,0.0,0.0,0.0,0.0,0.0,0.0,0.0,0.0,0.0,0.0,0.0,0.0,0.0,0.0,0.0,0.0,0.0,0.0,0.0,0.0,0.0,0.0,0.0,0.0,0.0,0.0,0.0,0.0,0.0,0.0,4.9705,4.9785,5.0184,5.1017,5.1797,0.0,0.0,0.0,0.0,0.0,0.0,0.0,0.0,0.0,5.6299,5.6316,5.6519,5.6934,5.6934,5.7103,5.7417,5.7417,5.7586,5.7891,5.7891,5.7891,5.7891,5.7891,5.7518,5.6934,5.6934,5.6934,5.6934,0.0,0.0,0.0,0.0,0.0,5.7417,0.0,0.0,0.0,0.0,0.0,0.0,0.0,0.0,0.0,0.0,0.0,0.0,3.7473,3.9183,4.0263,4.0055,4.1617,4.2631,4.2631,4.305,0.0,0.0,4.33,4.33,4.33,4.33,4.33,4.33,4.3479,4.3579,4.3569,4.3718,4.3818,4.3818,4.3818,4.3628,4.33,4.33,4.33,4.33,0.0,0.0,0.0,0.0,0.0,0.0,0.0,0.0,0.0,0.0,0.0,0.0,0.0,0.0,0.0,0.0,0.0,0.0,0.0,0.0,0.0,0.0,0.0,0.0,0.0,0.0,0.0,0.0,0.0,0.0,0.0,0.0,0.0,0.0,0.0,0.0,0.0,5.077,5.0742,5.1293,5.1994,5.2762,0.0,0.0,0.0,0.0,0.0,0.0,5.4279,5.4741,5.5642,5.7052,5.707,5.734,5.7891,5.7891,5.7891,5.7891,5.7891,5.7891,5.7891,5.7891,5.7891,5.7891,5.7891,5.7891,5.7891,5.7891,5.7891,5.7891,5.7891,5.7891,5.7891,5.7891,5.7891,5.7891,0.0,0.0,0.0,0.0,0.0,0.0,0.0,0.0,0.0,0.0,0.0,3.9289,3.8265,4.0593,4.1863,4.083,4.2286,4.324,4.324,4.327,4.33,4.33,4.33,4.33,4.33,4.33,4.33,4.33,4.3938,4.4247,4.4267,4.4915,4.5185,4.5185,4.5185,4.4486,4.33,4.33,4.33,4.33,4.33,0.0,0.0,0.0,0.0,0.0,0.0,0.0,0.0,0.0,0.0,0.0,0.0,0.0,0.0,0.0,0.0,0.0,0.0,0.0,0.0,0.0,0.0,0.0,0.0,0.0,0.0,0.0,0.0,0.0,0.0,0.0,0.0,0.0,0.0,0.0,0.0,0.0,0.0,4.9895,5.0506,0.0,0.0,0.0,0.0,5.2405,5.403,5.5036,5.5036,5.673,5.7744,5.7823,5.7823,5.7857,5.7891,5.7891,5.7891,5.7891,5.7891,5.7891,5.7891,5.7891,5.7891,5.7891,5.7891,5.7891,5.7891,5.7891,5.7891,5.7891,5.7891,5.7891,5.7891,5.7891,5.7891,5.7891,0.0,0.0,0.0,0.0,0.0,0.0,0.0,0.0,3.6075,3.6183,3.7273,3.8509,3.9733,3.9718,4.0368,4.2265,4.228,4.2518,4.325,4.33,4.33,4.33,4.3718,4.4147,4.4576,4.4576,4.4576,4.4576,4.4825,4.4945,4.4945,4.5185,4.5315,4.5315,4.5315,4.5035,4.4576,4.4576,4.4576,4.4576,4.4576,4.4576,0.0,0.0,0.0,0.0,0.0,0.0,0.0,0.0,0.0,0.0,0.0,0.0,0.0,0.0,0.0,0.0,0.0,0.0,0.0,0.0,0.0,0.0,0.0,0.0,0.0,0.0,0.0,0.0,0.0,0.0,0.0,0.0,0.0,0.0,0.0,0.0,0.0,5.1346,5.1465,0.0,5.2471,5.3297,5.3479,5.273,5.3291,5.3682,5.3682,5.4314,5.5011,5.574,5.6451,5.6797,5.6797,5.7536,5.7536,5.6806,5.7554,5.7526,5.6816,5.7572,5.7891,5.7891,5.7891,5.7891,5.7891,5.7891,5.7891,5.7891,5.7891,5.7891,5.7891,5.7891,5.7891,5.7891,0.0,0.0,0.0,0.0,0.0,0.0,0.0,0.0,3.6813,3.7273,3.8098,3.9389,4.141,4.0559,4.0781,4.311,4.2609,4.2498,4.325,4.3509,4.3628,4.3628,4.4277,4.4855,4.5285,4.5315,4.5315,4.5315,4.5514,4.5633,4.5623,4.5873,4.5963,4.5963,4.5963,4.5963,4.5963,4.5963,4.5693,4.5315,4.5315,4.5315,4.5315,0.0,0.0,0.0,0.0,0.0,0.0,0.0,0.0,0.0,0.0,0.0,0.0,0.0,0.0,0.0,0.0,0.0,0.0,0.0,0.0,0.0,0.0,0.0,0.0,0.0,0.0,0.0,0.0,0.0,0.0,0.0,0.0,0.0,0.0,0.0,5.1378,5.2061,5.1839,5.1942,5.2673,5.3167,5.3154,5.2373,5.2698,5.29,5.29,5.3275,5.3817,5.4578,5.5628,5.6037,5.5648,5.7157,5.7325,5.6214,5.7353,5.7517,5.6787,5.7563,5.7891,5.7891,5.7891,5.7891,5.7891,5.7891,5.7891,5.7891,5.7891,5.7891,5.7891,5.7891,5.7891,5.7891,0.0,0.0,0.0,0.0,0.0,0.0,0.0,3.617,3.7682,3.8814,4.0445,4.1947,4.313,4.322,4.322,4.329,4.327,4.326,4.3319,4.3938,4.4326,4.4366,4.4975,4.5334,4.5374,4.5374,4.5374,4.5374,4.6001,4.633,4.636,4.6999,4.7309,4.7309,4.7309,4.7309,4.7309,4.7309,4.6561,4.5374,4.5374,4.5374,4.5374,0.0,0.0,0.0,0.0,0.0,0.0,0.0,0.0,0.0,0.0,0.0,0.0,0.0,0.0,0.0,0.0,0.0,0.0,0.0,0.0,0.0,0.0,0.0,0.0,0.0,0.0,0.0,0.0,0.0,0.0,0.0,0.0,0.0,5.2077,5.1987,5.1765,5.1765,5.1436,5.1206,5.1206,5.1206,5.1206,5.1206,5.2234,5.2845,5.2845,5.3892,5.4495,5.4495,5.5528,5.5588,5.4557,5.6715,5.7251,5.6165,5.7307,5.7854,5.7854,5.7881,5.7891,5.7891,5.7891,5.7891,5.7891,5.7891,5.7891,5.7891,5.7891,5.7891,5.7891,5.7891,5.7891,5.7891,0.0,0.0,0.0,0.0,0.0,0.0,0.0,3.6056,3.7068,3.8207,3.8749,3.9836,4.1864,4.1316,4.1501,4.316,4.2538,4.2602,4.3947,4.4207,4.4715,4.5702,4.5922,4.6251,4.6741,4.6741,4.6741,4.6741,4.6939,4.7029,4.7029,4.7209,4.7309,4.7309,4.7309,4.7309,4.7309,4.7309,4.71,4.6741,4.6741,4.6741,4.6741,0.0,0.0,0.0,0.0,0.0,0.0,0.0,0.0,0.0,0.0,0.0,0.0,0.0,0.0,0.0,0.0,0.0,0.0,0.0,0.0,0.0,0.0,0.0,0.0,0.0,0.0,0.0,0.0,0.0,0.0,0.0,0.0,5.1067,5.1466,5.1436,5.1351,5.1351,5.1254,5.1206,5.1206,5.1206,5.1206,5.1206,5.1503,5.1669,5.1669,5.1961,5.2143,5.2143,5.3211,5.3677,5.3352,5.4796,5.5359,5.5032,5.6145,5.6672,5.6692,5.7536,5.7891,5.7891,5.7891,5.7891,5.7891,5.7891,5.7891,5.7891,5.7891,5.7891,5.7891,5.7891,5.7891,5.7891,0.0,0.0,0.0,0.0,0.0,0.0,0.0,3.6588,3.7517,3.8693,3.9266,4.0279,4.2111,4.173,4.197,4.3588,4.3113,4.3297,4.4635,4.4995,4.5613,4.6659,4.6719,4.6909,4.7309,4.7309,4.7309,4.7309,4.7309,4.7309,4.7309,4.7309,4.7309,4.7309,4.7309,4.7309,4.7309,4.7309,4.7309,4.7309,4.7309,4.7309,4.7309,4.7309,4.7309,4.7309,4.7309,4.7309,4.7309,4.7309,0.0,0.0,0.0,0.0,0.0,0.0,0.0,0.0,0.0,0.0,0.0,0.0,0.0,0.0,0.0,0.0,0.0,0.0,0.0,0.0,0.0,0.0,0.0,0.0,5.1206,5.1206,5.1206,5.1206,5.1206,5.1206,5.1206,5.1206,5.1206,5.1206,5.1206,5.1206,5.1206,5.1206,5.1206,5.1206,5.1206,5.1206,5.2294,5.281,5.2597,5.4215,5.4911,5.4733,5.5821,5.6592,5.7117,5.7757,5.834,0.0,5.8804,5.8804,5.8804,5.8804,5.8804,0.0,0.0,0.0,0.0,0.0,5.8804,5.8804,0.0,0.0,0.0,0.0,0.0,0.0,0.0,3.7266,3.8289,3.936,4.0629,4.1802,4.281,4.322,4.3658,4.4247,4.4366,4.4696,4.5364,4.6042,4.667,4.7268,4.7309,4.7309,4.7309,4.7309,4.7309,4.7309,4.7309,4.7309,4.7309,4.7309,4.7339,4.7429,4.7429,4.7459,4.7519,4.7519,4.7519,4.7519,4.7519,4.7418,4.7309,4.7309,4.7309,4.7309,4.7309,4.7369,4.7429,4.7429,0.0,0.0,0.0,0.0,0.0,0.0,0.0,0.0,0.0,0.0,0.0,0.0,0.0,0.0,0.0,0.0,0.0,0.0,0.0,0.0,0.0,0.0,0.0,0.0,5.1206,5.1206,5.1206,5.1206,5.1206,5.1206,5.1206,5.1206,5.1206,5.1206,5.1206,5.1206,5.1206,5.1236,5.1295,0.0,0.0,0.0,0.0,5.2723,5.2318,5.432,5.5189,5.4908,5.5877,5.7023,5.8307,5.8307,5.8953,6.0114,6.0114,6.0114,6.0114,6.0114,6.0148,6.0148,5.9428,5.9115,5.9191,5.9877,6.0114,0.0,0.0,0.0,0.0,0.0,0.0,0.0,0.0,3.6605,3.6814,3.7059,3.8917,4.0307,4.0522,4.269,4.4147,4.4307,4.4785,4.5384,4.6061,4.673,4.7149,4.7298,4.7309,4.7309,4.7309,4.7309,4.7309,4.7309,4.7309,4.7309,4.7309,4.7309,4.7578,4.8098,4.8098,4.8397,4.8917,4.8917,4.8917,4.8917,4.8917,4.8278,4.7309,4.7309,4.7309,4.7309,4.7309,4.7638,4.8098,4.8098,4.8468,4.8917,4.8917,0.0,0.0,0.0,0.0,0.0,0.0,0.0,0.0,0.0,0.0,0.0,0.0,0.0,0.0,0.0,0.0,0.0,0.0,0.0,0.0,5.1206,5.1206,5.1206,5.1206,5.1206,5.1206,5.1206,5.1206,5.1206,5.1206,5.1206,5.1206,5.1206,5.1206,5.1427,5.1977,5.2007,0.0,5.2797,5.3038,5.3098,5.3019,5.3428,5.4063,5.4896,0.0,0.0,5.8307,5.8307,5.8953,6.0114,6.0114,6.0114,6.0114,6.0114,6.0486,6.0994,6.0216,5.9877,5.9911,6.0047,6.0114,6.0114,0.0,0.0,0.0,0.0,0.0,0.0,0.0,3.6884,3.7254,3.7254,3.9024,4.0305,4.0305,4.2421,4.3738,4.3426,4.4009,4.4804,4.579,4.6157,4.6627,4.7277,4.7309,4.7309,4.7309,4.7309,4.7459,4.7788,4.7788,4.7978,4.8308,4.8308,4.8468,4.8798,4.8798,4.8989,4.9288,4.9288,4.9288,4.9288,4.9288,4.8887,4.8308,4.8308,4.8308,4.8308,4.8308,4.8528,4.8798,4.8798,4.9007,4.9288,4.9288,4.9288,4.9288,0.0,0.0,0.0,0.0,0.0,0.0,0.0,0.0,0.0,0.0,0.0,0.0,0.0,0.0,5.1206,0.0,0.0,5.1206,5.1206,5.1206,5.1206,5.1206,5.1206,5.1206,5.1206,5.1206,5.1325,5.1666,5.1696,5.1858,5.2187,5.2187,5.2336,5.2677,5.2707,5.2857,5.3198,5.3198,5.3366,5.3683,5.3683,5.4332,5.5536,5.5536,5.6615,5.8602,5.8602,5.926,6.0393,6.0393,6.0393,6.0446,6.1106,6.1998,6.2922,6.2516,6.1907,6.124,6.124,6.124,6.124,0.0,0.0,0.0,0.0,0.0,0.0,0.0,3.7381,3.8058,3.7923,3.955,4.0652,4.0553,4.2149,4.3171,4.3078,4.3333,4.4151,4.5677,4.5298,4.5711,4.7244,4.7051,4.7111,4.7478,4.7478,4.7818,4.8487,4.8487,4.8768,4.9288,4.9288,4.9378,4.9486,4.9486,4.9546,4.9666,4.9666,4.9666,4.9666,4.9666,4.9666,4.9666,4.9666,4.9527,4.9288,4.9288,4.9366,4.9486,4.9486,4.9546,4.9666,4.9666,4.9666,4.9666,4.9666,4.9666,0.0,0.0,0.0,0.0,0.0,0.0,0.0,0.0,0.0,5.1206,5.1206,5.1206,5.1206,5.1206,5.1206,5.1206,5.1206,5.1206,5.1236,5.1367,5.1385,5.1427,5.1576,5.1487,5.1666,5.2336,5.2396,5.2618,5.3156,5.3198,5.3258,5.3396,5.3528,5.3648,5.3767,5.3905,5.4234,5.476,5.4748,5.5299,5.6372,5.6372,5.7261,5.8907,5.8907,5.9574,6.07,6.0988,6.1092,6.1195,6.2508,6.3674,6.4613,6.4613,6.3869,6.283,6.283,6.283,6.283,0.0,0.0,0.0,0.0,0.0,0.0,0.0,0.0,3.7918,3.7382,3.9295,4.0491,3.9965,4.1525,4.3251,4.4921,4.4123,4.4512,4.6942,4.4978,4.4806,4.7212,4.6222,4.6429,4.8136,4.8188,4.8528,4.9198,4.9198,4.9228,4.9288,4.9288,4.9595,5.0088,5.0088,5.0428,5.0978,5.0978,5.0978,5.0978,5.0978,5.0978,5.0978,5.0978,5.0283,4.9288,4.9288,4.9655,5.0088,5.0088,5.0488,5.0978,5.0978,5.0978,5.0978,5.0978,0.0,5.1008,5.1056,5.1086,5.1128,5.1176,5.1206,5.1206,0.0,0.0,5.1206,5.1206,5.1206,5.1206,5.1206,5.1206,5.1206,5.1206,5.1206,5.1427,5.2007,5.2097,5.2306,5.2917,5.2456,5.2336,5.3007,5.3109,5.3126,5.3186,5.3198,5.3456,5.4072,5.464,5.5251,5.5863,5.6389,5.6718,5.6765,5.6778,5.6855,5.7017,5.7017,5.7672,5.8907,5.8907,5.9574,6.079,6.1943,6.2486,6.2585,6.3852,6.4467,6.4613,6.4613,6.4512,6.4343,6.4343,6.4343,6.4343,0.0,0.0,0.0,0.0,0.0,0.0,0.0,0.0,0.0,3.8336,3.9076,3.9838,4.0327,4.0673,4.2081,4.5132,4.3563,4.348,4.6043,4.4489,4.4627,4.7201,4.5654,4.5866,4.8245,4.7074,4.7544,4.9811,4.9038,4.9268,5.0391,5.0391,5.0529,5.0775,5.0775,5.0936,5.1206,5.1206,5.1206,5.1206,5.1206,5.1206,5.1206,5.1206,5.0858,5.0391,5.0391,5.0559,0.0,5.0775,5.0966,5.1206,5.1206,5.1206,5.1206,5.1206,5.1206,0.0,5.1206,5.1206,0.0,0.0,5.1206,5.1206,5.1206,5.1206,5.1206,5.1206,5.1206,5.1206,5.1206,5.1206,5.1337,0.0,5.1786,5.2007,5.2677,5.2797,5.3037,5.3713,5.3521,5.3461,5.3743,5.3773,5.4114,5.4905,5.4935,5.5222,5.5867,5.6137,5.6419,5.6718,5.6958,5.7094,5.7094,5.7094,5.7304,5.7679,5.7679,5.8149,5.9019,5.9019,5.9287,5.9809,6.0359,6.1461,6.2925,6.3451,6.4552,6.5889,6.5889,6.5889,6.5787,6.4918,6.4613,6.4613,0.0,0.0,0.0,0.0,0.0,0.0,0.0,0.0,0.0,0.0,3.9979,4.0313,4.1404,4.0448,4.1244,4.507,4.3235,4.3037,4.5734,4.4261,4.4544,4.7458,4.5159,4.5348,4.8749,4.6574,4.7036,5.0476,4.8753,4.9033,5.1206,5.0834,5.0858,5.1206,5.1206,5.1206,5.1206,5.1206,5.1206,5.1206,5.1206,5.1206,5.1206,5.1206,5.1206,5.1206,5.1206,5.1206,5.1206,5.1206,5.1206,5.1206,5.1206,5.1206,5.1206,5.1206,5.1206,5.1206,5.1206,0.0,0.0,5.1206,5.1206,5.1206,5.1206,5.1206,5.1206,5.1206,5.1206,5.1206,5.1206,5.1367,5.1636,5.2127,5.2378,5.2707,5.3396,5.3486,5.3785,5.464,5.476,5.482,5.4987,5.485,5.5222,5.6372,5.6462,5.6628,5.7077,5.7274,5.7393,5.7393,5.7543,5.7663,5.7663,5.7663,5.7992,5.8637,5.8637,5.8996,5.9654,5.9654,5.9654,5.9681,6.0015,6.1264,6.3041,6.3378,6.4598,6.6301,6.6708,6.685,6.6781,6.6078,6.5561,6.5222,0.0,0.0,0.0,0.0,0.0,0.0,0.0,0.0,0.0,0.0,0.0,0.0,0.0,4.1207,4.1244,4.507,4.3655,4.391,4.7026,4.4355,4.4327,4.8104,4.4532,4.4854,5.0037,4.7474,4.7749,5.1176,4.8461,4.8511,5.1182,4.9861,4.9945,5.1206,5.1206,5.1206,5.1206,5.1206,5.1206,5.1206,5.1206,5.1206,5.1206,5.1206,5.1206,5.1206,5.1206,5.1206,5.1206,5.1206,5.1206,5.1206,5.1206,5.1206,5.1206,5.1206,5.1206,0.0,0.0,0.0,5.1206,5.1206,5.1206,5.1206,5.1206,5.1206,5.1206,5.1206,5.1206,5.1206,5.1206,5.1726,5.2187,5.2187,5.2737,5.3396,5.4072,5.4179,5.467,5.5983,5.6132,5.6372,0.0,5.6479,5.6402,5.7017,5.7064,5.7077,5.7094,5.7709,5.8055,5.8055,5.8697,5.9039,5.9039,5.9039,5.9368,6.004,6.004,6.0386,6.103,6.103,6.103,6.11,6.2346,6.2911,6.3095,6.4349,6.4882,6.508,6.6451,6.6977,6.7161,6.8472,6.8019,6.6734,0.0,0.0,0.0,0.0,0.0,0.0,0.0,0.0,0.0,0.0,0.0,0.0,0.0,0.0,0.0,0.0,4.513,4.474,4.7085,4.5444,4.5337,4.7492,4.5021,4.5684,5.0097,4.6163,4.5958,4.9861,4.7069,4.7133,4.9861,4.9406,4.9909,5.1206,5.1206,5.1206,5.1206,5.1206,5.1206,5.1206,5.1206,5.1206,5.1206,5.1206,5.1206,5.1206,0.0,5.1206,5.1206,5.1206,5.1206,5.1206,5.1206,5.1206,5.1206,5.1206,0.0,0.0,0.0,0.0,5.1206,5.1206,5.1206,5.1206,5.1206,5.1206,5.1206,5.1206,5.1546,5.1846,5.1846,5.2396,5.3007,5.3443,5.3713,5.4251,5.5371,5.5521,5.585,5.6688,5.6808,0.0,0.0,0.0,0.0,5.7709,5.7769,5.7949,5.8411,5.8637,5.8979,5.9398,5.9638,5.9967,6.0402,6.0432,6.0521,6.0761,6.0761,6.088,6.109,6.109,6.109,6.1118,6.1544,6.2222,6.3026,6.3454,6.4145,6.4945,6.5403,6.5618,6.5776,6.7192,6.7386,6.7067,0.0,0.0,0.0,0.0,0.0,0.0,0.0,0.0,0.0,0.0,0.0,0.0,0.0,0.0,0.0,0.0,0.0,4.6144,4.7852,4.6961,4.6724,4.7523,4.5876,4.6243,4.9015,4.5566,4.5262,4.8452,4.6135,4.6188,4.8464,4.8977,4.9667,5.052,5.0988,5.1206,5.1206,5.1206,5.1206,5.1206,5.1206,5.1206,5.1206,5.1206,5.1206,0.0,5.1206,5.1206,5.1206,5.1206,5.1206,5.1206,5.1206,5.1206,5.1206,0.0,0.0,0.0,0.0,5.1206,5.1206,5.1206,5.1206,5.1206,5.1206,5.1397,5.1546,5.1546,5.2097,5.2558,5.2558,5.3097,5.3785,5.4461,5.476,5.5281,5.6372,5.6509,5.6748,5.7393,5.7453,5.7709,0.0,0.0,0.0,5.8457,5.8667,5.9009,5.9428,5.9697,6.0013,6.0446,6.0446,6.0655,6.109,6.109,6.121,6.1449,6.1702,6.1822,6.1822,6.1822,6.1822,6.1822,6.1822,6.2282,6.3047,6.3047,6.3514,6.429,6.4799,6.4961,6.5192,6.7076,6.7481,6.7272,0.0,0.0,0.0,0.0,0.0,0.0,0.0,0.0,0.0,0.0,0.0,0.0,0.0,0.0,0.0,0.0,0.0,0.0,4.9117,4.867,4.8256,4.8063,4.7029,4.6692,4.721,4.5767,4.5727,4.721,4.5727,4.5767,4.7235,4.8564,4.9235,4.9357,5.0627,5.1206,5.1206,5.1206,5.1206,5.1206,5.1206,5.1206,5.1206,5.1206,5.1206,5.1206,5.1206,5.1206,5.1206,5.1206,5.1206,5.1206,5.1206,5.1206,5.1206,5.1206,0.0,5.1206,5.1206,5.1206,5.1206,5.1206,5.1206,5.1206,5.1247,5.1726,5.2217,5.2247,5.2797,5.3246,0.0,0.0,5.4521,5.5162,5.5803,5.6462,5.7077,5.7154,5.7393,0.0,0.0,0.0,0.0,0.0,0.0,5.9249,0.0,6.016,6.016,6.0731,6.112,6.115,6.115,6.118,6.121,6.121,6.1509,6.2151,6.2794,6.3108,6.3108,6.3108,6.3108,6.3108,6.3108,6.3108,6.3108,6.3108,6.3108,6.3237,6.4499,6.5005,6.5328,6.7999,6.8161,6.7297,0.0,0.0,0.0,0.0,0.0,0.0,0.0,0.0,0.0,0.0,0.0,0.0,0.0,0.0,0.0,0.0,0.0,0.0,4.764,4.8485,4.8022,4.5905,4.7508,4.8505,4.8663,4.6252,4.6214,4.8651,4.6214,4.6252,4.8663,4.9038,4.974,5.0698,5.1047,5.1206,5.1206,5.1206,5.1206,5.1206,5.1206,5.1206,5.1206,5.1206,5.1206,5.1206,5.1206,5.1206,5.1206,5.1206,5.1206,5.1206,5.1206,5.1206,5.1206,5.1206,0.0,5.1206,5.1206,5.1206,5.1206,5.1206,5.1206,5.1337,5.1828,5.2067,5.2336,5.2827,5.3486,5.3952,0.0,0.0,0.0,5.5923,5.6479,0.0,5.7739,5.7859,0.0,5.8756,0.0,5.9668,5.9831,6.0446,0.0,0.0,6.0731,6.0864,6.0864,6.1,6.1329,6.1822,6.1852,6.2091,6.2584,6.2584,6.2674,6.2854,6.3018,6.3108,6.3108,6.3108,6.3108,6.3108,6.3108,6.3108,6.3108,6.3108,6.3108,6.3137,6.3464,6.3606,6.3817,6.5531,6.5928,6.5843,0.0,0.0,0.0,0.0,0.0,0.0,0.0,0.0,0.0,0.0,0.0,0.0,0.0,0.0,0.0,0.0,0.0,0.0,0.0,4.9655,4.9112,4.694,4.8911,4.9492,4.8302,4.7338,4.7299,4.8289,4.7299,4.7338,4.8302,4.9492,5.0179,5.0347,5.0941,5.1206,5.1206,5.1206,5.1206,0.0,0.0,5.1206,5.1206,5.1206,5.1206,5.1206,5.1206,5.1206,5.1206,5.1206,5.1206,5.1206,5.1206,5.1206,5.1206,5.1206,5.1206,5.1206,5.1206,5.1206,5.1265,5.1576,5.1636,5.1816,5.2498,5.2875,5.3174,5.3563,5.4162,0.0,5.5029,5.5683,5.6372,0.0,0.0,0.0,5.8457,5.8786,5.9129,0.0,6.0116,0.0,6.0535,6.1164,6.1553,0.0,6.1553,6.1553,6.1553,6.1822,6.2151,6.2525,6.2555,6.2734,6.3108,6.3108,6.3108,6.3108,6.3108,6.3108,6.3108,6.3108,6.3108,6.3108,0.0,6.3108,6.3108,6.3108,6.3108,6.3108,6.3108,6.3108,6.325,6.4623,6.4717,6.4512,0.0,0.0,0.0,0.0,0.0,0.0,0.0,0.0,0.0,0.0,0.0,0.0,0.0,0.0,0.0,0.0,0.0,0.0,0.0,0.0,5.0531,4.9001,5.0371,4.9981,4.7427,4.8576,4.8688,4.7631,4.8688,4.8663,4.7694,5.0095,5.0579,4.9504,5.0674,5.1206,5.1206,5.1206,5.1206,5.1206,5.1206,5.1206,5.1206,0.0,5.1206,5.1206,5.1206,5.1206,5.1206,5.1206,5.1206,5.1206,5.1206,5.1206,5.1206,5.1206,5.1206,5.1206,5.1206,5.1265,5.1487,5.2067,5.2276,5.2516,5.3186,5.3773,5.4239,5.4299,0.0,5.5401,5.6072,5.6282,5.6718,5.7919,5.8175,5.8457,5.9129,5.9727,6.013,6.022,6.0835,6.1239,6.1239,6.1852,6.2241,6.2241,6.2241,6.2241,6.2241,6.2794,6.3108,6.3108,6.3108,6.3108,6.3108,6.3108,6.3108,6.3108,6.3108,6.3108,6.3108,6.3108,6.3108,6.3108,0.0,0.0,6.3108,6.3108,6.3108,6.3108,6.3108,6.3108,6.3222,6.4401,6.4097,6.3451,0.0,0.0,0.0,0.0,0.0,0.0,0.0,0.0,0.0,0.0,4.7106,4.7051,0.0,0.0,0.0,0.0,0.0,0.0,0.0,0.0,0.0,4.7567,4.9861,5.0472,4.8862,4.9088,4.963,5.0496,4.963,4.9655,5.0508,5.0976,5.107,5.087,5.1094,5.1206,5.1206,5.1206,5.1206,5.1206,5.1206,5.1206,5.1206,5.1206,0.0,0.0,5.1206,5.1206,5.1206,5.1206,5.1206,5.1206,5.1206,5.1206,5.1206,5.1206,5.1206,5.1206,5.1206,5.1606,5.2067,5.2187,5.2618,5.3216,5.3862,5.4132,0.0,0.0,5.5119,5.5401,5.6072,5.6611,5.7184,5.7965,5.8577,5.9159,5.9817,6.004,6.031,0.0,6.1523,6.1942,6.1942,0.0,0.0,0.0,0.0,6.2928,6.2928,6.3048,6.3108,6.3108,6.3108,6.3108,6.3108,6.3108,6.3108,6.3108,6.3108,6.3108,6.3108,6.3108,6.3108,6.3108,0.0,0.0,6.3108,6.3108,6.3108,6.3108,6.3108,6.3108,6.3137,6.3365,6.3293,6.318,0.0,0.0,0.0,0.0,0.0,0.0,0.0,4.7309,4.7309,4.7309,4.7309,4.7309,4.7309,4.7309,0.0,0.0,0.0,0.0,0.0,0.0,0.0,0.0,5.0508,5.0905,5.0251,5.0239,5.0567,5.1206,0.0,5.0579,5.1206,5.1206,5.1206,5.1206,5.1206,5.1206,5.1206,5.1206,5.1206,5.1206,5.1206,5.1206,5.1206,0.0,0.0,0.0,5.1206,5.1206,5.1206,5.1206,5.1206,5.1206,5.1206,5.1206,5.1206,5.1206,5.1206,5.1277,5.1636,5.1947,5.2366,5.3084,5.3473,5.3892,5.4581,0.0,0.0,0.0,5.5491,5.591,5.6539,5.7184,5.7829,5.8517,5.9189,5.9727,6.004,6.0699,6.1253,6.1583,6.2211,6.2614,0.0,6.2914,0.0,0.0,0.0,6.3108,6.3108,6.3108,6.3108,6.3108,6.3108,6.3108,6.3108,6.3108,6.3108,6.3108,6.3108,6.3108,6.3108,6.3108,6.3108,6.3108,6.3108,0.0,6.3108,6.3108,6.3108,6.3108,6.3108,6.3108,6.3108,6.3108,6.3108,6.3108,0.0,0.0,0.0,0.0,0.0,0.0,0.0,4.7309,4.7309,4.7309,4.7309,4.7309,4.7309,4.7309,4.7519,0.0,0.0,0.0,0.0,0.0,0.0,0.0,0.0,0.0,5.1206,0.0,0.0,5.1206,5.1206,0.0,0.0,0.0,0.0,0.0,5.1206,5.1206,5.1206,5.1206,5.1206,0.0,0.0,5.1206,0.0,0.0,0.0,0.0,0.0,5.1206,5.1206,5.1206,5.1206,5.1206,5.1206,5.1206,5.1206,5.1206,5.1206,5.1367,5.2007,5.2306,5.2695,5.388,5.4299,5.4551,5.5072,5.5192,0.0,0.0,5.573,5.6372,5.6987,5.7649,5.8324,5.9009,5.9668,6.016,6.028,6.1357,6.2151,6.2315,6.2764,0.0,6.3108,6.3108,0.0,0.0,0.0,0.0,6.3108,6.3108,6.3108,6.3108,6.3108,6.3108,6.3108,6.3108,6.3108,6.3108,6.3108,6.3108,6.3108,6.3108,6.3108,6.3108,6.3108,0.0,0.0,6.3108,6.3108,6.3108,6.3108,6.3108,6.3108,6.3108,6.3108,6.3108,0.0,0.0,0.0,0.0,0.0,0.0,0.0,4.7309,4.7309,4.7309,4.7309,4.7309,4.7309,4.7309,4.7328,0.0,0.0,0.0,0.0,0.0,0.0,0.0,0.0,0.0,0.0,0.0,0.0,5.1206,5.1206,0.0,0.0,0.0,0.0,0.0,0.0,5.1206,5.1206,5.1206,0.0,0.0,0.0,0.0,0.0,0.0,0.0,0.0,0.0,5.1206,5.1206,5.1206,5.1206,5.1206,5.1206,5.1206,5.1206,5.1206,5.1206,5.1367,5.2007,5.2636,5.3276,5.4012,5.467,5.5119,5.5192,0.0,0.0,0.0,5.573,5.6372,5.6987,5.7649,5.8324,5.9009,5.9668,6.031,6.091,6.1642,6.2345,6.2944,0.0,0.0,6.3108,6.3108,0.0,0.0,0.0,0.0,6.3108,6.3108,6.3108,6.3108,6.3108,6.3108,6.3108,6.3108,6.3108,6.3108,6.3108,6.3108,6.3108,6.3108,6.3108,6.3108,6.3108,0.0,0.0,6.3108,6.3108,6.3108,6.3108,6.3108,6.3108,6.3108,6.3108,6.3108,0.0,0.0,0.0,0.0,0.0,0.0,4.7309,4.7309,4.7309,4.7309,4.7309,4.7309,4.7309,4.7309,4.7309,0.0,0.0,0.0,0.0,0.0,0.0,0.0,0.0,0.0,0.0,0.0,0.0,0.0,0.0,0.0,0.0,0.0,0.0,0.0,0.0,5.1206,5.1206,5.1206,0.0,0.0,0.0,0.0,0.0,0.0,0.0,0.0,0.0,0.0,5.1206,5.1206,5.1206,5.1206,5.1206,5.1206,5.1206,5.1206,5.1487,5.1947,5.2618,5.3306,5.3952,5.464,5.4999,5.5192,5.5192,0.0,5.5311,5.5713,5.6299,5.6958,5.759,5.8248,5.8786,5.9069,5.9997,6.0805,6.106,6.2032,6.2794,6.3078,6.3108,6.3108,0.0,0.0,6.3108,0.0,0.0,0.0,6.3108,6.3108,6.3108,6.3108,6.3108,6.3108,6.3108,6.3108,6.3108,6.3108,6.3108,6.3108,6.3108,6.3108,6.3108,6.3108,6.3108,0.0,0.0,6.3108,6.3303,6.3632,6.3632,6.3887,6.4231,6.4231,6.4231,6.4231,0.0,0.0,0.0,0.0,0.0,4.7309,4.7309,4.7309,4.7309,4.7309,4.7309,4.7309,4.7309,4.7309,4.7309,4.7309,0.0,0.0,0.0,0.0,0.0,0.0,0.0,0.0,0.0,0.0,0.0,0.0,0.0,0.0,0.0,0.0,0.0,0.0,0.0,0.0,0.0,0.0,0.0,0.0,0.0,0.0,0.0,0.0,0.0,0.0,0.0,0.0,0.0,0.0,0.0,5.1206,5.1206,5.1206,5.1247,5.1427,5.1828,5.2396,5.3276,5.3832,5.4359,5.5029,5.5192,5.5192,5.5192,0.0,5.5401,5.6072,5.6688,5.7304,5.7979,5.8637,5.9159,5.9368,6.0342,6.118,6.1359,6.2375,6.3108,6.3108,6.3108,6.3108,0.0,6.3108,6.3108,0.0,0.0,0.0,6.3108,6.3108,6.3108,6.3108,6.3108,6.3108,6.3108,6.3108,6.3108,6.3108,6.3108,6.3108,6.3108,6.3108,6.3108,6.3108,0.0,0.0,0.0,6.3572,6.3917,6.4291,6.4291,6.459,6.4994,6.4994,6.4994,6.4994,0.0,0.0,0.0,0.0,0.0,0.0,0.0,4.7309,4.7309,4.7309,4.7309,4.7309,4.7309,4.7309,4.7309,4.7309,0.0,0.0,0.0,0.0,0.0,0.0,0.0,0.0,0.0,0.0,0.0,0.0,0.0,0.0,0.0,0.0,0.0,0.0,0.0,0.0,0.0,0.0,0.0,0.0,0.0,0.0,0.0,0.0,0.0,0.0,0.0,0.0,0.0,0.0,0.0,0.0,0.0,5.1206,5.1337,5.1995,5.2187,5.2486,5.3832,5.4179,5.4359,5.5029,5.5192,5.5192,0.0,0.0,5.5401,5.6072,5.6688,5.7304,5.7979,5.8637,5.9308,5.998,6.0655,6.1329,6.2002,6.2674,6.3108,6.3108,6.3108,6.3108,6.3108,6.3108,6.3108,0.0,0.0,0.0,6.3108,6.3108,6.3108,6.3108,6.3108,6.3108,6.3108,6.3108,6.3108,6.3108,6.3108,6.3108,6.3108,6.3108,6.3108,0.0,0.0,0.0,0.0,6.471,6.4994,6.4994,6.4994,6.4994,6.4994,6.4994,6.4994,6.4994,0.0,0.0,0.0,0.0,0.0,0.0,0.0,4.7309,4.7309,4.7309,4.7309,4.7309,4.7309,4.7309,4.7309,4.7309,0.0,0.0,0.0,0.0,0.0,0.0,0.0,0.0,0.0,0.0,0.0,0.0,0.0,0.0,0.0,0.0,0.0,0.0,0.0,0.0,0.0,0.0,0.0,0.0,0.0,0.0,0.0,0.0,0.0,0.0,0.0,0.0,0.0,0.0,0.0,0.0,0.0,0.0,0.0,5.2558,5.2887,5.3097,5.3952,5.4538,5.494,5.5162,5.5192,5.5192,5.5192,5.5551,5.6072,5.6688,5.7334,5.7979,5.8667,5.8966,5.9308,5.998,6.0655,6.1329,6.2002,6.2674,6.3108,6.3108,6.3108,6.3108,0.0,0.0,6.3108,0.0,0.0,0.0,6.3108,6.3108,6.3108,6.3108,6.3108,6.3108,6.3108,6.3108,6.3108,6.3108,6.3108,6.3303,6.3722,6.3722,0.0,0.0,0.0,0.0,0.0,6.4904,6.5263,6.5697,6.5697,6.5966,6.637,6.637,6.637,6.637,0.0,0.0,0.0,0.0,0.0,0.0,0.0,4.7309,4.7309,4.7309,4.7309,4.7309,4.7309,4.7309,4.7309,4.7309,0.0,0.0,0.0,0.0,0.0,0.0,0.0,0.0,0.0,0.0,0.0,0.0,0.0,0.0,0.0,0.0,0.0,0.0,0.0,0.0,0.0,0.0,0.0,0.0,0.0,0.0,5.1206,0.0,0.0,0.0,0.0,0.0,0.0,0.0,0.0,0.0,0.0,0.0,0.0,0.0,5.3198,5.3396,5.4311,5.488,5.5192,5.5192,5.5192,5.5192,5.5192,5.5713,5.6372,5.6987,5.762,5.8308,5.8979,5.9099,5.9398,6.0326,6.0835,6.1419,6.2345,6.2824,6.3108,6.3108,6.3108,0.0,0.0,6.3108,0.0,0.0,0.0,0.0,6.3108,6.3108,6.3108,6.3108,6.3108,6.3108,6.3108,6.3108,6.3213,6.3452,6.3452,6.3767,6.4381,6.4381,0.0,0.0,0.0,0.0,0.0,6.5637,6.5996,6.637,6.637,6.664,6.7014,6.7014,6.7014,6.7014,0.0,0.0,0.0,0.0,0.0,0.0,0.0,0.0,4.7309,4.7309,4.7309,4.7309,4.7309,4.7309,4.7309,4.7309,0.0,0.0,0.0,0.0,0.0,0.0,0.0,0.0,0.0,0.0,0.0,0.0,5.0177,5.0536,5.1206,0.0,0.0,0.0,0.0,0.0,0.0,0.0,0.0,0.0,0.0,0.0,0.0,0.0,0.0,0.0,0.0,0.0,0.0,0.0,0.0,0.0,0.0,0.0,0.0,0.0,0.0,0.0,0.0,5.5192,5.5192,5.5192,5.5192,5.5222,5.5251,5.5803,0.0,5.7047,5.7709,5.8367,5.9009,5.9129,5.9594,6.088,6.115,6.1598,6.2928,6.3108,6.3108,6.3108,6.3108,0.0,6.3108,6.3108,0.0,0.0,0.0,0.0,6.3108,6.3108,6.3108,6.3108,6.3123,6.3153,6.3153,6.3153,6.3482,6.4066,6.4066,6.4411,6.5084,6.5084,0.0,0.0,0.0,0.0,0.0,6.6729,6.7014,6.7014,6.7014,6.7014,6.7014,6.7014,6.7014,6.7014,0.0,0.0,0.0,0.0,0.0,0.0,0.0,0.0,0.0,0.0,4.7309,4.7309,4.7309,4.7309,4.7309,0.0,0.0,0.0,0.0,0.0,0.0,0.0,0.0,0.0,0.0,0.0,0.0,4.9505,4.9979,5.0536,5.1206,5.1206,0.0,0.0,0.0,0.0,0.0,0.0,0.0,0.0,0.0,0.0,0.0,0.0,0.0,0.0,5.1206,5.1206,0.0,0.0,0.0,0.0,0.0,0.0,0.0,0.0,5.3198,0.0,5.4832,0.0,5.5192,5.5192,5.5192,5.5341,0.0,5.6449,5.7064,5.7739,5.8397,5.8906,5.9056,5.9518,6.0146,6.097,6.1523,6.2151,6.2974,6.3108,6.3108,6.3108,6.3108,6.3108,6.3108,6.3108,0.0,0.0,0.0,6.3108,6.3108,6.3108,6.3108,6.3108,6.3542,6.3782,6.3782,6.3782,6.4126,6.4755,6.4755,6.5129,6.5757,6.5757,0.0,0.0,0.0,0.0,6.6759,6.6954,6.7014,6.7014,6.7014,6.7014,6.7014,6.7014,6.7014,6.7014,0.0,0.0,0.0,0.0,0.0,0.0,0.0,0.0,0.0,0.0,0.0,0.0,0.0,0.0,0.0,0.0,0.0,0.0,0.0,0.0,0.0,0.0,0.0,0.0,0.0,0.0,0.0,0.0,0.0,5.0536,0.0,0.0,0.0,0.0,0.0,0.0,0.0,0.0,0.0,0.0,5.1206,0.0,0.0,0.0,0.0,0.0,5.1206,5.1206,0.0,5.1206,5.1206,5.1206,0.0,0.0,0.0,0.0,5.3198,5.3486,5.4832,5.5192,5.5192,5.5192,5.5431,5.5743,5.6102,5.6898,5.7649,5.8038,5.8637,5.9099,5.9099,5.9638,6.034,6.1,6.1672,6.2331,6.3018,6.3108,6.3108,6.3108,6.3108,6.3108,0.0,0.0,0.0,0.0,0.0,6.3108,6.3108,6.3108,6.3227,6.3512,6.3827,6.4006,6.4006,6.4306,6.48,6.5458,6.5458,6.5817,6.646,6.646,6.667,0.0,0.0,0.0,6.7014,6.7014,6.7014,6.7014,6.7014,6.7014,6.7014,6.7014,6.7014,6.7014,0.0,0.0,0.0,0.0,0.0,0.0,0.0,0.0,0.0,0.0,0.0,0.0,0.0,0.0,0.0,0.0,0.0,0.0,0.0,0.0,0.0,0.0,0.0,0.0,0.0,0.0,0.0,0.0,0.0,0.0,0.0,0.0,0.0,0.0,0.0,0.0,0.0,0.0,0.0,0.0,5.1206,0.0,0.0,0.0,0.0,0.0,0.0,0.0,0.0,5.1206,5.1206,5.1206,5.1206,0.0,0.0,0.0,0.0,0.0,5.4862,5.5192,5.5192,5.5192,5.57,5.6222,5.6312,5.7244,5.8115,5.8234,5.8697,5.9115,5.9249,5.9787,6.0475,6.115,6.1822,6.2465,6.3003,6.3108,6.3108,6.3108,6.3108,0.0,6.3108,0.0,0.0,0.0,0.0,6.3108,6.3108,6.3183,6.3482,6.3977,6.4186,6.4306,6.4306,6.4859,6.5488,6.6161,6.6161,6.646,6.7014,6.7014,6.7014,0.0,0.0,0.0,6.7014,6.7014,6.7014,6.7014,6.7014,6.7014,6.7014,6.7014,6.7014,6.7014,0.0,0.0,0.0,0.0,0.0,0.0,0.0,0.0,0.0,0.0,0.0,0.0,0.0,0.0,0.0,0.0,0.0,0.0,0.0,0.0,0.0,0.0,0.0,0.0,0.0,0.0,0.0,0.0,0.0,0.0,5.1206,5.1206,5.1206,0.0,0.0,0.0,0.0,0.0,0.0,0.0,0.0,0.0,0.0,0.0,0.0,0.0,0.0,0.0,0.0,5.1206,5.1206,5.1206,5.1206,0.0,0.0,0.0,0.0,0.0,5.497,5.5192,5.5192,5.5192,5.57,5.6342,5.6838,5.756,5.8264,5.8816,5.9039,5.9279,5.9831,6.0505,6.1164,6.1852,6.2525,6.2974,6.3108,6.3108,6.3108,6.3108,0.0,6.3108,6.3108,0.0,0.0,0.0,0.0,6.3108,6.3108,6.3572,6.3887,6.4006,6.5114,6.5697,6.5697,6.5787,6.6176,6.6849,6.6849,6.6894,6.7014,6.7014,6.7014,0.0,0.0,6.7014,6.7014,6.7014,6.7014,6.7014,6.7014,6.7014,6.7014,6.7014,6.7014,6.7014,0.0,0.0,0.0,0.0,0.0,0.0,0.0,0.0,0.0,0.0,0.0,0.0,0.0,0.0,0.0,0.0,0.0,0.0,0.0,0.0,0.0,0.0,0.0,0.0,0.0,0.0,0.0,0.0,0.0,5.0907,5.1206,5.1206,5.1206,5.1206,0.0,0.0,0.0,0.0,0.0,0.0,0.0,0.0,0.0,0.0,0.0,0.0,0.0,0.0,0.0,0.0,5.1206,5.1206,5.1206,0.0,0.0,0.0,0.0,0.0,5.5012,5.5192,5.5281,5.5641,5.6209,5.6838,5.75,5.8158,5.8726,5.9039,5.9398,5.9727,6.004,6.0924,6.1852,6.2525,6.2884,6.3108,6.3108,6.3108,6.3108,0.0,0.0,6.3108,0.0,0.0,0.0,0.0,0.0,0.0,6.3108,6.3662,6.4186,6.453,6.5488,6.6176,6.655,6.655,6.67,6.7014,6.7014,6.7014,6.7014,6.7014,6.7014,6.7014,0.0,6.7014,6.7014,6.7014,6.7014,6.7014,6.7014,6.7014,6.7014,6.7014,6.7014,6.7014,0.0,0.0,0.0,0.0,0.0,0.0,0.0,0.0,0.0,0.0,0.0,0.0,0.0,0.0,0.0,0.0,0.0,0.0,0.0,0.0,0.0,0.0,0.0,0.0,0.0,0.0,4.9733,5.0207,5.0877,5.1206,5.1206,5.1206,5.1206,0.0,0.0,0.0,0.0,0.0,0.0,0.0,0.0,0.0,0.0,0.0,0.0,0.0,0.0,0.0,0.0,0.0,0.0,0.0,0.0,0.0,0.0,5.3037,5.3785,5.4551,5.5059,5.5311,5.5581,5.6252,5.6748,5.7274,5.7949,5.8607,5.9145,5.9308,5.9741,6.019,6.0519,6.1537,6.2495,6.3018,6.3108,6.3108,6.3108,6.3108,0.0,0.0,0.0,0.0,0.0,0.0,0.0,0.0,0.0,0.0,6.3303,6.3887,6.453,6.5203,6.5877,6.649,6.6999,6.7014,6.7014,6.7014,6.7014,6.7014,6.7014,6.7014,6.7014,6.7014,6.7014,6.7014,6.7014,6.7014,6.7014,6.7014,6.7014,6.7014,6.7014,6.7014,6.7014,6.7014,0.0,0.0,0.0,0.0,0.0,0.0,0.0,0.0,0.0,0.0,0.0,0.0,0.0,0.0,0.0,0.0,0.0,0.0,0.0,0.0,0.0,0.0,0.0,0.0,0.0,4.9512,5.0147,5.0207,5.0877,5.1206,5.1206,5.1206,5.1206,5.1206,0.0,0.0,0.0,0.0,0.0,0.0,0.0,0.0,0.0,0.0,0.0,0.0,0.0,0.0,0.0,0.0,0.0,0.0,0.0,0.0,5.3139,5.3198,5.4114,5.5132,5.5192,5.5641,5.6282,5.6898,5.7077,5.7274,5.7949,5.8607,5.9279,5.9891,0.0,0.0,6.1746,6.2555,6.3033,6.3108,6.3108,6.3108,6.3108,0.0,0.0,0.0,0.0,0.0,0.0,0.0,0.0,0.0,0.0,0.0,6.3917,6.456,6.5248,6.5906,6.658,6.6954,6.7014,6.7014,6.7014,6.7014,6.7014,6.7014,6.7014,6.7014,6.7014,6.7014,6.7014,6.7014,6.7014,6.7014,6.7014,6.7014,6.7014,6.7014,6.7014,6.7014,6.7014,6.7014,0.0,0.0,0.0,0.0,0.0,0.0,0.0,0.0,0.0,0.0,0.0,0.0,0.0,0.0,0.0,0.0,0.0,0.0,0.0,0.0,0.0,0.0,0.0,4.9471,4.9471,4.9938,5.0387,5.0817,5.1086,5.1206,5.1206,5.1206,0.0,0.0,0.0,0.0,0.0,0.0,0.0,0.0,0.0,0.0,0.0,0.0,0.0,0.0,0.0,0.0,0.0,0.0,5.1206,5.1265,5.1696,5.2468,5.3288,5.3683,5.4473,5.5281,5.57,5.6013,5.6419,5.7483,5.7709,5.7889,5.8577,5.8919,5.9279,5.9951,6.0416,0.0,0.0,6.2928,6.3108,6.3108,6.3108,6.3108,6.3108,6.3108,0.0,0.0,0.0,0.0,0.0,0.0,0.0,0.0,0.0,0.0,6.3977,6.5039,6.5727,6.5996,6.664,6.7014,6.7014,6.7014,6.7014,6.7014,6.7014,6.7014,6.7014,6.7014,6.7014,6.7014,6.7014,6.7014,6.7014,6.7014,6.7014,6.7014,6.7014,6.7014,6.7014,6.7014,6.7014,6.7014,0.0,0.0,0.0,0.0,0.0,0.0,0.0,0.0,0.0,0.0,0.0,0.0,0.0,0.0,0.0,0.0,0.0,0.0,0.0,0.0,0.0,0.0,0.0,5.0297,5.0506,5.0518,5.0757,5.1206,5.1206,5.1206,5.1206,0.0,0.0,0.0,0.0,0.0,0.0,0.0,0.0,0.0,0.0,0.0,0.0,0.0,0.0,0.0,0.0,0.0,0.0,0.0,5.1206,5.1307,5.2007,5.2677,5.3336,5.4012,5.467,5.5341,5.6013,5.6342,5.6748,5.7829,5.8264,5.8577,5.9249,5.9428,5.9608,6.0266,6.1104,6.2002,6.2928,0.0,0.0,0.0,6.3108,6.3108,6.3108,6.3108,6.3108,0.0,0.0,0.0,0.0,0.0,0.0,0.0,0.0,0.0,0.0,6.5383,6.6086,6.6311,6.6759,6.7014,6.7014,6.7014,6.7014,6.7014,6.7014,6.7014,6.7014,6.7014,6.7014,6.7014,6.7014,6.7014,6.7014,6.7014,6.7014,6.7014,6.7014,6.7014,6.7014,6.7014,6.7014,6.7014,0.0,0.0,0.0,0.0,0.0,0.0,0.0,0.0,0.0,0.0,0.0,0.0,0.0,0.0,0.0,0.0,0.0,0.0,0.0,0.0,0.0,0.0,0.0,5.0506,5.1176,5.1206,5.1206,5.1206,5.1206,5.1206,5.1206,5.1206,0.0,0.0,0.0,0.0,0.0,0.0,0.0,0.0,0.0,0.0,0.0,0.0,0.0,0.0,0.0,0.0,0.0,0.0,5.1206,5.1337,5.2007,5.2677,5.3336,5.4012,5.467,5.5371,5.6042,5.6658,5.7274,5.7935,5.8607,5.9279,5.9951,6.01,6.028,6.097,6.2181,6.3108,6.3108,0.0,0.0,6.3108,6.3108,6.3108,6.3108,6.3108,6.3108,0.0,0.0,0.0,0.0,0.0,0.0,0.0,0.0,0.0,0.0,6.5637,6.6311,6.6984,6.7014,6.7014,6.7014,6.7014,6.7014,6.7014,6.7014,6.7014,6.7014,6.7014,6.7014,6.7014,6.7014,6.7014,6.7014,6.7014,6.7014,6.7014,6.7014,6.7014,6.7014,6.7014,6.7014,6.7014,0.0,0.0,0.0,0.0,0.0,0.0,0.0,0.0,0.0,0.0,0.0,0.0,0.0,0.0,0.0,0.0,0.0,0.0,0.0,0.0,0.0,0.0,0.0,0.0,0.0,0.0,5.1206,5.1206,5.1206,5.1206,0.0,0.0,0.0,5.1206,0.0,0.0,0.0,0.0,0.0,0.0,0.0,5.1206,0.0,0.0,0.0,0.0,0.0,0.0,0.0,0.0,0.0,0.0,5.2677,5.3366,5.4042,5.47,5.5371,5.6042,5.6658,5.7304,5.7979,5.8637,5.8936,5.9279,5.9951,6.01,6.0429,6.1583,6.2495,6.3108,6.3108,0.0,0.0,0.0,0.0,0.0,6.3108,6.3108,6.3108,6.3108,0.0,0.0,0.0,0.0,0.0,0.0,0.0,0.0,0.0,6.634,6.6789,6.6984,6.7014,6.7014,6.7014,6.7014,6.7014,6.7014,6.7014,6.7014,6.7014,6.7014,6.7014,6.7014,6.7014,6.7014,6.7014,6.7014,6.7014,6.7014,6.7014,6.7014,6.7014,6.7014,6.7014,6.7014,0.0,0.0,0.0,0.0,0.0,0.0,0.0,0.0,0.0,0.0,0.0,0.0,0.0,0.0,0.0,0.0,0.0,0.0,0.0,0.0,0.0,0.0,0.0,0.0,0.0,5.1206,5.1206,0.0,0.0,0.0,0.0,0.0,0.0,5.1206,0.0,5.1206,0.0,0.0,0.0,5.1206,5.1206,5.1206,5.1206,0.0,0.0,0.0,0.0,0.0,0.0,0.0,0.0,0.0,5.2977,5.3665,5.4329,5.4999,5.5671,5.6342,5.6928,5.759,5.8264,5.8936,5.9308,5.9727,6.0699,6.0894,6.1208,6.2285,6.2824,6.3108,6.3108,6.3108,0.0,6.3108,0.0,0.0,0.0,6.3108,6.3108,6.3108,0.0,0.0,0.0,0.0,0.0,0.0,0.0,0.0,0.0,6.664,6.7014,6.7014,6.7014,6.7014,6.7014,6.7014,6.7014,6.7014,6.7014,6.7014,6.7014,6.7014,6.7014,6.7014,6.7014,6.7014,6.7014,6.7014,6.7014,6.7014,6.7014,6.7014,6.7014,6.7014,6.7014,6.7014,0.0,0.0,0.0,0.0,0.0,0.0,0.0,0.0,0.0,0.0,0.0,0.0,0.0,0.0,0.0,0.0,0.0,0.0,0.0,0.0,0.0,0.0,0.0,0.0,0.0,0.0,0.0,0.0,0.0,0.0,0.0,0.0,5.1206,5.1206,0.0,5.1206,0.0,5.1206,5.1206,5.1206,5.1206,5.1206,5.1206,5.1206,0.0,0.0,0.0,0.0,0.0,0.0,0.0,0.0,5.3067,5.3743,5.4418,5.5029,5.57,5.6402,5.6958,5.762,5.8338,5.8936,5.9638,6.0519,6.1806,6.2151,6.2375,6.2974,6.3108,6.3108,6.3108,6.3108,6.3108,6.3108,6.3108,0.0,0.0,6.3108,6.3108,6.3108,0.0,0.0,0.0,0.0,0.0,0.0,0.0,0.0,0.0,6.667,6.7014,6.7014,6.7014,6.7014,6.7014,6.7014,6.7014,0.0,6.7014,6.7014,6.7014,6.7014,6.7014,6.7014,6.7014,6.7014,6.7014,6.7014,6.7014,6.7014,6.7014,6.7014,6.7014,6.7014,6.7014,6.7014,0.0,0.0,0.0,0.0,0.0,0.0,0.0,0.0,0.0,0.0,0.0,0.0,0.0,0.0,0.0,0.0,0.0,0.0,0.0,0.0,0.0,0.0,0.0,0.0,0.0,0.0,0.0,0.0,0.0,0.0,0.0,0.0,0.0,5.1206,0.0,5.1206,5.1206,5.1206,5.1206,5.1206,5.1206,5.1206,5.1206,5.1206,0.0,0.0,0.0,0.0,0.0,0.0,0.0,0.0,5.3773,5.4431,5.4999,5.5162,5.6,5.6928,5.7064,5.7962,5.8906,5.9069,5.9983,6.1104,6.1912,6.2525,6.2928,6.3063,6.3108,6.3108,6.3108,6.3108,6.3108,6.3108,6.3108,6.3108,0.0,0.0,0.0,0.0,0.0,0.0,0.0,0.0,0.0,0.0,0.0,0.0,6.6729,6.6909,6.7014,6.7014,6.7014,6.7014,6.7014,6.7014,6.7014,0.0,6.7014,6.7014,6.7014,6.7014,6.7014,6.7014,6.7014,6.7014,6.7014,6.7014,6.7014,6.7014,6.7014,6.7014,6.7014,6.7014,6.7014,6.7014,0.0,0.0,0.0,0.0,0.0,0.0,0.0,0.0,0.0,0.0,0.0,0.0,0.0,0.0,0.0,0.0,0.0,0.0,0.0,0.0,0.0,0.0,0.0,0.0,0.0,0.0,0.0,0.0,0.0,0.0,0.0,0.0,0.0,5.1206,0.0,5.1206,5.1206,5.1206,5.1206,5.1206,5.1206,5.1206,5.1206,0.0,0.0,0.0,0.0,0.0,0.0,0.0,0.0,0.0,0.0,0.0,5.5251,5.5581,5.6359,5.7154,5.7483,5.8308,5.9249,5.9893,6.0821,6.1762,6.2435,6.2854,6.3108,6.3108,6.3108,6.3108,6.3108,6.3108,6.3108,6.3108,6.3108,6.3108,6.3108,6.3108,0.0,0.0,0.0,0.0,0.0,0.0,0.0,0.0,0.0,6.5906,6.6954,6.7014,6.7014,6.7014,6.7014,6.7014,6.7014,6.7014,6.7014,6.7014,6.7014,6.7014,6.7014,6.7014,6.7014,6.7014,6.7014,6.7014,6.7014,6.7014,6.7014,6.7014,6.7014,6.7014,6.7014,6.7014,6.7014,6.7014,0.0,0.0,0.0,0.0,0.0,0.0,0.0,0.0,0.0,0.0,0.0,0.0,0.0,0.0,0.0,0.0,0.0,0.0,0.0,0.0,0.0,0.0,0.0,0.0,0.0,0.0,0.0,0.0,0.0,0.0,0.0,0.0,0.0,5.1206,0.0,0.0,5.1206,5.1206,5.1206,5.1206,5.1206,5.1206,0.0,0.0,0.0,0.0,0.0,0.0,0.0,0.0,0.0,0.0,0.0,0.0,5.5341,5.6013,5.6628,5.7244,5.7919,5.8667,5.9578,6.0791,6.1613,6.2285,6.2944,6.3108,6.3108,6.3108,6.3108,6.3108,6.3108,6.3108,6.3108,6.3108,6.3108,6.3108,6.3108,6.3108,6.3108,0.0,0.0,0.0,0.0,0.0,0.0,0.0,0.0,6.6281,6.6954,6.7014,6.7014,6.7014,6.7014,6.7014,6.7014,6.7014,6.7014,6.7014,6.7014,6.7014,6.7014,6.7014,6.7014,6.7014,6.7014,6.7014,6.7014,6.7014,6.7014,6.7014,6.7014,6.7014,6.7014,6.7014,6.7014,6.7014,0.0,0.0,0.0,0.0,0.0,0.0,0.0,0.0,0.0,0.0,0.0,0.0,0.0,0.0,0.0,0.0,0.0,0.0,0.0,0.0,0.0,0.0,5.1206,0.0,0.0,0.0,0.0,0.0,0.0,0.0,0.0,0.0,0.0,5.1206,0.0,0.0,0.0,5.1206,5.1206,5.1206,5.1206,0.0,0.0,0.0,0.0,0.0,0.0,0.0,0.0,0.0,5.4059,0.0,0.0,0.0,5.5341,5.6013,5.6628,5.7244,5.7919,5.8996,6.0146,6.091,6.1613,6.2285,6.2944,6.3108,6.3108,6.3108,6.3108,6.3108,6.3108,6.3108,6.3108,6.3108,6.3108,6.3108,6.3108,6.3108,6.3108,6.3108,0.0,0.0,0.0,0.0,0.0,0.0,6.5637,6.6281,6.6954,6.7014,6.7014,6.7014,6.7014,6.7014,6.7014,6.7014,6.7014,6.7014,6.7014,6.7014,6.7014,6.7014,6.7014,6.7014,6.7014,6.7014,6.7014,6.7014,6.7014,6.7014,6.7014,6.7014,6.7014,6.7014,6.7014,6.7014,0.0,0.0,0.0,0.0,0.0,0.0,0.0,0.0,0.0,0.0,0.0,0.0,0.0,0.0,0.0,0.0,0.0,0.0,0.0,0.0,0.0,5.1206,5.1206,5.1206,5.1206,0.0,0.0,0.0,0.0,0.0,0.0,5.1206,5.1206,0.0,0.0,0.0,0.0,0.0,0.0,0.0,0.0,0.0,0.0,0.0,0.0,0.0,0.0,0.0,0.0,0.0,0.0,0.0,5.5089,0.0,0.0,0.0,5.7154,5.7799,5.8487,5.9624,6.0745,6.103,6.1882,6.2734,6.3033,6.3108,6.3108,6.3108,6.3108,6.3108,6.3108,6.3108,6.3108,6.3108,6.3108,6.3108,6.3108,6.3108,6.3108,6.3108,0.0,0.0,0.0,0.0,0.0,0.0,6.6176,6.67,6.6969,6.7014,6.7014,6.7014,6.7014,6.7014,6.7014,6.7014,6.7014,6.7014,6.7014,6.7014,6.7014,6.7014,6.7014,6.7014,6.7014,6.7014,6.7014,6.7014,6.7014,6.7014,6.7014,6.7014,6.7014,6.7014,6.7014,6.7014,0.0,0.0,0.0,0.0,0.0,0.0,0.0,0.0,0.0,0.0,0.0,0.0,0.0,0.0,0.0,0.0,0.0,0.0,0.0,0.0,0.0,5.1206,5.1206,5.1206,5.1206,0.0,0.0,0.0,0.0,0.0,5.1206,5.1206,5.1206,0.0,5.1206,0.0,0.0,0.0,0.0,0.0,0.0,0.0,0.0,0.0,0.0,0.0,0.0,0.0,0.0,0.0,0.0,0.0,0.0,0.0,0.0,0.0,0.0,5.8457,5.8966,6.0073,6.109,6.109,6.2121,6.3108,6.3108,6.3108,6.3108,6.3108,6.3108,6.3108,6.3108,6.3108,6.3108,6.3108,6.3108,6.3108,6.3108,6.3108,6.3108,6.3108,6.3108,0.0,0.0,0.0,0.0,0.0,6.661,6.7014,6.7014,6.7014,6.7014,6.7014,6.7014,6.7014,6.7014,6.7014,6.7014,6.7014,6.7014,6.7014,6.7014,6.7014,6.7014,6.7014,6.7014,6.7014,6.7014,6.7014,6.7014,6.7014,6.7014,6.7014,6.7014,6.7014,6.7014,6.7014,0.0,0.0,0.0,0.0,0.0,0.0,0.0,0.0,0.0,0.0,0.0,0.0,0.0,0.0,0.0,0.0,0.0,0.0,0.0,0.0,0.0,5.1206,5.1206,0.0,5.1206,0.0,0.0,0.0,0.0,0.0,5.1206,5.1206,5.1206,5.1206,5.1206,5.1206,5.1206,0.0,0.0,0.0,0.0,0.0,0.0,0.0,0.0,0.0,0.0,0.0,0.0,0.0,0.0,0.0,0.0,0.0,0.0,0.0,0.0,0.0,5.9099,6.0073,6.109,6.109,6.2121,6.3108,6.3108,6.3108,6.3108,6.3108,6.3108,6.3108,6.3108,6.3108,6.3108,6.3108,6.3108,6.3108,6.3108,6.3108,6.3108,6.3108,6.3108,6.3333,0.0,0.0,0.0,0.0,6.661,6.7014,6.7014,6.7014,6.7014,6.7014,6.7014,6.7014,6.7014,6.7014,6.7014,6.7014,6.7014,6.7014,6.7014,6.7014,6.7014,6.7014,6.7014,6.7014,6.7014,6.7014,6.7014,6.7014,6.7014,6.7014,6.7014,6.7014,6.7014,6.7014,0.0,0.0,0.0,0.0,0.0,0.0,0.0,0.0,0.0,0.0,0.0,0.0,0.0,0.0,0.0,0.0,0.0,0.0,0.0,0.0,0.0,5.1206,5.1206,5.1206,5.1206,0.0,0.0,0.0,0.0,5.1206,5.1206,5.1206,5.1206,5.1206,5.1206,5.1206,5.1206,5.1206,0.0,0.0,0.0,0.0,0.0,0.0,0.0,0.0,0.0,0.0,0.0,0.0,0.0,0.0,0.0,0.0,0.0,0.0,5.8906,5.9189,5.9608,6.0416,6.121,6.1628,6.2435,6.3108,6.3108,6.3108,6.3108,6.3108,6.3108,6.3108,6.3108,6.3108,6.3108,6.3108,6.3108,6.3108,6.3108,6.3108,6.3108,6.3108,6.3108,6.3512,0.0,0.0,0.0,0.0,0.0,6.7014,6.7014,6.7014,6.7014,6.7014,6.7014,6.7014,6.7014,6.7014,6.7014,6.7014,6.7014,6.7014,6.7014,6.7014,6.7014,6.7014,6.7014,6.7014,6.7014,6.7014,6.7014,6.7014,6.7014,6.7014,6.7014,6.7014,6.7014,6.7014,0.0,0.0,0.0,0.0,0.0,0.0,0.0,0.0,0.0,0.0,0.0,0.0,0.0,0.0,0.0,0.0,0.0,5.1206,5.1206,5.1206,5.1206,5.1206,5.1206,5.1206,5.1206,0.0,0.0,0.0,0.0,0.0,0.0,5.1206,5.1206,5.1206,5.1427,0.0,0.0,0.0,0.0,5.2558,0.0,0.0,5.3563,0.0,0.0,0.0,0.0,0.0,0.0,0.0,0.0,0.0,0.0,0.0,0.0,0.0,0.0,0.0,5.9921,6.0595,6.1269,6.1942,6.2614,6.3108,6.3108,6.3108,6.3108,6.3108,6.3108,6.3108,6.3108,6.3108,6.3108,6.3108,6.3108,6.3108,6.3108,6.3108,6.3108,6.3108,6.3108,6.3602,6.4874,0.0,0.0,0.0,0.0,0.0,6.7014,6.7014,6.7014,6.7014,6.7014,6.7014,6.7014,6.7014,6.7014,6.7014,6.7014,6.7014,6.7014,6.7014,6.7014,6.7014,6.7014,6.7014,6.7014,6.7014,6.7014,6.7014,6.7014,6.7014,6.7014,6.7014,6.7014,6.7014,0.0,0.0,0.0,0.0,0.0,0.0,0.0,0.0,0.0,0.0,0.0,0.0,0.0,0.0,0.0,0.0,5.1206,5.1206,5.1206,5.1206,5.1206,5.1206,0.0,0.0,0.0,0.0,0.0,0.0,0.0,0.0,0.0,0.0,5.1206,0.0,5.1905,5.2217,5.2247,0.0,5.2618,5.3216,0.0,5.3623,5.4239,0.0,0.0,0.0,5.5983,5.6222,0.0,0.0,0.0,0.0,0.0,0.0,0.0,0.0,0.0,0.0,0.0,0.0,0.0,6.1972,6.2614,6.3108,6.3108,6.3108,6.3108,6.3108,6.3108,6.3108,6.3108,6.3108,6.3108,6.3108,6.3108,6.3108,6.3108,6.3108,6.3108,6.3108,6.3108,6.3602,6.4859,0.0,0.0,0.0,6.6984,6.7014,6.7014,6.7014,6.7014,6.7014,6.7014,6.7014,6.7014,6.7014,6.7014,6.7014,6.7014,6.7014,6.7014,6.7014,6.7014,6.7014,6.7014,6.7014,6.7014,6.7014,6.7014,6.7014,6.7014,6.7014,6.7014,6.7014,6.7014,6.7014,0.0,0.0,0.0,0.0,0.0,0.0,0.0,0.0,0.0,0.0,0.0,0.0,0.0,0.0,0.0,0.0,5.1206,5.1206,5.1206,5.1206,5.1206,5.1206,5.1206,5.1206,5.1206,0.0,0.0,0.0,0.0,0.0,0.0,0.0,0.0,0.0,5.2127,5.2755,5.3611,5.3126,0.0,0.0,5.3922,5.4311,0.0,0.0,0.0,0.0,0.0,5.6838,0.0,0.0,5.7829,5.7949,0.0,0.0,0.0,0.0,0.0,0.0,6.0655,0.0,0.0,0.0,0.0,0.0,6.3108,6.3108,6.3108,6.3108,6.3108,6.3108,6.3108,6.3108,6.3108,6.3108,6.3108,6.3108,6.3108,6.3108,6.3108,6.3108,6.3108,6.3422,6.4216,6.471,0.0,0.0,6.6729,6.7014,6.7014,6.7014,6.7014,6.7014,6.7014,6.7014,6.7014,6.7014,6.7014,6.7014,6.7014,6.7014,6.7014,6.7014,6.7014,6.7014,6.7014,6.7014,6.7014,6.7014,6.7014,6.7014,6.7014,6.7014,6.7014,6.7014,6.7014,6.7014,0.0,0.0,0.0,0.0,0.0,0.0,0.0,0.0,0.0,0.0,0.0,0.0,0.0,0.0,0.0,0.0,5.1206,5.1206,5.1206,5.1206,5.1206,5.1206,5.1206,5.1206,5.1206,5.1206,0.0,0.0,0.0,0.0,0.0,0.0,0.0,0.0,0.0,0.0,0.0,0.0,0.0,0.0,5.491,0.0,0.0,5.6329,5.6581,0.0,0.0,0.0,5.7633,5.8278,5.8517,0.0,0.0,0.0,0.0,0.0,0.0,0.0,0.0,0.0,0.0,0.0,0.0,0.0,6.3108,6.3108,6.3108,6.3108,6.3108,6.3108,6.3108,6.3108,6.3108,6.3108,6.3108,6.3108,6.3108,6.3108,6.3108,6.3108,6.3108,6.3333,6.3947,6.462,6.5278,6.5936,6.661,6.7014,6.7014,6.7014,6.7014,6.7014,6.7014,6.7014,6.7014,6.7014,6.7014,6.7014,6.7014,6.7014,6.7014,6.7014,6.7014,6.7014,6.7014,6.7014,6.7014,6.7014,6.7014,6.7014,6.7014,6.7014,6.7014,6.7014,6.7014,6.7014,0.0,0.0,0.0,0.0,0.0,0.0,0.0,0.0,0.0,0.0,0.0,0.0,0.0,0.0,0.0,0.0,5.1206,5.1206,5.1206,5.1206,5.1206,5.1206,5.1206,5.1206,5.1206,5.1206,5.1206,0.0,0.0,0.0,0.0,0.0,0.0,0.0,0.0,0.0,0.0,0.0,0.0,5.5371,5.5953,5.6252,0.0,0.0,5.7214,0.0,5.7979,5.8205,5.8294,5.9009,5.9249,0.0,0.0,0.0,0.0,0.0,6.025,0.0,0.0,0.0,0.0,0.0,0.0,0.0,6.3108,6.3108,6.3108,6.3108,6.3108,6.3108,6.3108,6.3108,6.3108,6.3108,6.3108,6.3108,6.3108,6.3108,6.3108,6.3108,6.3108,6.3303,6.3842,6.45,6.5174,6.5847,6.658,6.7014,6.7014,6.7014,6.7014,6.7014,6.7014,6.7014,6.7014,6.7014,6.7014,6.7014,6.7014,6.7014,6.7014,6.7014,6.7014,6.7014,6.7014,6.7014,6.7014,6.7014,6.7014,6.7014,6.7014,6.7014,6.7014,6.7014,6.7014,6.7014,0.0,0.0,0.0,0.0,0.0,0.0,0.0,0.0,0.0,0.0,0.0,0.0,0.0,0.0,0.0,0.0,0.0,5.1206,0.0,5.1206,5.1206,5.1206,5.1206,5.1206,5.1206,5.1206,5.1206,5.1206,5.1726,5.2067,0.0,0.0,0.0,0.0,0.0,0.0,0.0,0.0,0.0,5.6013,5.6162,0.0,5.7017,5.7649,5.7919,5.7995,5.8667,5.8906,5.8996,0.0,6.0266,6.0701,0.0,0.0,0.0,0.0,0.0,0.0,0.0,0.0,0.0,0.0,0.0,0.0,6.3108,6.3108,6.3108,6.3108,6.3108,6.3108,6.3108,6.3108,6.3108,6.3108,6.3108,6.3108,6.3108,6.3108,6.3108,6.3108,6.3108,6.3168,6.3273,6.3827,6.447,6.5144,6.6311,6.7014,6.7014,6.7014,6.7014,6.7014,6.7014,6.7014,6.7014,6.7014,6.7014,6.7014,6.7014,6.7014,6.7014,6.7014,6.7014,6.7014,6.7014,6.7014,6.7014,6.7014,6.7014,6.7014,6.7014,6.7014,6.7014,6.7014,6.7014,6.7014,0.0,0.0,0.0,0.0,0.0,0.0,0.0,0.0,0.0,0.0,0.0,0.0,0.0,0.0,0.0,0.0,0.0,0.0,0.0,0.0,5.1206,5.1206,5.1206,5.1367,5.1696,5.1696,5.1846,5.2187,5.2516,5.2887,5.3204,0.0,0.0,0.0,0.0,0.0,0.0,0.0,5.6838,5.7154,5.7154,0.0,5.7679,5.8338,5.8816,5.9129,5.9488,5.9817,6.0133,6.0505,6.0821,0.0,0.0,6.109,6.118,0.0,6.1852,6.2181,0.0,0.0,0.0,6.3108,0.0,0.0,0.0,6.3108,6.3108,6.3108,6.3108,6.3108,6.3108,6.3108,6.3108,6.3108,6.3108,6.3108,6.3108,6.3108,6.3108,6.3108,6.3108,6.3108,6.3108,6.3662,6.4425,6.5428,6.6116,6.664,6.6969,6.7014,6.7014,6.7014,6.7014,6.7014,6.7014,6.7014,6.7014,6.7014,6.7014,6.7014,6.7014,6.7014,6.7014,6.7014,6.7014,6.7014,6.7014,6.7014,6.7014,6.7014,6.7014,6.7014,6.7014,6.7014,6.7014,6.7014,0.0,0.0,0.0,0.0,0.0,0.0,0.0,0.0,0.0,0.0,0.0,0.0,0.0,0.0,0.0,0.0,0.0,0.0,0.0,0.0,5.1576,5.1576,5.1576,5.1858,5.2366,5.2396,5.2677,5.3198,5.3336,5.3665,5.4221,5.4461,0.0,0.0,0.0,0.0,0.0,0.0,0.0,5.8115,0.0,5.8487,5.8547,5.9099,5.9697,6.028,6.028,6.0715,6.1299,6.1299,0.0,6.1493,6.1493,6.1493,0.0,0.0,0.0,0.0,0.0,0.0,0.0,0.0,0.0,6.3108,0.0,0.0,0.0,6.3108,6.3108,6.3108,6.3108,6.3108,6.3063,6.2928,6.3018,6.3048,0.0,6.3018,0.0,6.3108,6.3108,6.3108,6.3108,6.3662,6.4455,6.5533,6.5847,6.6251,6.6759,6.6924,6.7014,6.7014,6.7014,6.7014,6.7014,6.7014,6.7014,6.7014,6.7014,6.7014,6.7014,6.7014,6.7014,6.7014,6.7014,6.7014,6.7014,6.7014,6.7014,6.7014,6.7014,6.7014,6.7014,6.7014,6.7014,6.7014,5.1206,5.1206,0.0,0.0,0.0,0.0,0.0,0.0,0.0,0.0,0.0,0.0,0.0,0.0,0.0,0.0,0.0,0.0,5.2097,0.0,0.0,5.2977,5.2977,5.3007,5.3067,5.3109,5.3126,5.3198,5.3803,5.4132,5.4239,5.5431,5.6013,0.0,5.6718,0.0,0.0,0.0,5.8025,0.0,5.9398,5.9861,0.0,5.9951,6.0386,6.1,6.1,6.1433,6.2002,0.0,6.2361,6.2854,0.0,6.2854,0.0,0.0,0.0,0.0,0.0,0.0,0.0,0.0,6.3108,0.0,0.0,0.0,6.3108,6.3108,0.0,6.3108,6.3108,0.0,0.0,0.0,0.0,0.0,6.2315,6.2734,6.3108,6.3108,6.3108,6.3108,6.3108,6.3662,6.4066,6.4216,6.5323,6.6026,6.6116,6.667,6.7014,6.7014,6.7014,6.7014,6.7014,6.7014,6.7014,6.7014,6.7014,6.7014,6.7014,6.7014,6.7014,6.7014,6.7014,6.7014,6.7014,6.7014,6.7014,6.7014,6.7014,6.7014,6.7014,6.7014,6.7014,6.7014,0.0,0.0,0.0,0.0,0.0,0.0,0.0,0.0,0.0,0.0,0.0,0.0,0.0,0.0,0.0,0.0,0.0,0.0,0.0,0.0,0.0,0.0,5.3198,0.0,5.3773,5.3773,5.3964,5.4354,5.5042,5.5371,5.5371,5.6299,5.6718,5.6748,5.738,0.0,5.7739,0.0,5.9249,0.0,0.0,0.0,0.0,6.0835,6.1104,6.1732,6.2121,6.2435,6.2674,0.0,6.2868,0.0,0.0,0.0,0.0,0.0,0.0,0.0,0.0,0.0,0.0,0.0,0.0,0.0,0.0,0.0,6.3108,0.0,0.0,0.0,0.0,0.0,0.0,0.0,6.2928,0.0,0.0,0.0,6.3108,6.3108,0.0,0.0,6.3108,6.3333,6.3632,6.3977,6.4889,6.5577,6.5966,6.664,6.7014,6.7014,6.7014,6.7014,6.7014,6.7014,6.7014,6.7014,6.7014,6.7014,6.7014,6.7014,6.7014,6.7014,6.7014,6.7014,6.7014,6.7014,6.7014,6.7014,6.7014,6.7014,6.7014,6.7014,6.7014,6.7014,0.0,0.0,0.0,0.0,0.0,0.0,0.0,0.0,0.0,0.0,0.0,0.0,5.2456,5.2917,0.0,0.0,0.0,5.3486,0.0,0.0,5.3827,0.0,0.0,0.0,0.0,5.4987,5.5239,5.573,5.6209,5.6462,5.6462,5.7064,5.7363,5.7423,5.8278,5.8637,5.8726,0.0,6.0356,6.0416,6.1104,6.1792,6.2301,6.1822,6.1942,6.2435,6.2928,6.3108,6.3108,6.3108,6.3108,0.0,6.3108,0.0,0.0,0.0,0.0,0.0,6.3108,0.0,0.0,0.0,0.0,0.0,0.0,0.0,0.0,0.0,0.0,0.0,0.0,0.0,0.0,0.0,0.0,6.3048,0.0,6.2974,0.0,0.0,0.0,0.0,0.0,6.3108,6.3273,6.3722,6.4351,6.5039,6.5697,6.637,6.6819,6.6999,6.7014,6.7014,6.7014,6.7014,6.7014,6.7014,6.7014,6.7014,6.7014,6.7014,6.7014,6.7014,6.7014,6.7014,6.7014,6.7014,6.7014,6.7014,6.7014,6.7014,6.7014,6.7014,6.7014,6.7014,0.0,5.1206,0.0,0.0,0.0,0.0,0.0,0.0,0.0,0.0,0.0,0.0,0.0,0.0,0.0,0.0,0.0,5.4179,5.4179,0.0,5.5431,0.0,0.0,0.0,0.0,0.0,5.7017,5.7034,5.7064,5.7077,5.7107,5.7769,5.8055,5.8115,5.9458,6.004,6.007,6.0761,6.106,6.112,6.1792,6.2465,6.3078,0.0,6.3048,6.3063,6.3108,0.0,0.0,6.3108,6.3108,0.0,0.0,0.0,0.0,0.0,0.0,0.0,0.0,0.0,0.0,0.0,0.0,0.0,0.0,0.0,6.3108,0.0,0.0,0.0,0.0,0.0,0.0,0.0,0.0,0.0,0.0,0.0,0.0,0.0,0.0,0.0,0.0,6.3108,6.3108,6.3138,6.3692,6.4321,6.4994,6.5667,6.634,6.6984,6.7014,6.7014,6.7014,6.7014,6.7014,6.7014,6.7014,6.7014,6.7014,6.7014,6.7014,6.7014,6.7014,6.7014,6.7014,6.7014,6.7014,6.7014,6.7014,6.7014,6.7014,6.7014,6.7014,6.7014,0.0,0.0,0.0,0.0,0.0,0.0,0.0,5.2857,0.0,0.0,0.0,0.0,0.0,0.0,5.5354,0.0,0.0,5.6107,5.6107,5.6316,0.0,0.0,0.0,5.6898,0.0,0.0,0.0,0.0,5.753,5.7769,5.7799,5.889,5.9428,5.9458,6.0356,6.0761,0.0,0.0,0.0,0.0,0.0,6.2884,6.3108,0.0,0.0,6.3108,6.3108,6.3108,0.0,6.3108,6.3108,6.3108,6.3108,6.3108,6.3108,6.3108,6.3108,0.0,0.0,0.0,6.3108,6.3108,0.0,0.0,0.0,0.0,0.0,0.0,0.0,0.0,0.0,0.0,0.0,0.0,0.0,0.0,0.0,0.0,0.0,0.0,0.0,0.0,0.0,0.0,6.3108,6.3108,6.3662,6.4096,6.4336,6.5398,6.6086,6.634,6.6775,6.7014,6.7014,6.7014,6.7014,6.7014,6.7014,6.7014,6.7014,6.7014,6.7014,6.7014,6.7014,6.7014,6.7014,6.7014,6.7014,6.7014,6.7014,6.7014,6.7014,6.7014,6.7014,6.7014,5.3198,0.0,0.0,0.0,0.0,0.0,0.0,0.0,0.0,0.0,5.4832,0.0,5.582,0.0,5.6671,0.0,5.7094,5.7094,5.7094,5.7094,0.0,5.7453,5.7453,0.0,0.0,0.0,0.0,0.0,0.0,5.8816,5.8846,5.9937,6.0446,6.0475,6.1164,6.1463,6.1479,6.2181,6.2465,0.0,0.0,6.3108,0.0,0.0,6.3108,6.3108,0.0,6.3108,6.3108,6.3108,6.3108,6.3108,6.3108,6.3108,6.3108,6.3108,6.3108,6.3108,6.3108,6.3108,0.0,6.3108,6.3108,0.0,6.3108,0.0,0.0,0.0,0.0,0.0,0.0,0.0,0.0,0.0,0.0,0.0,0.0,6.3108,0.0,0.0,0.0,0.0,0.0,6.3108,6.3108,6.3108,6.3452,6.3767,0.0,0.0,6.5503,6.5966,6.643,6.6759,6.7014,6.7014,6.7014,6.7014,6.7014,6.7014,6.7014,6.7014,6.7014,6.7014,6.7014,6.7014,6.7014,6.7014,6.7014,6.7014,6.7014,6.7014,6.7014,6.7014,6.7014,6.7014,0.0,0.0,0.0,0.0,5.3348,0.0,0.0,0.0,5.5521,0.0,5.6748,5.7094,5.7167,5.7167,5.7184,5.7244,5.7257,0.0,5.7304,5.7304,0.0,0.0,5.8234,5.8547,5.9189,0.0,0.0,0.0,0.0,6.016,6.016,6.0835,6.115,6.118,6.1852,6.2151,6.2181,6.2824,6.3108,6.3108,6.3108,6.3108,6.3108,6.3108,6.3108,6.3108,6.3108,6.3108,6.3108,6.3108,6.3108,6.3108,6.3108,6.3108,6.3108,6.3108,6.3108,6.3108,6.3108,6.3108,6.3108,6.3108,0.0,0.0,0.0,0.0,6.3108,0.0,0.0,0.0,0.0,0.0,0.0,0.0,0.0,0.0,0.0,0.0,0.0,0.0,0.0,0.0,0.0,6.3108,6.3108,6.3108,6.3108,6.3333,0.0,0.0,6.4605,6.5906,6.5966,6.6311,6.6984,6.7014,6.7014,6.7014,6.7014,6.7014,6.7014,6.7014,6.7014,6.7014,6.7014,6.7014,6.7014,6.7014,6.7014,6.7014,6.7014,6.7014,6.7014,6.7014,6.7014,6.7014,5.6,5.609,5.609,0.0,5.5311,5.5072,0.0,0.0,0.0,0.0,5.7017,5.7304,5.7799,5.7859,5.8248,5.9232,5.9322,0.0,0.0,0.0,0.0,6.0312,6.0342,6.0402,6.0581,6.0581,0.0,6.0581,0.0,6.0821,6.0864,6.1523,6.1852,6.1882,6.2555,6.2824,6.2854,6.3048,6.3108,6.3108,6.3108,6.3108,0.0,0.0,6.3108,6.3108,6.3108,6.3108,6.3108,6.3108,6.3108,6.3108,6.3108,6.3108,6.3108,6.3108,6.3108,6.3108,6.3108,6.3108,6.3108,6.3108,6.3108,6.3108,0.0,0.0,0.0,0.0,0.0,0.0,0.0,0.0,0.0,0.0,0.0,0.0,0.0,0.0,0.0,6.3108,0.0,0.0,6.3108,6.3108,6.3108,6.3108,6.3108,6.3168,0.0,0.0,0.0,6.5233,6.5727,6.6311,6.6984,6.7014,6.7014,6.7014,6.7014,6.7014,6.7014,6.7014,6.7014,6.7014,6.7014,6.7014,6.7014,6.7014,6.7014,6.7014,6.7014,6.7014,6.7014,6.7014,6.7014,6.7014,5.7047,0.0,0.0,5.7483,0.0,0.0,5.7077,0.0,0.0,5.7932,5.8231,0.0,5.9355,5.9415,5.9714,6.0475,6.0535,0.0,0.0,0.0,0.0,6.109,6.109,6.109,6.109,6.109,0.0,6.109,0.0,0.0,6.1553,6.2211,6.2555,6.2555,6.2914,6.3108,6.3108,6.3108,6.3108,6.3108,6.3108,0.0,0.0,6.3108,6.3108,6.3108,6.3108,6.3108,6.3108,6.3108,6.3108,6.3108,6.3108,6.3108,6.3108,6.3108,6.3108,6.3108,6.3108,6.3108,6.3108,6.3108,6.3108,6.3108,6.3108,6.3108,6.3108,0.0,0.0,0.0,0.0,0.0,0.0,0.0,0.0,0.0,0.0,0.0,0.0,0.0,6.3108,0.0,6.3108,6.3108,6.3108,6.3108,6.3108,0.0,0.0,0.0,0.0,6.453,6.5218,6.5877,6.655,6.6849,6.7014,6.7014,6.7014,6.7014,6.7014,6.7014,6.7014,6.7014,6.7014,6.7014,6.7014,6.7014,6.7014,6.7014,6.7014,6.7014,6.7014,6.7014,6.7014,6.7014,0.0,0.0,0.0,0.0,0.0,0.0,0.0,5.8128,0.0,5.9308,0.0,6.0446,6.103,6.109,6.115,6.121,0.0,6.1269,6.1373,6.1359,6.1359,6.1359,6.1359,6.1359,6.1359,6.1359,0.0,0.0,0.0,0.0,6.2255,6.2824,6.3108,6.3108,6.3108,6.3108,6.3108,6.3108,6.3108,6.3108,6.3108,6.3108,6.3108,6.3108,6.3168,6.3227,6.3227,6.3168,6.3108,6.3108,6.3108,6.3108,6.3108,6.3108,6.3108,6.3108,6.3108,6.3108,6.3108,6.3108,6.3108,6.3108,6.3108,6.3108,6.3108,6.3108,6.3108,6.3108,6.3108,6.3108,0.0,0.0,0.0,0.0,0.0,0.0,0.0,0.0,0.0,0.0,0.0,0.0,6.3108,6.3108,6.3108,6.3108,0.0,0.0,0.0,0.0,0.0,6.3977,6.465,6.5323,6.5996,0.0,6.7014,6.7014,6.7014,6.7014,6.7014,6.7014,6.7014,6.7014,6.7014,6.7014,6.7014,6.7014,6.7014,6.7014,6.7014,6.7014,6.7014,6.7014,6.7014,6.7014,0.0,0.0,0.0,0.0,0.0,5.8998,6.0208,6.0492,6.0611,6.0731,6.0851,6.097,6.109,6.109,6.1329,6.1882,6.1912,0.0,0.0,0.0,0.0,6.2734,6.2734,6.2734,6.2734,6.2734,6.2734,0.0,0.0,0.0,6.2928,6.3048,6.3108,6.3108,6.3108,6.3108,6.3108,6.3108,0.0,6.3108,6.3108,6.3108,6.3108,6.3108,6.3393,6.3827,6.3827,6.3512,6.3108,6.3108,6.3108,6.3108,6.3108,6.3108,6.3108,6.3108,6.3108,6.3108,6.3108,6.3108,6.3108,6.3108,6.3108,6.3108,6.3108,6.3108,6.3108,6.3108,6.3108,6.3108,6.3108,0.0,0.0,0.0,0.0,0.0,0.0,0.0,0.0,0.0,0.0,0.0,0.0,6.3108,6.3108,0.0,0.0,0.0,0.0,0.0,0.0,0.0,6.465,0.0,0.0,0.0,6.7014,6.7014,6.7014,6.7014,6.7014,6.7014,6.7014,6.7014,6.7014,6.7014,6.7014,6.7014,6.7014,6.7014,6.7014,6.7014,6.7014,6.7014,6.7014,6.7014,0.0,0.0,0.0,0.0,0.0,0.0,0.0,5.9842,0.0,6.143,6.1613,6.1762,6.2091,6.2121,6.2285,6.2584,6.2614,6.2764,6.3078,6.3108,6.3108,6.3108,6.3108,0.0,6.3108,0.0,6.3108,6.3108,0.0,0.0,0.0,6.3108,6.3108,6.3108,6.3108,6.3108,6.3108,0.0,0.0,6.3572,6.3572,6.3782,6.4096,6.4096,6.4276,6.453,6.453,6.4321,6.4096,6.4096,6.4096,6.4096,6.4096,6.4096,6.4096,6.4096,6.4096,6.4096,6.4096,6.3827,6.3572,6.3572,6.3333,6.3108,6.3108,6.3108,6.3108,6.3108,6.3108,6.3108,6.3108,6.3108,0.0,0.0,0.0,0.0,0.0,0.0,0.0,0.0,0.0,0.0,0.0,0.0,0.0,0.0,0.0,0.0,0.0,0.0,0.0,0.0,0.0,0.0,0.0,0.0,0.0,6.7014,6.7014,6.7014,6.7014,6.7014,6.7014,6.7014,6.7014,6.7014,6.7014,6.7014,6.7014,6.7014,6.7014,6.7014,6.7014,6.7014,6.7014,6.7014,0.0,6.0865,0.0,0.0,5.8517,0.0,5.913,5.819,5.847,6.1379,6.1754,6.1976,6.2481,6.2875,6.3108,6.3108,6.3108,6.3108,6.3108,6.3108,6.3108,6.3108,6.3108,6.3108,6.3108,6.3108,6.3108,0.0,0.0,0.0,0.0,0.0,6.3108,6.3108,6.3108,0.0,0.0,0.0,6.3662,6.4216,6.4216,6.453,6.4994,6.4994,6.5084,6.5203,6.5203,6.5293,6.5428,6.5428,6.5233,6.4994,6.4994,6.4994,6.4994,6.4994,6.4994,6.4994,6.4994,6.462,6.4216,6.4216,6.3871,6.3512,6.3512,6.3393,6.3273,6.3273,6.3183,6.3108,6.3108,6.3108,0.0,0.0,0.0,0.0,0.0,0.0,0.0,0.0,0.0,0.0,0.0,0.0,0.0,0.0,0.0,0.0,6.3108,0.0,0.0,0.0,0.0,6.4994,6.4994,0.0,6.7014,0.0,6.7014,6.7014,6.7014,6.7014,6.7014,6.7014,6.7014,6.7014,6.7014,6.7014,6.7014,6.7014,6.7014,6.7014,6.7014,6.7014,6.7014,6.7014,0.0,0.0,0.0,0.0,0.0,0.0,5.7894,5.672,5.6849,6.0212,6.0663,6.0663,6.0721,6.216,6.3108,6.3108,6.3108,6.3108,6.3108,6.3108,6.3108,6.3108,6.3108,6.3108,6.3108,6.3108,6.3108,0.0,0.0,0.0,0.0,0.0,0.0,0.0,0.0,0.0,0.0,6.3917,6.4291,6.4904,6.4904,6.4934,6.4994,6.4994,6.5398,6.5906,6.5906,6.6311,6.6819,6.6819,6.6011,6.4994,6.4994,6.4994,6.4994,6.4994,6.4994,6.4994,6.4994,6.4964,6.4904,6.4904,6.4845,6.4815,6.4815,6.4351,6.3917,6.3917,6.3482,6.3108,6.3108,6.3108,6.3108,0.0,0.0,0.0,0.0,0.0,0.0,0.0,0.0,0.0,0.0,6.3108,0.0,0.0,6.3108,0.0,0.0,0.0,0.0,6.3108,0.0,6.4994,6.4994,6.634,6.7014,6.7014,6.7014,6.7014,6.7014,6.7014,6.7014,6.7014,6.7014,6.7014,6.7014,6.7014,6.7014,6.7014,6.7014,6.7014,6.7014,6.7014,6.7014,6.7014,0.0,0.0,0.0,0.0,0.0,0.0,0.0,5.4992,5.4758,5.7122,5.8355,5.9367,6.0389,6.111,6.1954,6.3021,6.3108,6.3108,6.3108,6.3108,6.3108,6.3108,6.3108,6.3108,6.3108,6.3108,6.3108,0.0,0.0,0.0,0.0,0.0,0.0,0.0,0.0,6.4381,6.459,6.459,6.4979,6.5607,6.5607,6.5847,6.6191,6.6191,6.637,6.661,6.661,6.6759,6.7014,6.7014,6.664,6.6191,6.6191,6.6191,6.6191,6.6191,6.6191,6.6191,6.6191,6.5906,6.5607,6.5607,6.5293,6.4994,6.4994,6.48,6.459,6.459,6.4096,6.3632,6.3632,6.3333,6.3108,0.0,0.0,0.0,0.0,0.0,0.0,0.0,0.0,0.0,0.0,0.0,0.0,0.0,0.0,0.0,0.0,0.0,0.0,6.3632,0.0,6.5174,6.5607,6.652,6.7014,6.7014,6.7014,6.7014,6.7014,6.7014,6.7014,6.7014,6.7014,6.7014,6.7014,6.7014,6.7014,6.7014,6.7014,6.7014,6.7014,6.7014,6.7014,6.7014,5.7353,0.0,5.6693,0.0,5.4658,5.4658,5.4658,5.3785,5.3553,5.4767,5.614,5.7719,5.9562,6.0659,6.1748,6.2977,6.3108,6.3108,6.3108,6.3108,6.3197,6.3363,6.3363,0.0,6.3647,6.3662,6.3662,6.3662,6.3662,0.0,0.0,0.0,0.0,0.0,6.48,6.5114,6.5293,6.5293,6.5667,6.6295,6.6295,6.658,6.7014,6.7014,6.7014,6.7014,6.7014,6.7014,6.7014,6.7014,6.7014,6.7014,6.7014,6.7014,6.7014,6.7014,6.7014,6.7014,6.7014,6.664,6.6295,6.6295,6.5936,6.5577,6.5577,6.5458,6.5233,6.5024,6.462,6.4306,6.4306,6.3767,6.3363,6.3363,0.0,0.0,0.0,0.0,0.0,0.0,0.0,6.3108,6.3108,6.3108,0.0,0.0,0.0,0.0,0.0,0.0,0.0,0.0,0.0,0.0,0.0,6.667,6.7014,6.7014,6.7014,6.7014,6.7014,6.7014,6.7014,6.7014,6.7014,6.7014,6.7014,6.7014,6.7014,6.7014,6.7014,6.7014,6.7014,6.7014,6.7014,6.7014,5.5781,5.5436,5.4899,5.323,5.2929,5.2929,5.2929,5.3356,5.3683,5.3718,5.4255,5.5512,5.7793,6.1063,6.3079,6.3108,6.3108,6.3108,6.3108,6.3108,6.3363,0.0,0.0,6.4291,6.4964,6.4964,6.4964,6.4964,0.0,0.0,6.4964,0.0,6.4964,6.4994,6.4994,6.5368,6.5996,6.5996,6.637,6.6984,6.6984,6.6984,6.7014,6.7014,6.7014,6.7014,6.7014,6.7014,6.7014,6.7014,6.7014,6.7014,6.7014,6.7014,6.7014,6.7014,6.7014,6.7014,6.7014,6.6999,6.6984,6.6984,6.6969,6.6984,6.6984,6.646,6.5787,6.5144,6.4994,6.4994,6.4994,6.4441,6.3977,6.3977,0.0,0.0,0.0,0.0,0.0,0.0,6.3108,6.3108,6.3108,6.3108,0.0,0.0,0.0,0.0,0.0,0.0,0.0,6.4006,6.5278,0.0,6.5996,6.667,6.7014,6.7014,6.7014,6.7014,6.7014,6.7014,6.7014,6.7014,6.7014,6.7014,6.7014,6.7014,6.7014,6.7014,6.7014,6.7014,6.7014,6.7014,6.7014,6.7014,5.381,5.3989,5.408,5.3544,5.3783,5.4077,5.4077,5.4202,5.4303,5.4303,5.5491,5.6588,5.7314,5.9446,6.1323,0.0,6.3668,6.4411,0.0,6.4411,6.447,6.4665,6.468,6.48,6.4994,6.4994,6.4994,6.4994,0.0,0.0,0.0,6.5458,6.5697,6.5697,6.6161,6.649,6.667,6.667,6.6789,6.7014,6.7014,6.7014,6.7014,6.7014,6.7014,6.7014,6.7014,6.7014,6.7014,6.7014,6.7014,6.7014,6.7014,6.7014,6.7014,6.7014,6.7014,6.7014,6.7014,6.7014,6.7014,6.7014,6.7014,6.7014,6.7014,6.6819,6.661,6.64,6.5996,6.5697,6.5697,6.5129,6.468,6.468,6.453,0.0,0.0,0.0,0.0,0.0,6.3108,6.3108,0.0,6.3108,0.0,0.0,0.0,0.0,0.0,0.0,0.0,0.0,6.5772,0.0,6.667,6.6894,6.7014,6.7014,6.7014,6.7014,6.7014,6.7014,6.7014,6.7014,6.7014,6.7014,6.7014,6.7014,6.7014,6.7014,6.7014,6.7014,6.7014,6.7014,6.7014,6.7014,5.3532,5.3808,5.4052,5.4052,5.4353,5.4597,5.4597,5.4773,5.4906,5.4906,5.5983,5.6771,5.6771,5.8386,0.0,6.2125,6.3958,6.4994,6.4994,6.4994,6.5114,6.5353,6.5398,6.5488,6.5757,0.0,0.0,6.5757,6.5757,6.5757,6.5757,6.6191,6.637,6.64,6.6819,6.7014,6.7014,6.7014,6.7014,6.7014,6.7014,6.7014,6.7014,6.7014,6.7014,6.7014,6.7014,6.7014,6.7014,6.7014,6.7014,6.7014,6.7014,6.7014,6.7014,6.7014,6.7014,6.7014,6.7014,6.7014,6.7014,6.7014,6.7014,6.7014,6.7014,6.7014,6.7014,6.7014,6.667,6.637,6.637,6.5817,6.5398,6.5398,6.5144,6.4845,6.4441,0.0,0.0,0.0,0.0,0.0,0.0,6.3797,0.0,0.0,0.0,0.0,0.0,0.0,0.0,6.5966,6.6236,0.0,6.7014,6.7014,6.7014,6.7014,6.7014,6.7014,6.7014,6.7014,6.7014,6.7014,6.7014,6.7014,6.7014,6.7014,6.7014,6.7014,6.7014,6.7014,6.7014,6.7014,6.7014,6.7014,5.4597,5.4622,5.4672,0.0,5.4697,0.0,5.4723,5.5132,5.5458,5.5458,5.5892,5.62,5.62,5.7806,5.9737,6.187,0.0,0.0,0.0,6.5144,6.5428,6.6026,6.6056,6.637,6.6984,6.7014,6.7014,6.7014,6.7014,6.7014,6.7014,6.7014,6.7014,6.7014,6.7014,6.7014,6.7014,6.7014,6.7014,6.7014,6.7014,6.7014,6.7014,6.7014,6.7014,6.7014,6.7014,6.7014,6.7014,6.7014,6.7014,6.7014,6.7014,6.7014,6.7014,6.7014,6.7014,6.7014,6.7014,6.7014,6.7014,6.7014,6.7014,6.7014,6.7014,6.7014,6.7014,6.7014,6.7014,6.7014,6.7014,6.649,6.6056,6.6056,6.5547,6.5114,6.5084,0.0,0.0,0.0,0.0,0.0,0.0,6.4994,6.5024,0.0,0.0,0.0,0.0,0.0,6.6056,6.6056,6.667,6.7014,6.7014,6.7014,6.7014,6.7014,6.7014,6.7014,6.7014,6.7014,6.7014,6.7014,6.7014,6.7014,6.7014,6.7014,6.7014,6.7014,6.7014,6.7014,6.7014,6.7014,6.7014,6.7014,0.0,0.0,5.5207,5.5207,5.5541,5.5817,5.5817,5.5942,5.6018,5.6018,5.61,5.62,5.62,5.7806,5.9129,5.9654,6.2615,6.5044,6.6444,6.652,6.661,6.6759,6.6759,6.6819,6.7014,6.7014,6.7014,6.7014,6.7014,6.7014,6.7014,6.7014,6.7014,6.7014,6.7014,6.7014,6.7014,6.7014,6.7014,6.7014,6.7014,6.7014,6.7014,6.7014,6.7014,6.7014,6.7014,6.7014,6.7014,6.7014,6.7014,6.7014,6.7014,6.7014,6.7014,6.7014,6.7014,6.7014,6.7014,6.7014,6.7014,6.7014,6.7014,6.7014,6.7014,6.7014,6.7014,6.7014,6.7014,6.7014,6.7014,6.6879,6.6759,6.6759,6.664,6.634,6.5847,6.5757,0.0,0.0,6.4994,6.4994,6.4994,6.4994,6.5203,0.0,0.0,0.0,0.0,6.6759,6.6759,6.6759,6.6924,6.7014,6.7014,6.7014,6.7014,6.7014,6.7014,6.7014,6.7014,6.7014,6.7014,6.7014,6.7014,6.7014,6.7014,6.7014,6.7014,6.7014,6.7014,6.7014,6.7014,6.7014,6.7014,6.7014,5.5333,5.5566,5.5767,5.5767,5.6018,5.62,5.62,5.62,5.62,5.62,5.62,5.62,5.62,5.7068,5.8002,5.8815,6.1444,6.3476,6.4487,6.5311,6.5764,6.5764,6.6554,6.7014,6.7014,6.7014,6.7014,6.7014,6.7014,6.7014,6.7014,6.7014,6.7014,6.7014,6.7014,6.7164,6.7463,6.7463,6.7643,6.7897,6.7897,6.7897,6.7897,6.7897,6.7897,6.7897,6.7897,6.7897,6.7897,6.7897,6.7703,6.7463,6.7463,6.7254,6.7014,6.7014,6.7014,6.7014,6.7014,6.7014,6.7014,6.7014,6.7014,6.7014,6.7014,6.7014,6.7014,6.7014,6.7014,6.7014,6.7014,6.7014,6.7014,6.7014,6.7014,6.6879,6.652,6.646,0.0,6.5966,6.5906,6.5906,6.5906,6.5906,6.6071,6.643,6.646,0.0,6.6984,6.7014,6.7014,6.7014,6.7014,6.7014,6.7014,6.7014,6.7014,6.7014,6.7014,6.7014,6.7014,6.7014,6.7014,6.7014,6.7014,6.7014,6.7014,6.7014,6.7014,6.7014,6.7014,6.7014,6.7014,6.7014,6.7014,6.7014,5.62,5.62,5.62,5.62,5.62,5.62,5.62,5.62,5.62,5.62,5.6276,5.6326,5.6326,5.6401,5.7077,5.8609,6.0154,6.1315,6.1975,6.3444,6.4339,6.4409,6.588,6.6639,6.6433,6.6728,6.7021,6.7298,6.7298,6.7298,6.7298,6.7298,6.7298,6.7298,6.7298,6.7613,6.8151,6.8151,6.8481,6.9004,6.9004,6.9004,6.9004,6.9004,6.9004,6.9004,6.9004,6.9004,6.9004,6.9004,6.863,6.8137,6.8047,6.7613,6.7134,6.7044,6.7014,6.7014,6.7014,6.7014,6.7014,6.7014,6.7014,6.7014,6.7014,6.7014,6.7014,6.7014,6.7014,6.7014,6.7014,6.7014,6.7014,6.7014,6.7014,6.7014,6.7014,0.0,6.7014,6.7014,6.7014,6.7014,6.7014,6.7014,6.7014,6.7014,6.7014,6.7014,6.7014,6.7014,6.7014,6.7014,6.7014,6.7014,6.7014,6.7014,6.7014,6.7014,6.7014,6.7014,6.7014,6.7014,6.7014,6.7014,6.7014,6.7014,6.7014,6.7014,6.7014,6.7014,6.7014,6.7014,6.7014,6.7014,6.7014,6.7014,5.62,5.62,5.62,5.62,5.62,5.62,5.62,5.62,5.62,5.62,5.6602,5.6878,5.6878,5.733,5.7737,5.8029,5.8301,6.0021,6.3643,6.4136,6.4495,6.4961,6.5234,6.4908,6.3906,6.5419,6.7045,6.8704,6.8704,6.8704,6.8704,6.8704,6.8704,6.8704,6.8704,6.8734,6.8824,6.8824,6.8884,6.9004,6.9004,6.9004,6.9004,6.9004,6.9004,6.9004,6.9004,6.9004,6.9004,6.9004,6.8944,6.875,6.8197,6.7928,6.7732,6.7164,6.7014,6.7014,6.7014,6.7014,6.7014,6.7014,6.7014,6.7014,6.7014,6.7014,6.7014,6.7014,6.7014,6.7014,6.7014,6.7014,6.7014,6.7014,6.7014,6.7014,6.7014,0.0,6.7014,6.7014,6.7014,6.7014,6.7014,6.7014,6.7014,6.7014,6.7014,6.7014,6.7014,6.7014,6.7014,6.7014,6.7014,6.7014,6.7014,6.7014,6.7014,6.7014,6.7014,6.7014,6.7014,6.7014,6.7014,6.7014,6.7014,6.7014,6.7014,6.7014,6.7014,6.7014,6.7014,6.7014,6.7014,6.7014,6.7014,6.7014,5.62,5.62,5.62,5.62,5.62,5.6301,5.6602,5.6627,5.6753,5.7072,5.733,5.7481,5.7481,5.7725,5.7901,5.7901,5.7901,5.9149,6.213,6.3252,6.3919,6.4167,6.6123,6.6447,6.4821,6.5655,6.6528,6.7448,6.7448,6.7961,6.9004,6.9004,6.9004,6.9004,6.9004,6.9183,6.9558,6.9558,6.9722,7.0021,7.0021,7.0021,7.0021,7.0021,7.0021,7.0021,7.0021,7.0021,7.0021,7.0021,6.9812,6.9498,6.9169,6.8586,6.7928,6.7628,6.7284,6.7014,6.7014,6.7014,6.7014,6.7014,6.7014,6.7014,6.7014,6.7014,6.7014,6.7014,6.7014,6.7014,6.7014,6.7014,6.7014,6.7014,6.7014,0.0,0.0,6.7014,6.7014,6.7014,6.7014,6.7014,6.7014,6.7014,6.7014,6.7014,6.7014,6.7014,6.7014,6.7014,6.7014,6.7014,6.7014,6.7014,6.7014,6.7014,6.7014,6.7014,6.7014,6.7014,6.7014,6.7014,6.7014,6.7014,6.7014,6.7014,6.7014,6.7014,6.7014,6.7014,6.7014,6.7014,6.7014,6.7014,6.7014,6.7014,5.6351,5.6376,5.6426,5.6552,5.6595,5.6728,5.7154,5.7204,5.738,5.7851,5.8001,5.8102,5.8102,5.8202,5.8278,5.8278,5.8278,5.8868,6.0234,6.2113,6.3096,6.2959,6.5391,6.6297,6.5244,6.568,6.6117,6.6564,6.6996,6.7985,6.9453,6.9453,6.9453,6.9453,6.9453,6.9722,7.0217,7.0217,7.0486,7.0889,7.0889,7.0889,7.0889,7.0889,7.0889,7.0889,7.0889,7.0889,7.0889,7.0889,7.059,7.0187,7.0037,6.9169,6.8181,6.8047,6.7523,6.7014,6.7014,6.7014,6.7014,6.7014,6.7014,6.7014,6.7014,6.7014,6.7014,6.7014,6.7014,6.7014,6.7014,6.7014,6.7014,6.7014,0.0,0.0,0.0,6.7014,6.7014,6.7014,6.7014,6.7014,6.7014,6.7014,6.7014,6.7014,6.7014,6.7014,6.7014,6.7014,6.7014,6.7014,6.7014,6.7014,6.7014,6.7014,6.7014,6.7014,6.7014,6.7014,6.7014,6.7014,6.7014,6.7014,6.7014,6.7014,6.7014,6.7014,6.7014,6.7014,6.7014,6.7014,6.7014,6.7014,6.7014,6.7014,5.6835,5.6935,5.7129,5.7675,5.7775,5.7801,5.7826,5.7826,5.7851,5.7901,5.8334,5.8635,5.8635,5.9062,5.9382,5.9382,5.9382,5.946,5.9569,6.1412,6.2183,6.1562,6.0676,6.0979,6.2642,6.4362,6.616,6.7939,6.9683,7.061,7.0769,7.0769,7.0769,7.0769,7.0769,7.0799,7.0829,7.0829,7.0859,7.0889,7.0889,7.0889,7.0889,7.0889,7.0889,7.0889,7.0889,7.0889,7.0889,7.0889,7.0859,7.0739,7.0187,6.9498,6.8794,6.8197,6.7523,6.7014,6.7014,6.7014,6.7014,6.7014,6.7014,6.7014,6.7014,6.7014,6.7014,6.7014,6.7014,6.7014,6.7014,6.7014,6.7014,6.7014,0.0,0.0,6.7014,6.7014,6.7014,6.7014,6.7014,6.7014,6.7014,6.7014,6.7014,6.7014,6.7014,6.7014,6.7014,6.7014,6.7014,6.7014,6.7014,6.7014,6.7014,6.7014,6.7014,6.7014,6.7014,6.7014,6.7014,6.7014,6.7014,6.7014,6.7014,6.7014,6.7014,6.7014,6.7014,6.7014,6.7014,6.7014,6.7014,6.7014,6.7014,6.7014,5.7506,5.7556,5.7631,5.7851,5.7901,5.8001,5.8334,5.8384,5.8529,5.8855,5.9081,5.9207,5.9207,5.9382,5.9483,5.9483,5.9483,5.9483,5.9483,6.0189,6.1543,6.3677,6.3286,6.2841,6.2413,6.4228,6.5569,6.6318,6.8219,6.9764,7.0889,7.0889,7.0889,7.0889,7.0889,7.0889,7.0889,7.0889,7.0889,7.0889,7.0889,7.0889,7.0889,7.0889,7.0889,7.0889,7.0889,7.0889,7.0889,7.0889,7.0889,7.0859,7.062,7.0111,6.9409,6.8317,6.7523,6.7014,6.7014,6.7014,6.7014,6.7014,6.7014,6.7014,6.7014,6.7014,6.7014,6.7014,6.7014,6.7014,6.7014,6.7014,6.7014,6.7014,0.0,6.7014,6.7014,6.7014,6.7014,6.7014,6.7014,6.7014,6.7014,6.7014,6.7014,6.7014,6.7014,6.7014,6.7014,6.7014,6.7014,6.7014,6.7014,6.7014,6.7014,6.7014,6.7014,6.7014,6.7014,6.7014,6.7014,6.7014,6.7014,6.7014,6.7014,6.7014,6.7014,6.7014,6.7014,6.7014,6.7014,6.7014,6.7014,6.7014,6.7014,6.7014,5.8127,5.8152,5.8202,5.8378,5.8403,5.8529,5.8905,5.8936,5.9062,5.9458,5.9483,5.9483,5.9483,5.9483,5.9483,5.9483,5.9483,5.9483,5.9483,5.9483,6.0672,6.3283,6.3393,6.2796,6.1523,6.3347,6.4319,6.4319,6.6248,6.7832,6.9124,6.9124,6.9124,6.914,6.9764,7.0012,7.0075,7.0661,7.0889,7.0889,7.0889,7.0889,7.0889,7.0889,7.0889,7.0889,7.0889,7.0889,7.0889,7.0889,7.0889,7.0889,7.0889,7.035,6.9468,6.8331,6.7523,6.7014,6.7014,6.7014,6.7014,6.7014,6.7014,6.7014,6.7014,6.7014,6.7014,6.7014,6.7014,6.7014,6.7014,6.7014,6.7014,6.7014,6.7014,6.7014,6.7014,6.7014,6.7014,6.7014,6.7014,6.7014,6.7014,6.7014,6.7014,6.7014,6.7014,6.7014,6.7014,6.7014,6.7014,6.7014,6.7014,6.7014,6.7014,6.7014,6.7014,6.7014,6.7014,6.7014,6.7014,6.7014,6.7014,6.7014,6.7014,6.7014,6.7014,6.7014,6.7014,6.7014,6.7014,6.7014,6.7014,6.7014,6.7014,6.7014,5.861,5.871,5.8861,5.9408,5.9483,5.9483,5.9483,5.9483,5.9483,5.9483,5.9483,5.9483,5.9483,5.9483,5.9483,5.9483,5.9483,5.9483,5.9483,5.9483,5.9483,5.9483,5.9483,5.9483,5.9483,6.141,6.2413,6.2413,6.4265,6.5186,6.5186,6.5186,6.5186,6.5257,6.7232,6.8095,6.8214,7.0091,7.0873,7.0873,7.0873,7.0873,7.0873,7.0873,7.0873,7.0873,7.0873,7.0889,7.0889,7.0889,7.0889,7.0889,7.0889,7.0021,6.8854,6.8181,6.7523,6.7014,6.7014,6.7014,6.7014,6.7014,6.7014,6.7014,6.7014,6.7014,6.7014,6.7014,6.7014,6.7014,6.7014,6.7014,6.7014,6.7014,6.7014,6.7014,6.7014,6.7014,6.7014,6.7014,6.7014,6.7014,6.7014,6.7014,6.7014,6.7014,6.7014,6.7014,6.7014,6.7014,6.7014,6.7014,6.7014,6.7014,6.7014,6.7014,6.7014,6.7014,6.7014,6.7014,6.7014,6.7014,6.7014,6.7014,6.7014,6.7014,6.7014,6.7014,6.7014,6.7014,6.7014,6.7014,6.7014,6.7014,6.7014,6.7014,5.9232,5.9257,5.9307,5.9458,5.9483,5.9483,5.9483,5.9483,5.9483,5.9483,5.9483,5.9483,5.9483,5.9483,5.9483,5.9483,5.9483,5.9483,5.9483,5.9483,5.9483,5.9483,5.9483,5.9483,5.9483,6.141,6.2413,6.2413,6.4265,6.5186,6.5186,6.5186,6.5186,6.5232,6.5816,6.6062,6.6185,6.8117,6.8952,6.9052,7.037,7.0124,6.9086,7.0387,7.0091,6.9119,7.0419,7.0889,7.0889,7.0889,7.0889,7.0889,7.0889,7.0021,6.8944,6.878,6.7912,6.7014,6.7014,6.7014,6.7014,6.7014,6.7014,6.7014,6.7014,6.7014,6.7014,6.7014,6.7014,6.7014,6.7014,6.7014,6.7014,6.7014,6.7014,6.7014,6.7014,6.7014,6.7014,6.7014,6.7014,6.7014,6.7014,6.7014,6.7014,6.7014,6.7014,6.7014,6.7014,6.7014,6.7014,6.7014,6.7014,6.7014,6.7014,6.7014,6.7014,6.7014,6.7463,6.7703,6.7703,6.8211,6.8405,6.8405,6.8405,6.8151,6.7703,6.7703,6.7433,6.7014,6.7014,6.7014,6.7014,6.7014,6.7014,6.7014,5.9483,5.9483,5.9483,5.9483,5.9483,5.9483,5.9483,5.9483,5.9483,5.9483,5.9483,5.9483,5.9483,5.9483,5.9483,5.9483,5.9483,5.9483,5.9483,5.9483,5.9483,5.9483,5.9483,5.9483,5.9483,6.0641,6.1259,6.1259,6.2397,6.2962,6.2962,6.2962,6.2962,6.298,6.3766,6.4093,6.421,6.6143,6.6944,6.7048,6.8173,6.7969,6.7163,6.9057,6.9086,6.8349,7.0223,7.0889,7.0889,7.0889,7.0889,7.0889,7.0889,7.0021,6.9004,6.9004,6.8046,6.7014,6.7014,6.7014,6.7014,6.7014,6.7014,6.7014,6.7014,6.7014,6.7014,6.7014,6.7014,6.7014,6.7014,6.7014,6.7014,6.7014,6.7014,6.7014,6.7014,6.7014,6.7014,6.7014,6.7014,6.7014,6.7014,6.7014,6.7014,6.7014,6.7014,6.7014,6.7014,6.7014,6.7014,6.7014,6.7014,6.7134,6.7373,6.7403,6.7403,6.7403,6.8092,6.8391,6.8421,6.884,6.9004,6.9004,6.9004,6.8764,6.8391,6.8391,6.8151,6.7747,6.7493,6.7403,6.7373,6.7104,6.7014,6.7014,5.9483,5.9483,5.9483,5.9483,5.9483,5.9483,5.9483,5.9483,5.9483,5.9483,5.9483,5.9483,5.9483,5.9483,5.9483,5.9483,5.9483,5.9483,5.9483,5.9483,5.9483,5.9483,5.9483,5.9483,5.9483,5.9483,5.9483,5.9483,5.9483,5.9483,5.9483,5.9483,5.9483,5.956,6.1354,6.2152,6.2256,6.4138,6.4964,6.4982,6.5115,6.508,6.5161,6.7111,6.7844,6.8083,6.9963,7.0759,7.0889,7.0889,7.0889,7.0889,7.0889,7.0021,6.9004,6.9004,6.8046,6.7014,6.7014,6.7014,6.7014,6.7014,6.7014,6.7014,6.7014,6.7014,6.7014,6.7014,6.7014,6.7014,6.7014,6.7014,6.7014,6.7014,6.7014,6.7014,6.7014,6.7014,6.7014,6.7014,6.7014,6.7014,6.7014,6.7014,6.7014,6.7014,6.7014,6.7014,6.7014,6.7014,6.7014,6.7014,6.7074,6.7373,6.7987,6.8107,6.8167,6.8107,6.8764,6.9093,6.9093,6.9153,6.9183,6.9183,6.9183,6.9153,6.9093,6.9093,6.9064,6.8944,6.8271,6.7987,6.7928,6.7254,6.7014,6.7014,5.9483,5.9483,5.9483,5.9483,5.9483,5.9483,5.9483,5.9483,5.9483,5.9483,5.9483,5.9483,5.9483,5.9483,5.9483,5.9483,5.9483,5.9483,5.9483,5.9483,5.9483,5.9483,5.9483,5.9483,5.9483,5.9483,5.9483,5.9483,5.9483,5.9483,5.9483,5.9483,5.9483,5.9502,5.9939,6.0131,6.0265,6.2182,6.3007,6.3135,6.4606,6.4319,6.3209,6.5107,6.5833,6.6079,6.8015,6.9665,7.0889,7.0889,7.0889,7.0889,7.0889,7.0021,6.9004,6.9004,6.8046,6.7014,6.7014,6.7014,6.7014,6.7014,6.7014,6.7014,6.7014,6.7014,6.7014,6.7014,6.7014,6.7014,6.7014,6.7014,6.7014,6.7014,6.7014,6.7014,6.7014,6.7014,6.7014,6.7014,6.7014,6.7014,6.7014,6.7014,6.7014,6.7014,6.7014,6.7014,6.7014,6.7014,6.7014,6.7014,6.7493,6.7868,6.7987,6.9049,6.9289,6.8794,6.9468,6.9798,6.9798,7.026,7.05,7.05,7.05,7.0201,6.9798,6.9798,6.9453,6.8944,6.8271,6.7987,6.7928,6.7254,6.7014,6.7014,5.9483,5.9483,5.9483,5.9483,5.9483,5.9483,5.9483,5.9483,5.9483,5.9483,5.9483,5.9483,5.9483,5.9483,5.9483,5.9483,5.9483,5.9483,5.9483,5.9483,5.9483,5.9483,5.9483,5.9483,5.9483,5.9483,5.9483,5.9483,5.9483,5.9483,5.9483,5.9483,5.9483,5.9483,5.9483,5.9483,5.956,6.0584,6.1014,6.1089,6.2107,6.1883,6.1222,6.3154,6.4409,6.5462,6.7404,6.9303,7.0889,7.0889,7.0889,7.0889,7.0889,7.026,6.9393,6.9093,6.8271,6.7403,6.7104,6.7014,6.7014,6.7014,6.7014,6.7014,6.7014,6.7014,6.7014,6.7014,6.7014,6.7014,6.7014,6.7014,6.7014,6.7014,6.7014,6.7014,6.7014,6.7014,6.7014,6.7014,6.7014,6.7014,6.7014,6.7014,6.7014,6.7014,6.7014,6.7014,6.7014,6.7014,6.7164,6.7463,6.7808,6.8317,6.893,6.9648,6.9977,6.9901,7.026,7.0426,7.044,7.0769,7.0889,7.0889,7.0889,7.0709,7.0426,7.0426,7.0231,6.9842,6.9199,6.875,6.8391,6.7732,6.7284,6.7014,5.9483,5.9483,5.9483,5.9483,5.9483,5.9483,5.9483,5.9483,5.9483,5.9483,5.9483,5.9483,5.9483,5.9483,5.9483,5.9483,5.9483,5.9483,5.9483,5.9483,5.9483,5.9483,5.9483,5.9483,5.9483,5.9483,5.9483,5.9483,5.9483,5.9483,5.9483,5.9483,5.9483,5.9483,5.9483,5.9483,5.9483,5.9483,5.9483,5.9483,5.9483,5.9483,5.9676,6.1297,6.308,6.4982,6.6921,6.9007,7.0889,7.0889,7.0889,7.0889,7.0889,7.0486,6.9858,6.9183,6.8541,6.7868,6.7194,6.7014,6.7014,6.7014,6.7014,6.7014,6.7014,6.7014,6.7014,6.7014,6.7014,6.7014,6.7014,6.7014,6.7014,6.7014,6.7014,6.7014,6.7014,6.7014,6.7014,6.7014,6.7014,6.7014,6.7014,6.7014,6.7014,6.7014,6.7014,6.7014,6.7014,6.7014,6.7313,6.7987,6.8107,6.875,6.9977,7.0097,7.038,7.0889,7.0889,7.0889,7.0889,7.0889,7.0889,7.0889,7.0889,7.0889,7.0889,7.0889,7.0889,7.0829,7.0247,6.9588,6.8914,6.8122,6.7463,6.7014,5.9483,5.9483,5.9483,5.9483,5.9483,5.9483,5.9483,5.9483,5.9483,5.9483,5.9483,5.9483,5.9483,5.9483,5.9483,5.9483,5.9483,5.9483,5.9483,5.9483,5.9483,5.9483,5.9483,5.9483,5.9483,5.9483,5.9483,5.9483,5.9483,5.9483,5.9483,5.9483,5.9483,5.9483,5.9483,5.9483,5.9483,5.9483,5.9483,5.9483,5.9483,5.9483,5.9521,5.9792,6.1089,6.3025,6.4911,6.7884,7.0889,7.0889,7.0889,7.0889,7.0889,7.0486,6.9858,6.9183,6.8541,6.7868,6.7194,6.7014,6.7014,6.7014,6.7014,6.7014,6.7014,6.7014,6.7014,6.7014,6.7014,6.7014,6.7014,6.7014,6.7014,6.7014,6.7014,6.7014,6.7014,6.7014,6.7014,6.7014,6.7014,6.7014,6.7014,6.7014,6.7014,6.7014,6.7014,6.7014,6.7014,6.7014,6.7313,6.7987,6.8571,6.9229,6.9977,7.05,7.0829,7.0889,7.0889,7.0889,7.0889,7.0889,7.0889,7.0889,7.0889,7.0889,7.0889,7.0889,7.0889,7.0829,7.0247,6.9588,6.8854,6.7613,6.7074,6.7014,5.9483,5.9483,5.9483,5.9483,5.9483,5.9483,5.9483,5.9483,5.9483,5.9483,5.9483,5.9483,5.9483,5.9483,5.9483,5.9483,5.9483,5.9483,5.9483,5.9483,5.9483,5.9483,5.9483,5.9483,5.9483,5.9483,5.9483,5.9483,5.9483,5.9483,5.9483,5.9483,5.9483,5.9483,5.9483,5.9483,5.9483,5.9483,5.9483,5.9483,5.9483,5.9483,5.9483,5.9483,6.0717,6.2794,6.5773,6.7884,6.9486,7.0563,7.0889,7.0889,7.0889,7.0709,7.038,6.9738,6.9064,6.8421,6.7732,6.7284,6.7014,6.7014,6.7014,6.7014,6.7014,6.7014,6.7014,6.7014,6.7014,6.7014,6.7014,6.7014,6.7014,6.7014,6.7014,6.7014,6.7014,6.7014,6.7014,6.7014,6.7014,6.7014,6.7014,6.7014,6.7014,6.7014,6.7014,6.7014,6.7014,6.7343,6.7852,6.8541,6.9199,6.9858,7.0516,7.0769,7.0889,7.0889,7.0889,7.0889,7.0889,7.0889,7.0889,7.0889,7.0889,7.0889,7.0889,7.0889,7.0889,7.0889,7.062,6.9901,6.8824,6.7478,6.7014,6.7014]},{"header":{"parameterUnit":"m.s-1","parameterCategory":1,"la1":30.6,"la2":28.766,"lo1":-90.7593,"lo2":-88.6598,"dy":0.0162,"dx":0.0183,"nx":116,"ny":114,"refTime":"2023-03-16T00:00:00:Z","depth":0,"parameterNumber":3,"parameterNumberName":"V-component_of_WINDS"},"data":[0.0,0.0,0.0,0.0,0.0,0.0,0.0,0.0,0.0,0.0,0.0,0.0,0.0,0.0,0.0,0.0,0.0,0.0,0.0,0.0,0.0,0.0,0.0,0.0,0.0,0.0,0.0,0.0,0.0,0.0,0.0,0.0,0.0,0.0,0.0,0.0,0.0,0.0,0.0,0.0,0.0,0.0,0.0,0.0,0.0,0.0,0.0,0.0,0.0,0.0,0.0,0.0,0.0,0.0,0.0,0.0,0.0,0.0,0.0,0.0,0.0,0.0,0.0,0.0,0.0,0.0,0.0,0.0,0.0,0.0,0.0,0.0,0.0,0.0,0.0,0.0,0.0,0.0,0.0,0.0,0.0,0.0,0.0,0.0,0.0,0.0,0.0,0.0,0.0,0.0,0.0,0.0,0.0,0.0,0.0,0.0,0.0,0.0,0.0,0.0,0.0,0.0,0.0,0.0,0.0,0.0,0.0,0.0,0.0,0.0,0.0,0.0,0.0,0.0,0.0,0.0,0.0,0.0,0.0,0.0,0.0,0.0,0.0,0.0,0.0,0.0,0.0,0.0,0.0,0.0,0.0,0.0,0.0,0.0,0.0,0.0,0.0,0.0,0.0,0.0,0.0,0.0,0.0,0.0,0.0,0.0,0.0,0.0,0.0,0.0,0.0,0.0,0.0,0.0,0.0,0.0,0.0,0.0,0.0,0.0,0.0,0.0,0.0,0.0,0.0,0.0,0.0,0.0,0.0,0.0,0.0,0.0,0.0,0.0,0.0,0.0,0.0,0.0,0.0,0.0,0.0,0.0,0.0,0.0,0.0,0.0,0.0,0.0,0.0,0.0,0.0,0.0,0.0,0.0,0.0,0.0,0.0,0.0,0.0,0.0,0.0,0.0,0.0,0.0,0.0,0.0,0.0,0.0,0.0,0.0,0.0,0.0,0.0,0.0,0.0,0.0,0.0,0.0,0.0,0.0,0.0,0.0,0.0,0.0,0.0,0.0,0.0,0.0,0.0,0.0,0.0,0.0,0.0,0.0,0.0,0.0,0.0,0.0,0.0,0.0,0.0,0.0,0.0,0.0,0.0,0.0,0.0,0.0,0.0,0.0,0.0,0.0,0.0,0.0,0.0,0.0,0.0,0.0,0.0,0.0,0.0,0.0,0.0,0.0,0.0,0.0,0.0,0.0,0.0,0.0,0.0,0.0,0.0,0.0,0.0,0.0,0.0,0.0,0.0,0.0,0.0,0.0,0.0,0.0,0.0,0.0,0.0,0.0,0.0,0.0,0.0,0.0,0.0,0.0,0.0,0.0,0.0,0.0,0.0,0.0,0.0,0.0,0.0,0.0,0.0,0.0,0.0,0.0,0.0,0.0,0.0,0.0,0.0,0.0,0.0,0.0,0.0,0.0,0.0,0.0,0.0,0.0,0.0,0.0,0.0,0.0,0.0,0.0,0.0,0.0,0.0,0.0,0.0,0.0,0.0,0.0,0.0,0.0,0.0,0.0,0.0,0.0,0.0,0.0,0.0,0.0,0.0,0.0,0.0,0.0,0.0,0.0,0.0,0.0,0.0,0.0,0.0,0.0,0.0,0.0,0.0,0.0,0.0,0.0,0.0,0.0,0.0,0.0,0.0,0.0,0.0,0.0,0.0,0.0,0.0,0.0,0.0,0.0,0.0,0.0,0.0,0.0,0.0,0.0,0.0,0.0,0.0,0.0,0.0,0.0,0.0,0.0,0.0,0.0,0.0,0.0,0.0,0.0,0.0,0.0,0.0,0.0,0.0,0.0,0.0,0.0,0.0,0.0,0.0,0.0,0.0,0.0,0.0,0.0,0.0,0.0,0.0,0.0,0.0,0.0,0.0,0.0,0.0,0.0,0.0,0.0,0.0,0.0,0.0,0.0,0.0,0.0,0.0,0.0,0.0,0.0,0.0,0.0,0.0,0.0,0.0,0.0,0.0,0.0,0.0,0.0,0.0,0.0,0.0,0.0,0.0,0.0,0.0,0.0,0.0,0.0,0.0,0.0,0.0,0.0,0.0,0.0,0.0,0.0,0.0,0.0,0.0,0.0,0.0,0.0,0.0,0.0,0.0,0.0,0.0,0.0,0.0,0.0,0.0,0.0,0.0,0.0,0.0,0.0,0.0,0.0,0.0,0.0,0.0,0.0,0.0,0.0,0.0,0.0,0.0,0.0,0.0,0.0,0.0,0.0,0.0,0.0,0.0,0.0,0.0,0.0,0.0,0.0,0.0,0.0,0.0,0.0,0.0,0.0,0.0,0.0,0.0,0.0,0.0,0.0,0.0,0.0,0.0,0.0,0.0,0.0,0.0,0.0,0.0,0.0,0.0,0.0,0.0,0.0,0.0,0.0,0.0,0.0,0.0,0.0,0.0,0.0,0.0,0.0,0.0,0.0,0.0,0.0,0.0,0.0,0.0,0.0,0.0,0.0,0.0,0.0,0.0,0.0,0.0,0.0,0.0,0.0,0.0,0.0,0.0,0.0,0.0,0.0,0.0,0.0,0.0,0.0,0.0,0.0,0.0,0.0,0.0,0.0,0.0,0.0,0.0,0.0,0.0,0.0,0.0,0.0,0.0,0.0,0.0,0.0,0.0,0.0,0.0,0.0,0.0,0.0,0.0,0.0,0.0,0.0,0.0,0.0,0.0,0.0,0.0,0.0,0.0,0.0,0.0,0.0,0.0,0.0,0.0,0.0,0.0,0.0,0.0,0.0,0.0,0.0,0.0,0.0,0.0,0.0,0.0,0.0,0.0,0.0,0.0,0.0,0.0,0.0,0.0,0.0,0.0,0.0,0.0,0.0,0.0,0.0,0.0,0.0,0.0,0.0,0.0,0.0,0.0,0.0,0.0,0.0,0.0,0.0,0.0,0.0,0.0,0.0,0.0,0.0,0.0,0.0,0.0,0.0,0.0,0.0,0.0,0.0,0.0,0.0,0.0,0.0,0.0,0.0,0.0,0.0,0.0,0.0,0.0,0.0,0.0,0.0,0.0,0.0,0.0,0.0,0.0,0.0,0.0,0.0,0.0,0.0,0.0,0.0,0.0,0.0,0.0,0.0,0.0,0.0,0.0,0.0,0.0,0.0,0.0,0.0,0.0,0.0,0.0,0.0,0.0,0.0,0.0,0.0,0.0,0.0,0.0,0.0,0.0,0.0,0.0,0.0,0.0,0.0,0.0,0.0,0.0,0.0,0.0,0.0,0.0,0.0,0.0,0.0,0.0,0.0,0.0,0.0,0.0,0.0,0.0,0.0,0.0,0.0,0.0,0.0,0.0,0.0,0.0,0.0,0.0,0.0,0.0,0.0,0.0,0.0,0.0,0.0,0.0,0.0,0.0,0.0,0.0,0.0,0.0,0.0,0.0,0.0,0.0,0.0,0.0,0.0,0.0,0.0,0.0,0.0,0.0,0.0,0.0,0.0,0.0,0.0,0.0,0.0,0.0,0.0,0.0,0.0,0.0,0.0,0.0,0.0,0.0,0.0,0.0,0.0,0.0,0.0,0.0,0.0,0.0,0.0,0.0,0.0,0.0,0.0,0.0,0.0,0.0,0.0,0.0,0.0,0.0,0.0,0.0,0.0,0.0,0.0,0.0,0.0,0.0,0.0,0.0,0.0,0.0,0.0,0.0,0.0,0.0,0.0,0.0,0.0,0.0,0.0,0.0,0.0,0.0,0.0,0.0,0.0,0.0,0.0,0.0,0.0,0.0,0.0,0.0,0.0,0.0,0.0,0.0,0.0,0.0,0.0,0.0,0.0,0.0,0.0,0.0,0.0,0.0,0.0,0.0,0.0,0.0,0.0,0.0,0.0,0.0,0.0,0.0,0.0,0.0,0.0,0.0,0.0,0.0,0.0,0.0,0.0,0.0,0.0,0.0,0.0,0.0,0.0,0.0,0.0,0.0,0.0,0.0,0.0,0.0,0.0,0.0,0.0,0.0,0.0,0.0,0.0,0.0,0.0,0.0,0.0,0.0,0.0,0.0,0.0,0.0,0.0,0.0,0.0,0.0,0.0,0.0,0.0,0.0,0.0,0.0,0.0,0.0,0.0,0.0,0.0,0.0,0.0,0.0,0.0,0.0,0.0,0.0,0.0,0.0,0.0,0.0,0.0,0.0,0.0,0.0,0.0,0.0,0.0,0.0,0.0,0.0,0.0,0.0,0.0,0.0,0.0,0.0,0.0,0.0,0.0,0.0,0.0,0.0,0.0,0.0,0.0,0.0,0.0,0.0,0.0,0.0,0.0,0.0,0.0,0.0,0.0,0.0,0.0,0.0,0.0,0.0,0.0,0.0,0.0,0.0,0.0,0.0,0.0,0.0,0.0,0.0,0.0,0.0,0.0,0.0,0.0,0.0,0.0,0.0,0.0,0.0,0.0,0.0,0.0,0.0,0.0,0.0,0.0,0.0,0.0,0.0,0.0,0.0,0.0,0.0,0.0,0.0,0.0,0.0,0.0,0.0,0.0,0.0,0.0,0.0,0.0,0.0,0.0,0.0,0.0,0.0,0.0,0.0,0.0,0.0,0.0,0.0,0.0,0.0,0.0,0.0,0.0,0.0,0.0,0.0,0.0,0.0,0.0,0.0,0.0,0.0,0.0,0.0,0.0,0.0,0.0,0.0,0.0,0.0,0.0,0.0,0.0,0.0,0.0,0.0,0.0,0.0,0.0,0.0,0.0,0.0,0.0,0.0,0.0,0.0,0.0,0.0,0.0,0.0,0.0,0.0,0.0,0.0,0.0,0.0,0.0,0.0,0.0,0.0,0.0,0.0,0.0,0.0,0.0,0.0,0.0,0.0,0.0,0.0,0.0,0.0,0.0,0.0,0.0,0.0,0.0,0.0,0.0,0.0,0.0,0.0,0.0,0.0,0.0,0.0,0.0,0.0,0.0,0.0,0.0,0.0,0.0,0.0,0.0,0.0,0.0,0.0,0.0,0.0,0.0,0.0,0.0,0.0,0.0,0.0,0.0,0.0,0.0,0.0,0.0,0.0,0.0,0.0,0.0,0.0,0.0,0.0,0.0,0.0,0.0,0.0,0.0,0.0,0.0,0.0,0.0,0.0,0.0,0.0,0.0,0.0,0.0,0.0,0.0,0.0,0.0,0.0,0.0,0.0,0.0,0.0,0.0,0.0,0.0,0.0,0.0,0.0,0.0,0.0,0.0,0.0,0.0,0.0,0.0,0.0,0.0,0.0,0.0,0.0,0.0,0.0,0.0,0.0,0.0,0.0,0.0,0.0,0.0,0.0,0.0,0.0,0.0,0.0,0.0,0.0,0.0,0.0,0.0,0.0,0.0,0.0,0.0,0.0,0.0,0.0,0.0,0.0,0.0,0.0,0.0,0.0,0.0,0.0,0.0,0.0,0.0,0.0,0.0,0.0,0.0,0.0,0.0,0.0,0.0,0.0,0.0,0.0,0.0,0.0,0.0,0.0,0.0,0.0,0.0,0.0,0.0,0.0,0.0,0.0,0.0,0.0,0.0,0.0,0.0,0.0,0.0,0.0,0.0,0.0,0.0,0.0,0.0,0.0,0.0,0.0,0.0,0.0,0.0,0.0,0.0,0.0,0.0,0.0,0.0,0.0,0.0,0.0,0.0,0.0,0.0,0.0,0.0,0.0,0.0,0.0,0.0,0.0,0.0,0.0,0.0,0.0,0.0,0.0,0.0,0.0,0.0,0.0,0.0,0.0,0.0,0.0,0.0,0.0,0.0,0.0,0.0,0.0,0.0,0.0,0.0,0.0,0.0,0.0,0.0,0.0,0.0,0.0,0.0,0.0,0.0,0.0,0.0,0.0,0.0,0.0,0.0,0.0,0.0,0.0,0.0,0.0,0.0,0.0,0.0,0.0,0.0,0.0,0.0,0.0,0.0,0.0,0.0,0.0,0.0,0.0,0.0,0.0,0.0,0.0,0.0,0.0,0.0,0.0,0.0,0.0,0.0,0.0,0.0,0.0,0.0,0.0,0.0,0.0,0.0,0.0,0.0,0.0,0.0,0.0,0.0,0.0,0.0,0.0,0.0,0.0,0.0,0.0,0.0,0.0,0.0,0.0,0.0,0.0,0.0,0.0,0.0,0.0,0.0,3.0913,0.0,0.0,0.0,0.0,0.0,0.0,0.0,0.0,0.0,0.0,0.0,0.0,0.0,0.0,0.0,0.0,0.0,0.0,0.0,0.0,0.0,0.0,0.0,0.0,0.0,0.0,0.0,0.0,0.0,0.0,0.0,0.0,0.0,0.0,0.0,0.0,0.0,0.0,0.0,3.5367,3.5515,3.5515,3.5515,3.5515,3.5515,0.0,0.0,0.0,0.0,0.0,0.0,0.0,0.0,0.0,0.0,0.0,0.0,0.0,0.0,0.0,0.0,0.0,0.0,0.0,0.0,0.0,0.0,0.0,0.0,0.0,0.0,0.0,0.0,0.0,0.0,0.0,0.0,0.0,0.0,0.0,0.0,0.0,0.0,0.0,0.0,0.0,0.0,0.0,0.0,0.0,0.0,0.0,0.0,0.0,0.0,0.0,0.0,0.0,0.0,0.0,0.0,0.0,0.0,0.0,0.0,0.0,0.0,0.0,0.0,0.0,0.0,0.0,0.0,0.0,0.0,0.0,3.1519,0.0,0.0,0.0,0.0,0.0,0.0,0.0,0.0,0.0,0.0,0.0,0.0,0.0,0.0,0.0,0.0,0.0,0.0,0.0,0.0,0.0,0.0,0.0,0.0,3.3875,3.4746,3.4334,3.4048,0.0,0.0,0.0,0.0,0.0,0.0,0.0,3.5431,3.5645,3.5645,3.6143,3.6393,3.6393,3.6393,3.6393,3.6393,3.6393,0.0,0.0,0.0,0.0,0.0,0.0,0.0,0.0,0.0,0.0,0.0,0.0,0.0,0.0,0.0,0.0,0.0,0.0,0.0,0.0,0.0,0.0,0.0,0.0,0.0,0.0,0.0,0.0,0.0,0.0,0.0,0.0,0.0,0.0,0.0,0.0,0.0,0.0,0.0,0.0,0.0,0.0,0.0,0.0,0.0,0.0,0.0,0.0,0.0,0.0,0.0,0.0,0.0,0.0,0.0,0.0,0.0,0.0,0.0,0.0,0.0,0.0,0.0,3.2316,3.2355,3.2413,3.2413,3.2413,3.2413,3.2413,3.2335,3.2198,0.0,0.0,0.0,0.0,0.0,0.0,0.0,0.0,0.0,0.0,0.0,0.0,0.0,0.0,0.0,0.0,0.0,0.0,0.0,0.0,0.0,0.0,3.5498,3.5236,3.5384,3.4901,3.4603,0.0,0.0,0.0,0.0,0.0,0.0,3.6155,3.6267,3.6281,3.6281,3.6368,3.6393,3.6393,3.6393,3.6393,3.6393,3.6393,3.6393,3.6393,0.0,0.0,0.0,0.0,0.0,0.0,0.0,0.0,0.0,0.0,0.0,0.0,0.0,0.0,0.0,0.0,0.0,0.0,0.0,0.0,0.0,0.0,0.0,0.0,0.0,0.0,0.0,0.0,0.0,0.0,0.0,0.0,0.0,0.0,0.0,0.0,0.0,0.0,0.0,0.0,0.0,3.3641,3.3708,0.0,0.0,0.0,0.0,0.0,0.0,0.0,0.0,0.0,0.0,0.0,0.0,0.0,0.0,3.212,3.2179,3.2374,3.273,3.273,3.291,3.3246,3.3246,3.3246,3.3246,3.3246,0.0,3.2198,3.2198,0.0,0.0,0.0,0.0,0.0,0.0,0.0,0.0,0.0,0.0,0.0,0.0,0.0,0.0,0.0,0.0,0.0,0.0,0.0,0.0,0.0,3.631,3.6044,3.5969,3.5467,3.5143,3.5143,0.0,0.0,0.0,0.0,3.6118,3.6393,3.6393,3.6393,3.6393,3.6393,3.6393,3.6393,3.6393,3.6393,3.6393,3.6393,3.6393,3.6393,3.6393,0.0,0.0,0.0,0.0,0.0,0.0,0.0,0.0,0.0,0.0,0.0,0.0,0.0,0.0,0.0,0.0,0.0,0.0,0.0,0.0,0.0,0.0,0.0,0.0,0.0,0.0,0.0,0.0,0.0,0.0,0.0,0.0,0.0,0.0,0.0,0.0,0.0,0.0,0.0,3.2549,3.3207,3.3453,3.3111,3.2543,0.0,0.0,0.0,0.0,0.0,0.0,0.0,0.0,0.0,3.2566,3.2535,3.2652,3.2871,3.2871,3.2969,3.3129,3.3129,3.3226,3.3402,3.3402,3.3402,3.3402,3.3402,3.3187,3.2871,3.2871,3.2871,3.2871,0.0,0.0,0.0,0.0,0.0,3.3129,0.0,0.0,0.0,0.0,0.0,0.0,0.0,0.0,0.0,0.0,0.0,0.0,3.727,3.6679,3.6312,3.6483,3.6018,3.5732,3.5732,3.6143,0.0,0.0,3.6393,3.6393,3.6393,3.6393,3.6393,3.6393,3.6544,3.6607,3.6619,3.6745,3.6808,3.6808,3.6808,3.6669,3.6393,3.6393,3.6393,3.6393,0.0,0.0,0.0,0.0,0.0,0.0,0.0,0.0,0.0,0.0,0.0,0.0,0.0,0.0,0.0,0.0,0.0,0.0,0.0,0.0,0.0,0.0,0.0,0.0,0.0,0.0,0.0,0.0,0.0,0.0,0.0,0.0,0.0,0.0,0.0,0.0,0.0,3.3346,3.4025,3.4395,3.4823,3.4654,0.0,0.0,0.0,0.0,0.0,0.0,3.4684,3.4393,3.3827,3.298,3.2949,3.3105,3.3402,3.3402,3.3402,3.3402,3.3402,3.3402,3.3402,3.3402,3.3402,3.3402,3.3402,3.3402,3.3402,3.3402,3.3402,3.3402,3.3402,3.3402,3.3402,3.3402,3.3402,3.3402,0.0,0.0,0.0,0.0,0.0,0.0,0.0,0.0,0.0,0.0,0.0,3.6738,3.7747,3.647,3.5972,3.6966,3.6618,3.6343,3.6343,3.6368,3.6393,3.6393,3.6393,3.6393,3.6393,3.6393,3.6393,3.6393,3.6909,3.7148,3.7185,3.7688,3.7914,3.7914,3.7914,3.7349,3.6393,3.6393,3.6393,3.6393,3.6393,0.0,0.0,0.0,0.0,0.0,0.0,0.0,0.0,0.0,0.0,0.0,0.0,0.0,0.0,0.0,0.0,0.0,0.0,0.0,0.0,0.0,0.0,0.0,0.0,0.0,0.0,0.0,0.0,0.0,0.0,0.0,0.0,0.0,0.0,0.0,0.0,0.0,0.0,3.8027,3.8514,0.0,0.0,0.0,0.0,3.6779,3.5783,3.5167,3.5167,3.4065,3.3422,3.3363,3.3363,3.3383,3.3402,3.3402,3.3402,3.3402,3.3402,3.3402,3.3402,3.3402,3.3402,3.3402,3.3402,3.3402,3.3402,3.3402,3.3402,3.3402,3.3402,3.3402,3.3402,3.3402,3.3402,3.3402,0.0,0.0,0.0,0.0,0.0,0.0,0.0,0.0,3.9369,3.9271,3.9213,3.872,3.752,3.8608,3.8665,3.6821,3.716,3.7185,3.6452,3.6393,3.6393,3.6393,3.6745,3.7085,3.7424,3.7424,3.7424,3.7424,3.7613,3.7713,3.7713,3.7914,3.8002,3.8002,3.8002,3.7789,3.7424,3.7424,3.7424,3.7424,3.7424,3.7424,0.0,0.0,0.0,0.0,0.0,0.0,0.0,0.0,0.0,0.0,0.0,0.0,0.0,0.0,0.0,0.0,0.0,0.0,0.0,0.0,0.0,0.0,0.0,0.0,0.0,0.0,0.0,0.0,0.0,0.0,0.0,0.0,0.0,0.0,0.0,0.0,0.0,3.752,3.8672,0.0,3.8232,3.7885,3.8168,3.9197,3.8896,3.869,3.869,3.8274,3.7544,3.6523,3.5489,3.4933,3.4933,3.3933,3.3933,3.4917,3.3902,3.3949,3.4902,3.387,3.3402,3.3402,3.3402,3.3402,3.3402,3.3402,3.3402,3.3402,3.3402,3.3402,3.3402,3.3402,3.3402,3.3402,0.0,0.0,0.0,0.0,0.0,0.0,0.0,0.0,3.9912,3.9428,3.9668,3.911,3.7081,3.8636,3.8912,3.6617,3.708,3.7208,3.6452,3.6569,3.6669,3.6669,3.7173,3.7638,3.7977,3.8002,3.8002,3.8002,3.8191,3.8291,3.8303,3.8492,3.8567,3.8567,3.8567,3.8567,3.8567,3.8567,3.8341,3.8002,3.8002,3.8002,3.8002,0.0,0.0,0.0,0.0,0.0,0.0,0.0,0.0,0.0,0.0,0.0,0.0,0.0,0.0,0.0,0.0,0.0,0.0,0.0,0.0,0.0,0.0,0.0,0.0,0.0,0.0,0.0,0.0,0.0,0.0,0.0,0.0,0.0,0.0,0.0,3.9046,3.8064,3.9665,4.049,3.9535,3.9657,4.0259,4.1334,4.0918,4.0592,4.0592,4.01,3.9302,3.8238,3.6623,3.6066,3.6593,3.4492,3.4211,3.5791,3.4164,3.3965,3.4948,3.3886,3.3402,3.3402,3.3402,3.3402,3.3402,3.3402,3.3402,3.3402,3.3402,3.3402,3.3402,3.3402,3.3402,3.3402,0.0,0.0,0.0,0.0,0.0,0.0,0.0,4.1018,4.0277,3.9133,3.8528,3.7769,3.6593,3.6487,3.6487,3.6405,3.6428,3.644,3.643,3.6909,3.7235,3.7248,3.7739,3.804,3.8053,3.8053,3.8053,3.8053,3.8642,3.8919,3.8944,3.9459,3.9697,3.9697,3.9697,3.9697,3.9697,3.9697,3.9069,3.8053,3.8053,3.8053,3.8053,0.0,0.0,0.0,0.0,0.0,0.0,0.0,0.0,0.0,0.0,0.0,0.0,0.0,0.0,0.0,0.0,0.0,0.0,0.0,0.0,0.0,0.0,0.0,0.0,0.0,0.0,0.0,0.0,0.0,0.0,0.0,0.0,0.0,3.7577,3.8821,4.0081,4.0081,4.1815,4.3014,4.3014,4.3014,4.3014,4.3014,4.1572,4.0664,4.0664,3.92,3.8357,3.8357,3.6775,3.6684,3.8268,3.5139,3.4336,3.5867,3.4242,3.3465,3.3465,3.3418,3.3402,3.3402,3.3402,3.3402,3.3402,3.3402,3.3402,3.3402,3.3402,3.3402,3.3402,3.3402,3.3402,3.3402,0.0,0.0,0.0,0.0,0.0,0.0,0.0,4.2357,4.2152,4.1017,4.0721,3.9879,3.7861,3.8401,3.8258,3.6558,3.7162,3.7444,3.7019,3.7135,3.7562,3.8391,3.8555,3.8831,3.922,3.922,3.922,3.922,3.9409,3.9484,3.9484,3.9635,3.9697,3.9697,3.9697,3.9697,3.9697,3.9697,3.9521,3.922,3.922,3.922,3.922,0.0,0.0,0.0,0.0,0.0,0.0,0.0,0.0,0.0,0.0,0.0,0.0,0.0,0.0,0.0,0.0,0.0,0.0,0.0,0.0,0.0,0.0,0.0,0.0,0.0,0.0,0.0,0.0,0.0,0.0,0.0,0.0,4.2449,4.1468,4.1815,4.2166,4.2166,4.2651,4.3014,4.3014,4.3014,4.3014,4.3014,4.2597,4.2333,4.2333,4.1913,4.1686,4.1686,4.012,3.9493,3.9931,3.7925,3.7099,3.7514,3.5898,3.5134,3.5103,3.3933,3.3402,3.3402,3.3402,3.3402,3.3402,3.3402,3.3402,3.3402,3.3402,3.3402,3.3402,3.3402,3.3402,3.3402,0.0,0.0,0.0,0.0,0.0,0.0,0.0,4.2673,4.2173,4.1042,4.044,3.9431,3.7586,3.8009,3.7977,3.6839,3.7334,3.7658,3.7536,3.7776,3.8316,3.9195,3.9245,3.9383,3.9697,3.9697,3.9697,3.9697,3.9697,3.9697,3.9697,3.9697,3.9697,3.9697,3.9697,3.9697,3.9697,3.9697,3.9697,3.9697,3.9697,3.9697,3.9697,3.9697,3.9697,3.9697,3.9697,3.9697,3.9697,3.9697,0.0,0.0,0.0,0.0,0.0,0.0,0.0,0.0,0.0,0.0,0.0,0.0,0.0,0.0,0.0,0.0,0.0,0.0,0.0,0.0,0.0,0.0,0.0,0.0,4.3014,4.3014,4.3014,4.3014,4.3014,4.3014,4.3014,4.3014,4.3014,4.3014,4.3014,4.3014,4.3014,4.3014,4.3014,4.3014,4.3014,4.3014,4.1434,4.1028,4.1931,3.9684,3.8987,3.9903,3.8297,3.7148,3.6409,3.5459,3.4644,0.0,3.3929,3.3929,3.3929,3.3929,3.3929,0.0,0.0,0.0,0.0,0.0,3.3929,3.3929,0.0,0.0,0.0,0.0,0.0,0.0,0.0,4.2447,4.142,4.0404,3.9128,3.7929,3.6908,3.6609,3.6695,3.7148,3.7248,3.7525,3.8065,3.8655,3.9183,3.9685,3.9697,3.9697,3.9697,3.9697,3.9697,3.9697,3.9697,3.9697,3.9697,3.9697,3.9722,3.9798,3.9798,3.9823,3.9873,3.9873,3.9873,3.9873,3.9873,3.981,3.9697,3.9697,3.9697,3.9697,3.9697,3.9747,3.9798,3.9798,0.0,0.0,0.0,0.0,0.0,0.0,0.0,0.0,0.0,0.0,0.0,0.0,0.0,0.0,0.0,0.0,0.0,0.0,0.0,0.0,0.0,0.0,0.0,0.0,4.3014,4.3014,4.3014,4.3014,4.3014,4.3014,4.3014,4.3014,4.3014,4.3014,4.3014,4.3014,4.3014,4.3039,4.309,0.0,0.0,0.0,0.0,4.1961,4.3876,4.1049,4.0536,4.2275,4.0853,3.9168,3.7302,3.7302,3.6348,3.4707,3.4707,3.4707,3.4707,3.4707,3.4726,3.4726,3.4333,3.4173,3.4196,3.457,3.4707,0.0,0.0,0.0,0.0,0.0,0.0,0.0,0.0,4.312,4.289,4.2679,4.0831,3.9459,3.9238,3.7935,3.7085,3.7198,3.76,3.8102,3.8693,3.9233,3.9584,3.971,3.9697,3.9697,3.9697,3.9697,3.9697,3.9697,3.9697,3.9697,3.9697,3.9697,3.9923,4.0337,4.0337,4.0588,4.1001,4.1001,4.1001,4.1001,4.1001,4.0487,3.9697,3.9697,3.9697,3.9697,3.9697,3.9973,4.0337,4.0337,4.0625,4.1001,4.1001,0.0,0.0,0.0,0.0,0.0,0.0,0.0,0.0,0.0,0.0,0.0,0.0,0.0,0.0,0.0,0.0,0.0,0.0,0.0,0.0,4.3014,4.3014,4.3014,4.3014,4.3014,4.3014,4.3014,4.3014,4.3014,4.3014,4.3014,4.3014,4.3014,4.3014,4.3176,4.3614,4.3639,0.0,4.4278,4.3989,4.4039,4.4439,4.3823,4.31,4.229,0.0,0.0,3.7302,3.7302,3.6348,3.4707,3.4707,3.4707,3.4707,3.4707,3.4922,3.5215,3.4766,3.457,3.459,3.4668,3.4707,3.4707,0.0,0.0,0.0,0.0,0.0,0.0,0.0,4.283,4.2457,4.2457,4.1213,4.0349,4.0349,3.9278,3.8931,3.9858,4.0437,4.0608,4.0267,4.05,4.0376,3.9736,3.9697,3.9697,3.9697,3.9697,3.9823,4.0099,4.0099,4.0236,4.0512,4.0512,4.0625,4.0901,4.0901,4.1038,4.1289,4.1289,4.1289,4.1289,4.1289,4.0976,4.0512,4.0512,4.0512,4.0512,4.0512,4.0675,4.0901,4.0901,4.1076,4.1289,4.1289,4.1289,4.1289,0.0,0.0,0.0,0.0,0.0,0.0,0.0,0.0,0.0,0.0,0.0,0.0,0.0,0.0,4.3014,0.0,0.0,4.3014,4.3014,4.3014,4.3014,4.3014,4.3014,4.3014,4.3014,4.3014,4.3115,4.3377,4.3402,4.3514,4.379,4.379,4.3915,4.4177,4.4202,4.4328,4.4589,4.4589,4.4754,4.5045,4.5045,4.4937,4.4697,4.4697,4.3516,4.1344,4.1344,4.0396,3.8753,3.8753,3.8753,3.8671,3.7768,3.6977,3.6328,3.6094,3.5742,3.5335,3.5335,3.5335,3.5335,0.0,0.0,0.0,0.0,0.0,0.0,0.0,4.2345,4.1738,4.2071,4.136,4.0941,4.1313,4.0814,4.099,4.2379,4.3121,4.2846,4.1332,4.169,4.1294,3.9774,3.9942,3.9993,3.9861,3.9861,4.0124,4.0663,4.0663,4.0876,4.1289,4.1289,4.1364,4.1478,4.1478,4.1528,4.1628,4.1628,4.1628,4.1628,4.1628,4.1628,4.1628,4.1628,4.149,4.1289,4.1289,4.1378,4.1478,4.1478,4.1528,4.1628,4.1628,4.1628,4.1628,4.1628,4.1628,0.0,0.0,0.0,0.0,0.0,0.0,0.0,0.0,0.0,4.3014,4.3014,4.3014,4.3014,4.3014,4.3014,4.3014,4.3014,4.3014,4.3039,4.3126,4.3165,4.3176,4.3302,4.3226,4.3377,4.3915,4.3966,4.4127,4.4579,4.4589,4.464,4.478,4.4865,4.4966,4.5066,4.5206,4.5482,4.5949,4.5964,4.6401,4.7249,4.7249,4.6602,4.5405,4.5405,4.4461,4.2775,4.2432,4.2282,4.2132,4.0303,3.8662,3.7305,3.7305,3.6875,3.6252,3.6252,3.6252,3.6252,0.0,0.0,0.0,0.0,0.0,0.0,0.0,0.0,4.2181,4.3793,4.2138,4.1429,4.3116,4.2766,4.2203,4.1752,4.2819,4.2471,4.007,4.2035,4.2218,3.9813,4.0781,4.1077,4.0413,4.0412,4.0675,4.1214,4.1214,4.1239,4.1289,4.1289,4.1592,4.2098,4.2098,4.2361,4.2799,4.2799,4.2799,4.2799,4.2799,4.2799,4.2799,4.2799,4.2169,4.1289,4.1289,4.1642,4.2098,4.2098,4.2411,4.2799,4.2799,4.2799,4.2799,4.2799,0.0,4.2824,4.2889,4.2914,4.2925,4.2989,4.3014,4.3014,0.0,0.0,4.3014,4.3014,4.3014,4.3014,4.3014,4.3014,4.3014,4.3014,4.3014,4.3176,4.3639,4.3714,4.389,4.4378,4.4016,4.3915,4.4453,4.4514,4.4554,4.4604,4.4589,4.483,4.5372,4.5849,4.6336,4.6823,4.729,4.7566,4.7631,4.7616,4.7707,4.7817,4.7817,4.6963,4.5405,4.5405,4.4461,4.2714,4.1096,4.0409,4.0256,3.8366,3.7479,3.7305,3.7305,3.7246,3.7148,3.7148,3.7148,3.7148,0.0,0.0,0.0,0.0,0.0,0.0,0.0,0.0,0.0,4.3117,4.3661,4.4026,4.4057,4.4851,4.4344,4.1811,4.3444,4.3527,4.0983,4.2496,4.235,3.9826,4.1995,4.2398,4.0527,4.2408,4.2879,4.182,4.2605,4.2757,4.2283,4.2283,4.2423,4.2676,4.2676,4.2788,4.3014,4.3014,4.3014,4.3014,4.3014,4.3014,4.3014,4.3014,4.2699,4.2283,4.2283,4.2448,0.0,4.2676,4.2813,4.3014,4.3014,4.3014,4.3014,4.3014,4.3014,0.0,4.3014,4.3014,0.0,0.0,4.3014,4.3014,4.3014,4.3014,4.3014,4.3014,4.3014,4.3014,4.3014,4.3014,4.3101,0.0,4.3478,4.3639,4.4177,4.4278,4.4478,4.507,4.4934,4.4884,4.5095,4.5121,4.5382,4.602,4.6045,4.6311,4.6878,4.7104,4.7315,4.7566,4.7767,4.7908,4.7908,4.7908,4.8083,4.8426,4.8426,4.8228,4.7846,4.7846,4.745,4.6728,4.595,4.4399,4.2368,4.1576,3.9994,3.8065,3.8065,3.8065,3.8006,3.748,3.7305,3.7305,0.0,0.0,0.0,0.0,0.0,0.0,0.0,0.0,0.0,0.0,4.411,4.5018,4.4231,4.6046,4.5756,4.1936,4.4044,4.4347,4.1269,4.307,4.2945,4.0066,4.3207,4.3744,4.1019,4.4101,4.4635,4.2425,4.4163,4.4319,4.3014,4.3393,4.3365,4.3014,4.3014,4.3014,4.3014,4.3014,4.3014,4.3014,4.3014,4.3014,4.3014,4.3014,4.3014,4.3014,4.3014,4.3014,4.3014,4.3014,4.3014,4.3014,4.3014,4.3014,4.3014,4.3014,4.3014,4.3014,4.3014,0.0,0.0,4.3014,4.3014,4.3014,4.3014,4.3014,4.3014,4.3014,4.3014,4.3014,4.3014,4.3126,4.3352,4.374,4.3926,4.4202,4.478,4.4855,4.5106,4.5849,4.5949,4.5999,4.6165,4.6024,4.6311,4.7249,4.7324,4.749,4.7867,4.8058,4.8159,4.8159,4.8284,4.8385,4.8385,4.8385,4.8661,4.9229,4.9229,4.9531,5.0083,5.0083,5.0083,5.0051,4.9527,4.7784,4.5279,4.4739,4.2959,4.0505,3.9983,3.9747,3.9632,3.8439,3.7851,3.7656,0.0,0.0,0.0,0.0,0.0,0.0,0.0,0.0,0.0,0.0,0.0,0.0,0.0,4.579,4.5756,4.1936,4.4399,4.4367,4.0032,4.3755,4.4448,4.0633,4.4242,4.5026,4.2219,4.4855,4.5189,4.2989,4.5687,4.5634,4.3042,4.4332,4.4236,4.3014,4.3014,4.3014,4.3014,4.3014,4.3014,4.3014,4.3014,4.3014,4.3014,4.3014,4.3014,4.3014,4.3014,4.3014,4.3014,4.3014,4.3014,4.3014,4.3014,4.3014,4.3014,4.3014,4.3014,0.0,0.0,0.0,4.3014,4.3014,4.3014,4.3014,4.3014,4.3014,4.3014,4.3014,4.3014,4.3014,4.3014,4.3427,4.379,4.379,4.4227,4.478,4.5372,4.5487,4.5874,4.6923,4.7048,4.7249,0.0,4.7365,4.7274,4.7817,4.7883,4.7867,4.7908,4.8451,4.8768,4.8768,4.928,4.954,4.954,4.954,4.9816,5.0352,5.0352,5.067,5.1239,5.1239,5.1239,5.1155,4.9315,4.8464,4.8224,4.6405,4.5589,4.5305,4.3412,4.2669,4.2452,4.0534,3.9296,3.8553,0.0,0.0,0.0,0.0,0.0,0.0,0.0,0.0,0.0,0.0,0.0,0.0,0.0,0.0,0.0,0.0,4.3463,4.4255,4.2279,4.4318,4.465,4.2528,4.5739,4.5908,4.2269,4.7027,4.7825,4.4332,4.712,4.7056,4.4332,4.4779,4.4277,4.3014,4.3014,4.3014,4.3014,4.3014,4.3014,4.3014,4.3014,4.3014,4.3014,4.3014,4.3014,4.3014,0.0,4.3014,4.3014,4.3014,4.3014,4.3014,4.3014,4.3014,4.3014,4.3014,0.0,0.0,0.0,0.0,4.3014,4.3014,4.3014,4.3014,4.3014,4.3014,4.3014,4.3014,4.3277,4.3528,4.3528,4.3966,4.4453,4.4844,4.507,4.5522,4.6436,4.6562,4.6838,4.7541,4.7641,0.0,0.0,0.0,0.0,4.8451,4.8501,4.8652,4.9012,4.9229,4.949,4.9841,5.0042,5.0318,5.0711,5.0736,5.0812,5.1013,5.1013,5.1113,5.1289,5.1289,5.1289,5.1256,5.062,4.966,4.8443,4.7816,4.6818,4.5634,4.4976,4.473,4.4497,4.2549,4.1649,4.1199,0.0,0.0,0.0,0.0,0.0,0.0,0.0,0.0,0.0,0.0,0.0,0.0,0.0,0.0,0.0,0.0,0.0,4.3646,4.271,4.4032,4.451,4.3714,4.6102,4.6344,4.3988,4.8253,4.8911,4.5753,4.8088,4.8038,4.574,4.5249,4.4549,4.3699,4.3212,4.3014,4.3014,4.3014,4.3014,4.3014,4.3014,4.3014,4.3014,4.3014,4.3014,0.0,4.3014,4.3014,4.3014,4.3014,4.3014,4.3014,4.3014,4.3014,4.3014,0.0,0.0,0.0,0.0,4.3014,4.3014,4.3014,4.3014,4.3014,4.3014,4.3151,4.3277,4.3277,4.3714,4.4077,4.4077,4.4529,4.5106,4.5698,4.5949,4.6361,4.7249,4.739,4.7591,4.8159,4.8209,4.8451,0.0,0.0,0.0,4.9079,4.9254,4.9515,4.9866,5.0092,5.0385,5.072,5.072,5.0896,5.1289,5.1289,5.1389,5.159,5.1774,5.1875,5.1875,5.1875,5.1875,5.1875,5.1875,5.1199,5.0066,5.0066,4.9344,4.8199,4.7513,4.7224,4.6905,4.4239,4.3692,4.387,0.0,0.0,0.0,0.0,0.0,0.0,0.0,0.0,0.0,0.0,0.0,0.0,0.0,0.0,0.0,0.0,0.0,0.0,4.1673,4.3202,4.4243,4.4453,4.549,4.6336,4.6979,4.8439,4.8477,4.6979,4.8477,4.8439,4.6953,4.5634,4.4968,4.4833,4.3575,4.3014,4.3014,4.3014,4.3014,4.3014,4.3014,4.3014,4.3014,4.3014,4.3014,4.3014,4.3014,4.3014,4.3014,4.3014,4.3014,4.3014,4.3014,4.3014,4.3014,4.3014,0.0,4.3014,4.3014,4.3014,4.3014,4.3014,4.3014,4.3014,4.3025,4.3427,4.3815,4.384,4.4278,4.4654,0.0,0.0,4.5748,4.6261,4.6772,4.7324,4.7867,4.7958,4.8159,0.0,0.0,0.0,0.0,0.0,0.0,4.9715,0.0,5.0452,5.0452,5.0987,5.1314,5.1339,5.1339,5.1364,5.1389,5.1389,5.1641,5.2151,5.2661,5.2895,5.2895,5.2895,5.2895,5.2895,5.2895,5.2895,5.2895,5.2895,5.2895,5.274,5.0875,5.0162,4.9677,4.5812,4.5571,4.6495,0.0,0.0,0.0,0.0,0.0,0.0,0.0,0.0,0.0,0.0,0.0,0.0,0.0,0.0,0.0,0.0,0.0,0.0,4.5531,4.509,4.5696,4.7822,4.623,4.5355,4.5528,4.7922,4.8013,4.5542,4.8013,4.7922,4.5528,4.5182,4.4467,4.3492,4.3142,4.3014,4.3014,4.3014,4.3014,4.3014,4.3014,4.3014,4.3014,4.3014,4.3014,4.3014,4.3014,4.3014,4.3014,4.3014,4.3014,4.3014,4.3014,4.3014,4.3014,4.3014,0.0,4.3014,4.3014,4.3014,4.3014,4.3014,4.3014,4.3101,4.3489,4.3689,4.3915,4.4303,4.4855,4.5271,0.0,0.0,0.0,4.6873,4.7365,0.0,4.8476,4.8576,0.0,4.933,0.0,5.0067,5.0176,5.072,0.0,0.0,5.0987,5.1071,5.1071,5.1214,5.149,5.1875,5.19,5.2101,5.2485,5.2485,5.2561,5.2711,5.282,5.2895,5.2895,5.2895,5.2895,5.2895,5.2895,5.2895,5.2895,5.2895,5.2895,5.2861,5.2345,5.2171,5.1851,4.9409,4.8812,4.8861,0.0,0.0,0.0,0.0,0.0,0.0,0.0,0.0,0.0,0.0,0.0,0.0,0.0,0.0,0.0,0.0,0.0,0.0,0.0,4.4562,4.5102,4.7248,4.5262,4.4685,4.5912,4.685,4.6888,4.5925,4.6888,4.685,4.5912,4.4685,4.403,4.3838,4.3268,4.3014,4.3014,4.3014,4.3014,0.0,0.0,4.3014,4.3014,4.3014,4.3014,4.3014,4.3014,4.3014,4.3014,4.3014,4.3014,4.3014,4.3014,4.3014,4.3014,4.3014,4.3014,4.3014,4.3014,4.3014,4.3065,4.3302,4.3352,4.3503,4.4027,4.4367,4.4618,4.4945,4.5447,0.0,4.6175,4.6672,4.7249,0.0,0.0,0.0,4.9079,4.9355,4.9615,0.0,5.0444,0.0,5.0795,5.1322,5.1649,0.0,5.1649,5.1649,5.1649,5.1875,5.2151,5.2435,5.246,5.2611,5.2895,5.2895,5.2895,5.2895,5.2895,5.2895,5.2895,5.2895,5.2895,5.2895,0.0,5.2895,5.2895,5.2895,5.2895,5.2895,5.2895,5.2895,5.2663,5.0717,5.0534,5.0857,0.0,0.0,0.0,0.0,0.0,0.0,0.0,0.0,0.0,0.0,0.0,0.0,0.0,0.0,0.0,0.0,0.0,0.0,0.0,0.0,4.3685,4.5222,4.3811,4.4195,4.6759,4.5621,4.5502,4.6552,4.5502,4.5528,4.6487,4.4126,4.363,4.4671,4.3519,4.3014,4.3014,4.3014,4.3014,4.3014,4.3014,4.3014,4.3014,0.0,4.3014,4.3014,4.3014,4.3014,4.3014,4.3014,4.3014,4.3014,4.3014,4.3014,4.3014,4.3014,4.3014,4.3014,4.3014,4.3065,4.3226,4.3689,4.3865,4.4066,4.4604,4.5121,4.5537,4.5587,0.0,4.6461,4.6998,4.7174,4.7566,4.8626,4.8868,4.9079,4.9615,5.0117,5.0427,5.0503,5.1046,5.1414,5.1414,5.19,5.2226,5.2226,5.2226,5.2226,5.2226,5.2661,5.2895,5.2895,5.2895,5.2895,5.2895,5.2895,5.2895,5.2895,5.2895,5.2895,5.2895,5.2895,5.2895,5.2895,0.0,0.0,5.2895,5.2895,5.2895,5.2895,5.2895,5.2895,5.2698,5.0998,5.1443,5.2421,0.0,0.0,0.0,0.0,0.0,0.0,0.0,0.0,0.0,0.0,3.9878,3.9942,0.0,0.0,0.0,0.0,0.0,0.0,0.0,0.0,0.0,4.6617,4.4332,4.3754,4.5316,4.5128,4.4589,4.3726,4.4589,4.4562,4.3713,4.3226,4.3115,4.3351,4.3087,4.3014,4.3014,4.3014,4.3014,4.3014,4.3014,4.3014,4.3014,4.3014,0.0,0.0,4.3014,4.3014,4.3014,4.3014,4.3014,4.3014,4.3014,4.3014,4.3014,4.3014,4.3014,4.3014,4.3014,4.3327,4.3689,4.379,4.4127,4.4629,4.5196,4.5422,0.0,0.0,4.625,4.6461,4.6998,4.745,4.7983,4.8693,4.9179,4.964,5.0193,5.0352,5.0578,0.0,5.1624,5.1975,5.1975,0.0,0.0,0.0,0.0,5.2744,5.2744,5.2845,5.2895,5.2895,5.2895,5.2895,5.2895,5.2895,5.2895,5.2895,5.2895,5.2895,5.2895,5.2895,5.2895,5.2895,0.0,0.0,5.2895,5.2895,5.2895,5.2895,5.2895,5.2895,5.2861,5.2525,5.2611,5.2809,0.0,0.0,0.0,0.0,0.0,0.0,0.0,3.9697,3.9697,3.9697,3.9697,3.9697,3.9697,3.9697,0.0,0.0,0.0,0.0,0.0,0.0,0.0,0.0,4.3713,4.3309,4.3948,4.3962,4.3644,4.3014,0.0,4.363,4.3014,4.3014,4.3014,4.3014,4.3014,4.3014,4.3014,4.3014,4.3014,4.3014,4.3014,4.3014,4.3014,0.0,0.0,0.0,4.3014,4.3014,4.3014,4.3014,4.3014,4.3014,4.3014,4.3014,4.3014,4.3014,4.3014,4.3051,4.3352,4.3589,4.394,4.4543,4.4869,4.5221,4.5799,0.0,0.0,0.0,4.6537,4.6888,4.7415,4.7983,4.8551,4.9129,4.9665,5.0117,5.0352,5.0904,5.1398,5.1674,5.2201,5.2511,0.0,5.2762,0.0,0.0,0.0,5.2895,5.2895,5.2895,5.2895,5.2895,5.2895,5.2895,5.2895,5.2895,5.2895,5.2895,5.2895,5.2895,5.2895,5.2895,5.2895,5.2895,5.2895,0.0,5.2895,5.2895,5.2895,5.2895,5.2895,5.2895,5.2895,5.2895,5.2895,5.2895,0.0,0.0,0.0,0.0,0.0,0.0,0.0,3.9697,3.9697,3.9697,3.9697,3.9697,3.9697,3.9697,3.9873,0.0,0.0,0.0,0.0,0.0,0.0,0.0,0.0,0.0,4.3014,0.0,0.0,4.3014,4.3014,0.0,0.0,0.0,0.0,0.0,4.3014,4.3014,4.3014,4.3014,4.3014,0.0,0.0,4.3014,0.0,0.0,0.0,0.0,0.0,4.3014,4.3014,4.3014,4.3014,4.3014,4.3014,4.3014,4.3014,4.3014,4.3014,4.3126,4.3639,4.389,4.4217,4.5236,4.5587,4.5773,4.6185,4.6286,0.0,0.0,4.6737,4.7249,4.7792,4.84,4.8994,4.9515,5.0067,5.0452,5.0553,5.1456,5.2151,5.226,5.2636,0.0,5.2895,5.2895,0.0,0.0,0.0,0.0,5.2895,5.2895,5.2895,5.2895,5.2895,5.2895,5.2895,5.2895,5.2895,5.2895,5.2895,5.2895,5.2895,5.2895,5.2895,5.2895,5.2895,0.0,0.0,5.2895,5.2895,5.2895,5.2895,5.2895,5.2895,5.2895,5.2895,5.2895,0.0,0.0,0.0,0.0,0.0,0.0,0.0,3.9697,3.9697,3.9697,3.9697,3.9697,3.9697,3.9697,3.9735,0.0,0.0,0.0,0.0,0.0,0.0,0.0,0.0,0.0,0.0,0.0,0.0,4.3014,4.3014,0.0,0.0,0.0,0.0,0.0,0.0,4.3014,4.3014,4.3014,0.0,0.0,0.0,0.0,0.0,0.0,0.0,0.0,0.0,4.3014,4.3014,4.3014,4.3014,4.3014,4.3014,4.3014,4.3014,4.3014,4.3014,4.3126,4.3639,4.4166,4.4679,4.5321,4.5874,4.625,4.6286,0.0,0.0,0.0,4.6737,4.7249,4.7792,4.84,4.8994,4.9515,5.0067,5.0578,5.1138,5.1724,5.2285,5.2787,0.0,0.0,5.2895,5.2895,0.0,0.0,0.0,0.0,5.2895,5.2895,5.2895,5.2895,5.2895,5.2895,5.2895,5.2895,5.2895,5.2895,5.2895,5.2895,5.2895,5.2895,5.2895,5.2895,5.2895,0.0,0.0,5.2895,5.2895,5.2895,5.2895,5.2895,5.2895,5.2895,5.2895,5.2895,0.0,0.0,0.0,0.0,0.0,0.0,3.9697,3.9697,3.9697,3.9697,3.9697,3.9697,3.9697,3.9697,3.9697,0.0,0.0,0.0,0.0,0.0,0.0,0.0,0.0,0.0,0.0,0.0,0.0,0.0,0.0,0.0,0.0,0.0,0.0,0.0,0.0,4.3014,4.3014,4.3014,0.0,0.0,0.0,0.0,0.0,0.0,0.0,0.0,0.0,0.0,4.3014,4.3014,4.3014,4.3014,4.3014,4.3014,4.3014,4.3014,4.3226,4.3589,4.4127,4.4704,4.5271,4.5849,4.615,4.6286,4.6286,0.0,4.6386,4.6697,4.7214,4.7767,4.835,4.8903,4.9355,4.9565,5.0343,5.1021,5.1264,5.2051,5.2661,5.287,5.2895,5.2895,0.0,0.0,5.2895,0.0,0.0,0.0,5.2895,5.2895,5.2895,5.2895,5.2895,5.2895,5.2895,5.2895,5.2895,5.2895,5.2895,5.2895,5.2895,5.2895,5.2895,5.2895,5.2895,0.0,0.0,5.2895,5.3088,5.3364,5.3364,5.3607,5.3926,5.3926,5.3926,5.3926,0.0,0.0,0.0,0.0,0.0,3.9697,3.9697,3.9697,3.9697,3.9697,3.9697,3.9697,3.9697,3.9697,3.9697,3.9697,0.0,0.0,0.0,0.0,0.0,0.0,0.0,0.0,0.0,0.0,0.0,0.0,0.0,0.0,0.0,0.0,0.0,0.0,0.0,0.0,0.0,0.0,0.0,0.0,0.0,0.0,0.0,0.0,0.0,0.0,0.0,0.0,0.0,0.0,0.0,4.3014,4.3014,4.3014,4.3025,4.3176,4.3489,4.3966,4.4679,4.5171,4.5638,4.6175,4.6286,4.6286,4.6286,0.0,4.6461,4.6998,4.7541,4.8083,4.8677,4.9229,4.964,4.9816,5.0661,5.1364,5.1515,5.231,5.2895,5.2895,5.2895,5.2895,0.0,5.2895,5.2895,0.0,0.0,0.0,5.2895,5.2895,5.2895,5.2895,5.2895,5.2895,5.2895,5.2895,5.2895,5.2895,5.2895,5.2895,5.2895,5.2895,5.2895,5.2895,0.0,0.0,0.0,5.3314,5.3632,5.3976,5.3976,5.4228,5.4597,5.4597,5.4597,5.4597,0.0,0.0,0.0,0.0,0.0,0.0,0.0,3.9697,3.9697,3.9697,3.9697,3.9697,3.9697,3.9697,3.9697,3.9697,0.0,0.0,0.0,0.0,0.0,0.0,0.0,0.0,0.0,0.0,0.0,0.0,0.0,0.0,0.0,0.0,0.0,0.0,0.0,0.0,0.0,0.0,0.0,0.0,0.0,0.0,0.0,0.0,0.0,0.0,0.0,0.0,0.0,0.0,0.0,0.0,0.0,4.3014,4.3101,4.3653,4.379,4.4041,4.5171,4.5487,4.5638,4.6175,4.6286,4.6286,0.0,0.0,4.6461,4.6998,4.7541,4.8083,4.8677,4.9229,4.9766,5.0302,5.0896,5.149,5.2026,5.2561,5.2895,5.2895,5.2895,5.2895,5.2895,5.2895,5.2895,0.0,0.0,0.0,5.2895,5.2895,5.2895,5.2895,5.2895,5.2895,5.2895,5.2895,5.2895,5.2895,5.2895,5.2895,5.2895,5.2895,5.2895,0.0,0.0,0.0,0.0,5.4328,5.4597,5.4597,5.4597,5.4597,5.4597,5.4597,5.4597,5.4597,0.0,0.0,0.0,0.0,0.0,0.0,0.0,3.9697,3.9697,3.9697,3.9697,3.9697,3.9697,3.9697,3.9697,3.9697,0.0,0.0,0.0,0.0,0.0,0.0,0.0,0.0,0.0,0.0,0.0,0.0,0.0,0.0,0.0,0.0,0.0,0.0,0.0,0.0,0.0,0.0,0.0,0.0,0.0,0.0,0.0,0.0,0.0,0.0,0.0,0.0,0.0,0.0,0.0,0.0,0.0,0.0,0.0,4.4077,4.4353,4.4529,4.5271,4.5788,4.61,4.6261,4.6286,4.6286,4.6286,4.6587,4.6998,4.7541,4.8109,4.8677,4.9254,4.9506,4.9766,5.0302,5.0896,5.149,5.2026,5.2561,5.2895,5.2895,5.2895,5.2895,0.0,0.0,5.2895,0.0,0.0,0.0,5.2895,5.2895,5.2895,5.2895,5.2895,5.2895,5.2895,5.2895,5.2895,5.2895,5.2895,5.3088,5.3439,5.3439,0.0,0.0,0.0,0.0,0.0,5.4522,5.4823,5.5157,5.5157,5.5383,5.5691,5.5691,5.5691,5.5691,0.0,0.0,0.0,0.0,0.0,0.0,0.0,3.9697,3.9697,3.9697,3.9697,3.9697,3.9697,3.9697,3.9697,3.9697,0.0,0.0,0.0,0.0,0.0,0.0,0.0,0.0,0.0,0.0,0.0,0.0,0.0,0.0,0.0,0.0,0.0,0.0,0.0,0.0,0.0,0.0,0.0,0.0,0.0,0.0,4.3014,0.0,0.0,0.0,0.0,0.0,0.0,0.0,0.0,0.0,0.0,0.0,0.0,0.0,4.4589,4.478,4.5573,4.605,4.6286,4.6286,4.6286,4.6286,4.6286,4.6697,4.7249,4.7792,4.8375,4.8953,4.949,4.959,4.9841,5.0619,5.1046,5.1565,5.2285,5.2686,5.2895,5.2895,5.2895,0.0,0.0,5.2895,0.0,0.0,0.0,0.0,5.2895,5.2895,5.2895,5.2895,5.2895,5.2895,5.2895,5.2895,5.3013,5.3213,5.3213,5.3507,5.4052,5.4052,0.0,0.0,0.0,0.0,0.0,5.5107,5.5408,5.5691,5.5691,5.5917,5.62,5.62,5.62,5.62,0.0,0.0,0.0,0.0,0.0,0.0,0.0,0.0,3.9697,3.9697,3.9697,3.9697,3.9697,3.9697,3.9697,3.9697,0.0,0.0,0.0,0.0,0.0,0.0,0.0,0.0,0.0,0.0,0.0,0.0,4.2174,4.2475,4.3014,0.0,0.0,0.0,0.0,0.0,0.0,0.0,0.0,0.0,0.0,0.0,0.0,0.0,0.0,0.0,0.0,0.0,0.0,0.0,0.0,0.0,0.0,0.0,0.0,0.0,0.0,0.0,0.0,4.6286,4.6286,4.6286,4.6286,4.6311,4.6336,4.6772,0.0,4.7842,4.8451,4.9003,4.9515,4.9615,5.0033,5.1113,5.1339,5.1716,5.2744,5.2895,5.2895,5.2895,5.2895,0.0,5.2895,5.2895,0.0,0.0,0.0,0.0,5.2895,5.2895,5.2895,5.2895,5.2937,5.2962,5.2962,5.2962,5.3239,5.3758,5.3758,5.4077,5.4672,5.4672,0.0,0.0,0.0,0.0,0.0,5.5993,5.62,5.62,5.62,5.62,5.62,5.62,5.62,5.62,0.0,0.0,0.0,0.0,0.0,0.0,0.0,0.0,0.0,0.0,3.9697,3.9697,3.9697,3.9697,3.9697,0.0,0.0,0.0,0.0,0.0,0.0,0.0,0.0,0.0,0.0,0.0,0.0,4.1517,4.1984,4.2475,4.3014,4.3014,0.0,0.0,0.0,0.0,0.0,0.0,0.0,0.0,0.0,0.0,0.0,0.0,0.0,0.0,4.3014,4.3014,0.0,0.0,0.0,0.0,0.0,0.0,0.0,0.0,4.4589,0.0,4.5984,0.0,4.6286,4.6286,4.6286,4.6411,0.0,4.734,4.7883,4.8476,4.9028,4.9455,4.9581,4.9941,5.0469,5.1188,5.1624,5.2151,5.2812,5.2895,5.2895,5.2895,5.2895,5.2895,5.2895,5.2895,0.0,0.0,0.0,5.2895,5.2895,5.2895,5.2895,5.2895,5.3289,5.349,5.349,5.349,5.3808,5.4396,5.4396,5.468,5.5207,5.5207,0.0,0.0,0.0,0.0,5.6018,5.615,5.62,5.62,5.62,5.62,5.62,5.62,5.62,5.62,0.0,0.0,0.0,0.0,0.0,0.0,0.0,0.0,0.0,0.0,0.0,0.0,0.0,0.0,0.0,0.0,0.0,0.0,0.0,0.0,0.0,0.0,0.0,0.0,0.0,0.0,0.0,0.0,0.0,4.2475,0.0,0.0,0.0,0.0,0.0,0.0,0.0,0.0,0.0,0.0,4.3014,0.0,0.0,0.0,0.0,0.0,4.3014,4.3014,0.0,4.3014,4.3014,4.3014,0.0,0.0,0.0,0.0,4.4589,4.4855,4.5984,4.6286,4.6286,4.6286,4.6486,4.6722,4.7023,4.7716,4.84,4.8727,4.9229,4.959,4.959,5.0042,5.0603,5.1214,5.1749,5.2302,5.282,5.2895,5.2895,5.2895,5.2895,5.2895,0.0,0.0,0.0,0.0,0.0,5.2895,5.2895,5.2895,5.2995,5.3264,5.3557,5.3708,5.3708,5.3959,5.4403,5.4956,5.4956,5.5257,5.5767,5.5767,5.5942,0.0,0.0,0.0,5.62,5.62,5.62,5.62,5.62,5.62,5.62,5.62,5.62,5.62,0.0,0.0,0.0,0.0,0.0,0.0,0.0,0.0,0.0,0.0,0.0,0.0,0.0,0.0,0.0,0.0,0.0,0.0,0.0,0.0,0.0,0.0,0.0,0.0,0.0,0.0,0.0,0.0,0.0,0.0,0.0,0.0,0.0,0.0,0.0,0.0,0.0,0.0,0.0,0.0,4.3014,0.0,0.0,0.0,0.0,0.0,0.0,0.0,0.0,4.3014,4.3014,4.3014,4.3014,0.0,0.0,0.0,0.0,0.0,4.601,4.6286,4.6286,4.6286,4.6712,4.7124,4.7199,4.8033,4.8818,4.8919,4.928,4.9631,4.9715,5.0167,5.0745,5.1339,5.1875,5.2385,5.2837,5.2895,5.2895,5.2895,5.2895,0.0,5.2895,0.0,0.0,0.0,0.0,5.2895,5.2895,5.2988,5.3239,5.3683,5.3858,5.3959,5.3959,5.4454,5.4981,5.5516,5.5516,5.5767,5.62,5.62,5.62,0.0,0.0,0.0,5.62,5.62,5.62,5.62,5.62,5.62,5.62,5.62,5.62,5.62,0.0,0.0,0.0,0.0,0.0,0.0,0.0,0.0,0.0,0.0,0.0,0.0,0.0,0.0,0.0,0.0,0.0,0.0,0.0,0.0,0.0,0.0,0.0,0.0,0.0,0.0,0.0,0.0,0.0,0.0,4.3014,4.3014,4.3014,0.0,0.0,0.0,0.0,0.0,0.0,0.0,0.0,0.0,0.0,0.0,0.0,0.0,0.0,0.0,0.0,4.3014,4.3014,4.3014,4.3014,0.0,0.0,0.0,0.0,0.0,4.6125,4.6286,4.6286,4.6286,4.6712,4.7224,4.7666,4.8325,4.8944,4.938,4.954,4.9741,5.0176,5.077,5.1322,5.19,5.2435,5.2812,5.2895,5.2895,5.2895,5.2895,0.0,5.2895,5.2895,0.0,0.0,0.0,0.0,5.2895,5.2895,5.3314,5.3607,5.3708,5.4637,5.5157,5.5157,5.5232,5.5559,5.6093,5.6093,5.61,5.62,5.62,5.62,0.0,0.0,5.62,5.62,5.62,5.62,5.62,5.62,5.62,5.62,5.62,5.62,5.62,0.0,0.0,0.0,0.0,0.0,0.0,0.0,0.0,0.0,0.0,0.0,0.0,0.0,0.0,0.0,0.0,0.0,0.0,0.0,0.0,0.0,0.0,0.0,0.0,0.0,0.0,0.0,0.0,0.0,4.2763,4.3014,4.3014,4.3014,4.3014,0.0,0.0,0.0,0.0,0.0,0.0,0.0,0.0,0.0,0.0,0.0,0.0,0.0,0.0,0.0,0.0,4.3014,4.3014,4.3014,0.0,0.0,0.0,0.0,0.0,4.6135,4.6286,4.6361,4.6662,4.7139,4.7666,4.8275,4.8827,4.9305,4.954,4.9841,5.0117,5.0352,5.1122,5.19,5.2435,5.2737,5.2895,5.2895,5.2895,5.2895,0.0,0.0,5.2895,0.0,0.0,0.0,0.0,0.0,0.0,5.2895,5.3389,5.3858,5.4177,5.4981,5.5559,5.5842,5.5842,5.5968,5.62,5.62,5.62,5.62,5.62,5.62,5.62,0.0,5.62,5.62,5.62,5.62,5.62,5.62,5.62,5.62,5.62,5.62,5.62,0.0,0.0,0.0,0.0,0.0,0.0,0.0,0.0,0.0,0.0,0.0,0.0,0.0,0.0,0.0,0.0,0.0,0.0,0.0,0.0,0.0,0.0,0.0,0.0,0.0,0.0,4.1731,4.2199,4.2738,4.3014,4.3014,4.3014,4.3014,0.0,0.0,0.0,0.0,0.0,0.0,0.0,0.0,0.0,0.0,0.0,0.0,0.0,0.0,0.0,0.0,0.0,0.0,0.0,0.0,0.0,0.0,4.4478,4.5106,4.5773,4.62,4.6386,4.6612,4.7149,4.7591,4.8058,4.8652,4.9204,4.9656,4.9766,5.0101,5.0477,5.0754,5.1607,5.241,5.282,5.2895,5.2895,5.2895,5.2895,0.0,0.0,0.0,0.0,0.0,0.0,0.0,0.0,0.0,0.0,5.3088,5.3607,5.4177,5.4773,5.5308,5.5792,5.6219,5.62,5.62,5.62,5.62,5.62,5.62,5.62,5.62,5.62,5.62,5.62,5.62,5.62,5.62,5.62,5.62,5.62,5.62,5.62,5.62,5.62,0.0,0.0,0.0,0.0,0.0,0.0,0.0,0.0,0.0,0.0,0.0,0.0,0.0,0.0,0.0,0.0,0.0,0.0,0.0,0.0,0.0,0.0,0.0,0.0,0.0,4.1569,4.2149,4.2199,4.2738,4.3014,4.3014,4.3014,4.3014,4.3014,0.0,0.0,0.0,0.0,0.0,0.0,0.0,0.0,0.0,0.0,0.0,0.0,0.0,0.0,0.0,0.0,0.0,0.0,0.0,0.0,4.4539,4.4589,4.5382,4.6235,4.6286,4.6662,4.7174,4.7716,4.7867,4.8058,4.8652,4.9204,4.9741,5.0226,0.0,0.0,5.1783,5.246,5.2862,5.2895,5.2895,5.2895,5.2895,0.0,0.0,0.0,0.0,0.0,0.0,0.0,0.0,0.0,0.0,0.0,5.3632,5.4202,5.478,5.5333,5.5867,5.615,5.62,5.62,5.62,5.62,5.62,5.62,5.62,5.62,5.62,5.62,5.62,5.62,5.62,5.62,5.62,5.62,5.62,5.62,5.62,5.62,5.62,5.62,0.0,0.0,0.0,0.0,0.0,0.0,0.0,0.0,0.0,0.0,0.0,0.0,0.0,0.0,0.0,0.0,0.0,0.0,0.0,0.0,0.0,0.0,0.0,4.1557,4.1557,4.1973,4.235,4.2688,4.2914,4.3014,4.3014,4.3014,0.0,0.0,0.0,0.0,0.0,0.0,0.0,0.0,0.0,0.0,0.0,0.0,0.0,0.0,0.0,0.0,0.0,0.0,4.3014,4.3065,4.3402,4.4001,4.4665,4.5045,4.5683,4.6361,4.6712,4.6948,4.7315,4.8234,4.8451,4.8601,4.9179,4.9439,4.9741,5.0277,5.0695,0.0,0.0,5.2744,5.2895,5.2895,5.2895,5.2895,5.2895,5.2895,0.0,0.0,0.0,0.0,0.0,0.0,0.0,0.0,0.0,0.0,5.3683,5.4604,5.5182,5.5408,5.5917,5.62,5.62,5.62,5.62,5.62,5.62,5.62,5.62,5.62,5.62,5.62,5.62,5.62,5.62,5.62,5.62,5.62,5.62,5.62,5.62,5.62,5.62,5.62,0.0,0.0,0.0,0.0,0.0,0.0,0.0,0.0,0.0,0.0,0.0,0.0,0.0,0.0,0.0,0.0,0.0,0.0,0.0,0.0,0.0,0.0,0.0,4.2274,4.245,4.2436,4.2637,4.3014,4.3014,4.3014,4.3014,0.0,0.0,0.0,0.0,0.0,0.0,0.0,0.0,0.0,0.0,0.0,0.0,0.0,0.0,0.0,0.0,0.0,0.0,0.0,4.3014,4.3076,4.3639,4.4177,4.4729,4.5321,4.5874,4.6411,4.6948,4.7224,4.7591,4.8551,4.8944,4.9179,4.9715,4.9866,5.0017,5.0569,5.1272,5.2026,5.2744,0.0,0.0,0.0,5.2895,5.2895,5.2895,5.2895,5.2895,0.0,0.0,0.0,0.0,0.0,0.0,0.0,0.0,0.0,0.0,5.4863,5.5483,5.5641,5.6018,5.62,5.62,5.62,5.62,5.62,5.62,5.62,5.62,5.62,5.62,5.62,5.62,5.62,5.62,5.62,5.62,5.62,5.62,5.62,5.62,5.62,5.62,5.62,0.0,0.0,0.0,0.0,0.0,0.0,0.0,0.0,0.0,0.0,0.0,0.0,0.0,0.0,0.0,0.0,0.0,0.0,0.0,0.0,0.0,0.0,0.0,4.245,4.2989,4.3014,4.3014,4.3014,4.3014,4.3014,4.3014,4.3014,0.0,0.0,0.0,0.0,0.0,0.0,0.0,0.0,0.0,0.0,0.0,0.0,0.0,0.0,0.0,0.0,0.0,0.0,4.3014,4.3101,4.3639,4.4177,4.4729,4.5321,4.5874,4.6436,4.6973,4.7516,4.8058,4.8667,4.9204,4.9741,5.0277,5.0402,5.0553,5.1188,5.2176,5.2895,5.2895,0.0,0.0,5.2895,5.2895,5.2895,5.2895,5.2895,5.2895,0.0,0.0,0.0,0.0,0.0,0.0,0.0,0.0,0.0,0.0,5.5107,5.5641,5.6175,5.62,5.62,5.62,5.62,5.62,5.62,5.62,5.62,5.62,5.62,5.62,5.62,5.62,5.62,5.62,5.62,5.62,5.62,5.62,5.62,5.62,5.62,5.62,5.62,0.0,0.0,0.0,0.0,0.0,0.0,0.0,0.0,0.0,0.0,0.0,0.0,0.0,0.0,0.0,0.0,0.0,0.0,0.0,0.0,0.0,0.0,0.0,0.0,0.0,0.0,4.3014,4.3014,4.3014,4.3014,0.0,0.0,0.0,4.3014,0.0,0.0,0.0,0.0,0.0,0.0,0.0,4.3014,0.0,0.0,0.0,0.0,0.0,0.0,0.0,0.0,0.0,0.0,4.4177,4.4754,4.5347,4.5899,4.6436,4.6973,4.7516,4.8083,4.8677,4.9229,4.948,4.9741,5.0277,5.0402,5.0678,5.1674,5.241,5.2895,5.2895,0.0,0.0,0.0,0.0,0.0,5.2895,5.2895,5.2895,5.2895,0.0,0.0,0.0,0.0,0.0,0.0,0.0,0.0,0.0,5.5666,5.6043,5.6175,5.62,5.62,5.62,5.62,5.62,5.62,5.62,5.62,5.62,5.62,5.62,5.62,5.62,5.62,5.62,5.62,5.62,5.62,5.62,5.62,5.62,5.62,5.62,5.62,0.0,0.0,0.0,0.0,0.0,0.0,0.0,0.0,0.0,0.0,0.0,0.0,0.0,0.0,0.0,0.0,0.0,0.0,0.0,0.0,0.0,0.0,0.0,0.0,0.0,4.3014,4.3014,0.0,0.0,0.0,0.0,0.0,0.0,4.3014,0.0,4.3014,0.0,0.0,0.0,4.3014,4.3014,4.3014,4.3014,0.0,0.0,0.0,0.0,0.0,0.0,0.0,0.0,0.0,4.4428,4.5006,4.5612,4.615,4.6687,4.7224,4.7741,4.835,4.8944,4.948,4.9766,5.0117,5.0904,5.1096,5.1331,5.2234,5.2686,5.2895,5.2895,5.2895,0.0,5.2895,0.0,0.0,0.0,5.2895,5.2895,5.2895,0.0,0.0,0.0,0.0,0.0,0.0,0.0,0.0,0.0,5.5917,5.62,5.62,5.62,5.62,5.62,5.62,5.62,5.62,5.62,5.62,5.62,5.62,5.62,5.62,5.62,5.62,5.62,5.62,5.62,5.62,5.62,5.62,5.62,5.62,5.62,5.62,0.0,0.0,0.0,0.0,0.0,0.0,0.0,0.0,0.0,0.0,0.0,0.0,0.0,0.0,0.0,0.0,0.0,0.0,0.0,0.0,0.0,0.0,0.0,0.0,0.0,0.0,0.0,0.0,0.0,0.0,0.0,0.0,4.3014,4.3014,0.0,4.3014,0.0,4.3014,4.3014,4.3014,4.3014,4.3014,4.3014,4.3014,0.0,0.0,0.0,0.0,0.0,0.0,0.0,0.0,4.4503,4.5095,4.5688,4.6175,4.6712,4.7274,4.7767,4.8375,4.8978,4.948,5.0042,5.0754,5.1833,5.2151,5.231,5.2812,5.2895,5.2895,5.2895,5.2895,5.2895,5.2895,5.2895,0.0,0.0,5.2895,5.2895,5.2895,0.0,0.0,0.0,0.0,0.0,0.0,0.0,0.0,0.0,5.5942,5.62,5.62,5.62,5.62,5.62,5.62,5.62,0.0,5.62,5.62,5.62,5.62,5.62,5.62,5.62,5.62,5.62,5.62,5.62,5.62,5.62,5.62,5.62,5.62,5.62,5.62,0.0,0.0,0.0,0.0,0.0,0.0,0.0,0.0,0.0,0.0,0.0,0.0,0.0,0.0,0.0,0.0,0.0,0.0,0.0,0.0,0.0,0.0,0.0,0.0,0.0,0.0,0.0,0.0,0.0,0.0,0.0,0.0,0.0,4.3014,0.0,4.3014,4.3014,4.3014,4.3014,4.3014,4.3014,4.3014,4.3014,4.3014,0.0,0.0,0.0,0.0,0.0,0.0,0.0,0.0,4.5121,4.5673,4.615,4.6261,4.6963,4.7741,4.7883,4.8636,4.9455,4.9565,5.036,5.1272,5.195,5.2435,5.2744,5.2887,5.2895,5.2895,5.2895,5.2895,5.2895,5.2895,5.2895,5.2895,0.0,0.0,0.0,0.0,0.0,0.0,0.0,0.0,0.0,0.0,0.0,0.0,5.5993,5.6143,5.62,5.62,5.62,5.62,5.62,5.62,5.62,0.0,5.62,5.62,5.62,5.62,5.62,5.62,5.62,5.62,5.62,5.62,5.62,5.62,5.62,5.62,5.62,5.62,5.62,5.62,0.0,0.0,0.0,0.0,0.0,0.0,0.0,0.0,0.0,0.0,0.0,0.0,0.0,0.0,0.0,0.0,0.0,0.0,0.0,0.0,0.0,0.0,0.0,0.0,0.0,0.0,0.0,0.0,0.0,0.0,0.0,0.0,0.0,4.3014,0.0,4.3014,4.3014,4.3014,4.3014,4.3014,4.3014,4.3014,4.3014,0.0,0.0,0.0,0.0,0.0,0.0,0.0,0.0,0.0,0.0,0.0,4.6336,4.6612,4.7265,4.7958,4.8234,4.8953,4.9715,5.0284,5.1063,5.1825,5.236,5.2711,5.2895,5.2895,5.2895,5.2895,5.2895,5.2895,5.2895,5.2895,5.2895,5.2895,5.2895,5.2895,0.0,0.0,0.0,0.0,0.0,0.0,0.0,0.0,0.0,5.5333,5.615,5.62,5.62,5.62,5.62,5.62,5.62,5.62,5.62,5.62,5.62,5.62,5.62,5.62,5.62,5.62,5.62,5.62,5.62,5.62,5.62,5.62,5.62,5.62,5.62,5.62,5.62,5.62,0.0,0.0,0.0,0.0,0.0,0.0,0.0,0.0,0.0,0.0,0.0,0.0,0.0,0.0,0.0,0.0,0.0,0.0,0.0,0.0,0.0,0.0,0.0,0.0,0.0,0.0,0.0,0.0,0.0,0.0,0.0,0.0,0.0,4.3014,0.0,0.0,4.3014,4.3014,4.3014,4.3014,4.3014,4.3014,0.0,0.0,0.0,0.0,0.0,0.0,0.0,0.0,0.0,0.0,0.0,0.0,4.6411,4.6948,4.749,4.8033,4.8626,4.9254,4.9992,5.1038,5.1699,5.2234,5.2787,5.2895,5.2895,5.2895,5.2895,5.2895,5.2895,5.2895,5.2895,5.2895,5.2895,5.2895,5.2895,5.2895,5.2895,0.0,0.0,0.0,0.0,0.0,0.0,0.0,0.0,5.5616,5.615,5.62,5.62,5.62,5.62,5.62,5.62,5.62,5.62,5.62,5.62,5.62,5.62,5.62,5.62,5.62,5.62,5.62,5.62,5.62,5.62,5.62,5.62,5.62,5.62,5.62,5.62,5.62,0.0,0.0,0.0,0.0,0.0,0.0,0.0,0.0,0.0,0.0,0.0,0.0,0.0,0.0,0.0,0.0,0.0,0.0,0.0,0.0,0.0,0.0,4.3014,0.0,0.0,0.0,0.0,0.0,0.0,0.0,0.0,0.0,0.0,4.3014,0.0,0.0,0.0,4.3014,4.3014,4.3014,4.3014,0.0,0.0,0.0,0.0,0.0,0.0,0.0,0.0,0.0,4.5386,0.0,0.0,0.0,4.6411,4.6948,4.749,4.8033,4.8626,4.9531,5.0469,5.1138,5.1699,5.2234,5.2787,5.2895,5.2895,5.2895,5.2895,5.2895,5.2895,5.2895,5.2895,5.2895,5.2895,5.2895,5.2895,5.2895,5.2895,5.2895,0.0,0.0,0.0,0.0,0.0,0.0,5.5107,5.5616,5.615,5.62,5.62,5.62,5.62,5.62,5.62,5.62,5.62,5.62,5.62,5.62,5.62,5.62,5.62,5.62,5.62,5.62,5.62,5.62,5.62,5.62,5.62,5.62,5.62,5.62,5.62,5.62,0.0,0.0,0.0,0.0,0.0,0.0,0.0,0.0,0.0,0.0,0.0,0.0,0.0,0.0,0.0,0.0,0.0,0.0,0.0,0.0,0.0,4.3014,4.3014,4.3014,4.3014,0.0,0.0,0.0,0.0,0.0,0.0,4.3014,4.3014,0.0,0.0,0.0,0.0,0.0,0.0,0.0,0.0,0.0,0.0,0.0,0.0,0.0,0.0,0.0,0.0,0.0,0.0,0.0,4.6225,0.0,0.0,0.0,4.7958,4.8526,4.9104,5.0058,5.0971,5.1239,5.1925,5.2611,5.2862,5.2895,5.2895,5.2895,5.2895,5.2895,5.2895,5.2895,5.2895,5.2895,5.2895,5.2895,5.2895,5.2895,5.2895,5.2895,0.0,0.0,0.0,0.0,0.0,0.0,5.5559,5.5968,5.6194,5.62,5.62,5.62,5.62,5.62,5.62,5.62,5.62,5.62,5.62,5.62,5.62,5.62,5.62,5.62,5.62,5.62,5.62,5.62,5.62,5.62,5.62,5.62,5.62,5.62,5.62,5.62,0.0,0.0,0.0,0.0,0.0,0.0,0.0,0.0,0.0,0.0,0.0,0.0,0.0,0.0,0.0,0.0,0.0,0.0,0.0,0.0,0.0,4.3014,4.3014,4.3014,4.3014,0.0,0.0,0.0,0.0,0.0,4.3014,4.3014,4.3014,0.0,4.3014,0.0,0.0,0.0,0.0,0.0,0.0,0.0,0.0,0.0,0.0,0.0,0.0,0.0,0.0,0.0,0.0,0.0,0.0,0.0,0.0,0.0,0.0,4.9079,4.9506,5.0435,5.1289,5.1289,5.2126,5.2895,5.2895,5.2895,5.2895,5.2895,5.2895,5.2895,5.2895,5.2895,5.2895,5.2895,5.2895,5.2895,5.2895,5.2895,5.2895,5.2895,5.2895,0.0,0.0,0.0,0.0,0.0,5.5892,5.62,5.62,5.62,5.62,5.62,5.62,5.62,5.62,5.62,5.62,5.62,5.62,5.62,5.62,5.62,5.62,5.62,5.62,5.62,5.62,5.62,5.62,5.62,5.62,5.62,5.62,5.62,5.62,5.62,0.0,0.0,0.0,0.0,0.0,0.0,0.0,0.0,0.0,0.0,0.0,0.0,0.0,0.0,0.0,0.0,0.0,0.0,0.0,0.0,0.0,4.3014,4.3014,0.0,4.3014,0.0,0.0,0.0,0.0,0.0,4.3014,4.3014,4.3014,4.3014,4.3014,4.3014,4.3014,0.0,0.0,0.0,0.0,0.0,0.0,0.0,0.0,0.0,0.0,0.0,0.0,0.0,0.0,0.0,0.0,0.0,0.0,0.0,0.0,0.0,4.959,5.0435,5.1289,5.1289,5.2126,5.2895,5.2895,5.2895,5.2895,5.2895,5.2895,5.2895,5.2895,5.2895,5.2895,5.2895,5.2895,5.2895,5.2895,5.2895,5.2895,5.2895,5.2895,5.3113,0.0,0.0,0.0,0.0,5.5892,5.62,5.62,5.62,5.62,5.62,5.62,5.62,5.62,5.62,5.62,5.62,5.62,5.62,5.62,5.62,5.62,5.62,5.62,5.62,5.62,5.62,5.62,5.62,5.62,5.62,5.62,5.62,5.62,5.62,0.0,0.0,0.0,0.0,0.0,0.0,0.0,0.0,0.0,0.0,0.0,0.0,0.0,0.0,0.0,0.0,0.0,0.0,0.0,0.0,0.0,4.3014,4.3014,4.3014,4.3014,0.0,0.0,0.0,0.0,4.3014,4.3014,4.3014,4.3014,4.3014,4.3014,4.3014,4.3014,4.3014,0.0,0.0,0.0,0.0,0.0,0.0,0.0,0.0,0.0,0.0,0.0,0.0,0.0,0.0,0.0,0.0,0.0,0.0,4.9455,4.9665,5.0017,5.0695,5.1389,5.1741,5.236,5.2895,5.2895,5.2895,5.2895,5.2895,5.2895,5.2895,5.2895,5.2895,5.2895,5.2895,5.2895,5.2895,5.2895,5.2895,5.2895,5.2895,5.2895,5.3264,0.0,0.0,0.0,0.0,0.0,5.62,5.62,5.62,5.62,5.62,5.62,5.62,5.62,5.62,5.62,5.62,5.62,5.62,5.62,5.62,5.62,5.62,5.62,5.62,5.62,5.62,5.62,5.62,5.62,5.62,5.62,5.62,5.62,5.62,0.0,0.0,0.0,0.0,0.0,0.0,0.0,0.0,0.0,0.0,0.0,0.0,0.0,0.0,0.0,0.0,0.0,4.3014,4.3014,4.3014,4.3014,4.3014,4.3014,4.3014,4.3014,0.0,0.0,0.0,0.0,0.0,0.0,4.3014,4.3014,4.3014,4.3176,0.0,0.0,0.0,0.0,4.4077,0.0,0.0,4.4945,0.0,0.0,0.0,0.0,0.0,0.0,0.0,0.0,0.0,0.0,0.0,0.0,0.0,0.0,0.0,5.0252,5.0845,5.144,5.1975,5.2511,5.2895,5.2895,5.2895,5.2895,5.2895,5.2895,5.2895,5.2895,5.2895,5.2895,5.2895,5.2895,5.2895,5.2895,5.2895,5.2895,5.2895,5.2895,5.3339,5.4496,0.0,0.0,0.0,0.0,0.0,5.62,5.62,5.62,5.62,5.62,5.62,5.62,5.62,5.62,5.62,5.62,5.62,5.62,5.62,5.62,5.62,5.62,5.62,5.62,5.62,5.62,5.62,5.62,5.62,5.62,5.62,5.62,5.62,0.0,0.0,0.0,0.0,0.0,0.0,0.0,0.0,0.0,0.0,0.0,0.0,0.0,0.0,0.0,0.0,4.3014,4.3014,4.3014,4.3014,4.3014,4.3014,0.0,0.0,0.0,0.0,0.0,0.0,0.0,0.0,0.0,0.0,4.3014,0.0,4.3578,4.3815,4.384,0.0,4.4127,4.4629,0.0,4.4995,4.5537,0.0,0.0,0.0,4.6923,4.7124,0.0,0.0,0.0,0.0,0.0,0.0,0.0,0.0,0.0,0.0,0.0,0.0,0.0,5.2,5.2511,5.2895,5.2895,5.2895,5.2895,5.2895,5.2895,5.2895,5.2895,5.2895,5.2895,5.2895,5.2895,5.2895,5.2895,5.2895,5.2895,5.2895,5.2895,5.3339,5.4454,0.0,0.0,0.0,5.6175,5.62,5.62,5.62,5.62,5.62,5.62,5.62,5.62,5.62,5.62,5.62,5.62,5.62,5.62,5.62,5.62,5.62,5.62,5.62,5.62,5.62,5.62,5.62,5.62,5.62,5.62,5.62,5.62,5.62,0.0,0.0,0.0,0.0,0.0,0.0,0.0,0.0,0.0,0.0,0.0,0.0,0.0,0.0,0.0,0.0,4.3014,4.3014,4.3014,4.3014,4.3014,4.3014,4.3014,4.3014,4.3014,0.0,0.0,0.0,0.0,0.0,0.0,0.0,0.0,0.0,4.374,4.4267,4.501,4.4554,0.0,0.0,4.5246,4.5573,0.0,0.0,0.0,0.0,0.0,4.7666,0.0,0.0,4.8551,4.8652,0.0,0.0,0.0,0.0,0.0,0.0,5.0896,0.0,0.0,0.0,0.0,0.0,5.2895,5.2895,5.2895,5.2895,5.2895,5.2895,5.2895,5.2895,5.2895,5.2895,5.2895,5.2895,5.2895,5.2895,5.2895,5.2895,5.2895,5.3188,5.3884,5.4328,0.0,0.0,5.5993,5.62,5.62,5.62,5.62,5.62,5.62,5.62,5.62,5.62,5.62,5.62,5.62,5.62,5.62,5.62,5.62,5.62,5.62,5.62,5.62,5.62,5.62,5.62,5.62,5.62,5.62,5.62,5.62,5.62,0.0,0.0,0.0,0.0,0.0,0.0,0.0,0.0,0.0,0.0,0.0,0.0,0.0,0.0,0.0,0.0,4.3014,4.3014,4.3014,4.3014,4.3014,4.3014,4.3014,4.3014,4.3014,4.3014,0.0,0.0,0.0,0.0,0.0,0.0,0.0,0.0,0.0,0.0,0.0,0.0,0.0,0.0,4.6075,0.0,0.0,4.7239,4.7425,0.0,0.0,0.0,4.836,4.8928,4.9129,0.0,0.0,0.0,0.0,0.0,0.0,0.0,0.0,0.0,0.0,0.0,0.0,0.0,5.2895,5.2895,5.2895,5.2895,5.2895,5.2895,5.2895,5.2895,5.2895,5.2895,5.2895,5.2895,5.2895,5.2895,5.2895,5.2895,5.2895,5.3113,5.3658,5.4253,5.4805,5.5358,5.5892,5.62,5.62,5.62,5.62,5.62,5.62,5.62,5.62,5.62,5.62,5.62,5.62,5.62,5.62,5.62,5.62,5.62,5.62,5.62,5.62,5.62,5.62,5.62,5.62,5.62,5.62,5.62,5.62,5.62,0.0,0.0,0.0,0.0,0.0,0.0,0.0,0.0,0.0,0.0,0.0,0.0,0.0,0.0,0.0,0.0,4.3014,4.3014,4.3014,4.3014,4.3014,4.3014,4.3014,4.3014,4.3014,4.3014,4.3014,0.0,0.0,0.0,0.0,0.0,0.0,0.0,0.0,0.0,0.0,0.0,0.0,4.6436,4.6898,4.7149,0.0,0.0,4.8008,0.0,4.8677,4.8894,4.8969,4.9515,4.9715,0.0,0.0,0.0,0.0,0.0,5.0528,0.0,0.0,0.0,0.0,0.0,0.0,0.0,5.2895,5.2895,5.2895,5.2895,5.2895,5.2895,5.2895,5.2895,5.2895,5.2895,5.2895,5.2895,5.2895,5.2895,5.2895,5.2895,5.2895,5.3088,5.354,5.4152,5.4748,5.5282,5.5867,5.62,5.62,5.62,5.62,5.62,5.62,5.62,5.62,5.62,5.62,5.62,5.62,5.62,5.62,5.62,5.62,5.62,5.62,5.62,5.62,5.62,5.62,5.62,5.62,5.62,5.62,5.62,5.62,5.62,0.0,0.0,0.0,0.0,0.0,0.0,0.0,0.0,0.0,0.0,0.0,0.0,0.0,0.0,0.0,0.0,0.0,4.3014,0.0,4.3014,4.3014,4.3014,4.3014,4.3014,4.3014,4.3014,4.3014,4.3014,4.3427,4.3689,0.0,0.0,0.0,0.0,0.0,0.0,0.0,0.0,0.0,4.6948,4.7074,0.0,4.7817,4.84,4.8626,4.8718,4.9254,4.9455,4.9531,0.0,5.0569,5.0962,0.0,0.0,0.0,0.0,0.0,0.0,0.0,0.0,0.0,0.0,0.0,0.0,5.2895,5.2895,5.2895,5.2895,5.2895,5.2895,5.2895,5.2895,5.2895,5.2895,5.2895,5.2895,5.2895,5.2895,5.2895,5.2895,5.2895,5.2945,5.3063,5.3557,5.4127,5.4723,5.5641,5.62,5.62,5.62,5.62,5.62,5.62,5.62,5.62,5.62,5.62,5.62,5.62,5.62,5.62,5.62,5.62,5.62,5.62,5.62,5.62,5.62,5.62,5.62,5.62,5.62,5.62,5.62,5.62,5.62,0.0,0.0,0.0,0.0,0.0,0.0,0.0,0.0,0.0,0.0,0.0,0.0,0.0,0.0,0.0,0.0,0.0,0.0,0.0,0.0,4.3014,4.3014,4.3014,4.3126,4.3402,4.3402,4.3528,4.379,4.4066,4.4353,4.4644,0.0,0.0,0.0,0.0,0.0,0.0,0.0,4.7666,4.7958,4.7958,0.0,4.8426,4.8978,4.938,4.9615,4.9916,5.0193,5.0485,5.077,5.1063,0.0,0.0,5.1289,5.1364,0.0,5.19,5.2176,0.0,0.0,0.0,5.2895,0.0,0.0,0.0,5.2895,5.2895,5.2895,5.2895,5.2895,5.2895,5.2895,5.2895,5.2895,5.2895,5.2895,5.2895,5.2895,5.2895,5.2895,5.2895,5.2895,5.2895,5.3389,5.4059,5.4931,5.5509,5.5917,5.6194,5.62,5.62,5.62,5.62,5.62,5.62,5.62,5.62,5.62,5.62,5.62,5.62,5.62,5.62,5.62,5.62,5.62,5.62,5.62,5.62,5.62,5.62,5.62,5.62,5.62,5.62,5.62,0.0,0.0,0.0,0.0,0.0,0.0,0.0,0.0,0.0,0.0,0.0,0.0,0.0,0.0,0.0,0.0,0.0,0.0,0.0,0.0,4.3302,4.3302,4.3302,4.3514,4.394,4.3966,4.4177,4.4589,4.4729,4.5006,4.5497,4.5698,0.0,0.0,0.0,0.0,0.0,0.0,0.0,4.8818,0.0,4.9104,4.9154,4.959,5.0092,5.0553,5.0553,5.0946,5.1465,5.1465,0.0,5.1599,5.1599,5.1599,0.0,0.0,0.0,0.0,0.0,0.0,0.0,0.0,0.0,5.2895,0.0,0.0,0.0,5.2895,5.2895,5.2895,5.2895,5.2895,5.2887,5.2744,5.282,5.2845,0.0,5.282,0.0,5.2895,5.2895,5.2895,5.2895,5.3389,5.4084,5.4988,5.5282,5.5591,5.6018,5.6125,5.62,5.62,5.62,5.62,5.62,5.62,5.62,5.62,5.62,5.62,5.62,5.62,5.62,5.62,5.62,5.62,5.62,5.62,5.62,5.62,5.62,5.62,5.62,5.62,5.62,5.62,4.3014,4.3014,0.0,0.0,0.0,0.0,0.0,0.0,0.0,0.0,0.0,0.0,0.0,0.0,0.0,0.0,0.0,0.0,4.3714,0.0,0.0,4.4428,4.4428,4.4453,4.4503,4.4514,4.4554,4.4589,4.5146,4.5422,4.5537,4.6486,4.6948,0.0,4.7566,0.0,0.0,0.0,4.8743,0.0,4.9841,5.0201,0.0,5.0277,5.067,5.1214,5.1214,5.1548,5.2026,0.0,5.2327,5.2711,0.0,5.2711,0.0,0.0,0.0,0.0,0.0,0.0,0.0,0.0,5.2895,0.0,0.0,0.0,5.2895,5.2895,0.0,5.2895,5.2895,0.0,0.0,0.0,0.0,0.0,5.226,5.2611,5.2895,5.2895,5.2895,5.2895,5.2895,5.3389,5.3758,5.3884,5.4813,5.5433,5.5509,5.5942,5.62,5.62,5.62,5.62,5.62,5.62,5.62,5.62,5.62,5.62,5.62,5.62,5.62,5.62,5.62,5.62,5.62,5.62,5.62,5.62,5.62,5.62,5.62,5.62,5.62,5.62,0.0,0.0,0.0,0.0,0.0,0.0,0.0,0.0,0.0,0.0,0.0,0.0,0.0,0.0,0.0,0.0,0.0,0.0,0.0,0.0,0.0,0.0,4.4589,0.0,4.5121,4.5121,4.5257,4.5583,4.616,4.6436,4.6436,4.7214,4.7566,4.7591,4.8174,0.0,4.8476,0.0,4.9715,0.0,0.0,0.0,0.0,5.1046,5.1272,5.18,5.2126,5.236,5.2561,0.0,5.2694,0.0,0.0,0.0,0.0,0.0,0.0,0.0,0.0,0.0,0.0,0.0,0.0,0.0,0.0,0.0,5.2895,0.0,0.0,0.0,0.0,0.0,0.0,0.0,5.2744,0.0,0.0,0.0,5.2895,5.2895,0.0,0.0,5.2895,5.3113,5.3364,5.3683,5.4479,5.5056,5.5383,5.5917,5.62,5.62,5.62,5.62,5.62,5.62,5.62,5.62,5.62,5.62,5.62,5.62,5.62,5.62,5.62,5.62,5.62,5.62,5.62,5.62,5.62,5.62,5.62,5.62,5.62,5.62,0.0,0.0,0.0,0.0,0.0,0.0,0.0,0.0,0.0,0.0,0.0,0.0,4.4016,4.4378,0.0,0.0,0.0,4.4855,0.0,0.0,4.5116,0.0,0.0,0.0,0.0,4.6165,4.6351,4.6737,4.7139,4.7324,4.7324,4.7883,4.8134,4.8184,4.8928,4.9229,4.9305,0.0,5.0645,5.0695,5.1272,5.185,5.2277,5.1875,5.1975,5.236,5.2744,5.2895,5.2895,5.2895,5.2895,0.0,5.2895,0.0,0.0,0.0,0.0,0.0,5.2895,0.0,0.0,0.0,0.0,0.0,0.0,0.0,0.0,0.0,0.0,0.0,0.0,0.0,0.0,0.0,0.0,5.2845,0.0,5.2812,0.0,0.0,0.0,0.0,0.0,5.2895,5.3063,5.3439,5.4027,5.4604,5.5157,5.5691,5.6068,5.6219,5.62,5.62,5.62,5.62,5.62,5.62,5.62,5.62,5.62,5.62,5.62,5.62,5.62,5.62,5.62,5.62,5.62,5.62,5.62,5.62,5.62,5.62,5.62,5.62,0.0,4.3014,0.0,0.0,0.0,0.0,0.0,0.0,0.0,0.0,0.0,0.0,0.0,0.0,0.0,0.0,0.0,4.5487,4.5487,0.0,4.6486,0.0,0.0,0.0,0.0,0.0,4.7817,4.7857,4.7883,4.7867,4.7892,4.8501,4.8768,4.8818,4.9891,5.0352,5.0377,5.1013,5.1264,5.1314,5.185,5.2385,5.287,0.0,5.2845,5.2887,5.2895,0.0,0.0,5.2895,5.2895,0.0,0.0,0.0,0.0,0.0,0.0,0.0,0.0,0.0,0.0,0.0,0.0,0.0,0.0,0.0,5.2895,0.0,0.0,0.0,0.0,0.0,0.0,0.0,0.0,0.0,0.0,0.0,0.0,0.0,0.0,0.0,0.0,5.2895,5.2895,5.292,5.3414,5.4002,5.4597,5.5132,5.5666,5.6175,5.62,5.62,5.62,5.62,5.62,5.62,5.62,5.62,5.62,5.62,5.62,5.62,5.62,5.62,5.62,5.62,5.62,5.62,5.62,5.62,5.62,5.62,5.62,5.62,0.0,0.0,0.0,0.0,0.0,0.0,0.0,4.4328,0.0,0.0,0.0,0.0,0.0,0.0,4.6396,0.0,0.0,4.7079,4.7079,4.7255,0.0,0.0,0.0,4.7716,0.0,0.0,0.0,0.0,4.83,4.8501,4.8526,4.9414,4.9866,4.9891,5.0645,5.1013,0.0,0.0,0.0,0.0,0.0,5.2737,5.2895,0.0,0.0,5.2895,5.2895,5.2895,0.0,5.2895,5.2895,5.2895,5.2895,5.2895,5.2895,5.2895,5.2895,0.0,0.0,0.0,5.2895,5.2895,0.0,0.0,0.0,0.0,0.0,0.0,0.0,0.0,0.0,0.0,0.0,0.0,0.0,0.0,0.0,0.0,0.0,0.0,0.0,0.0,0.0,0.0,5.2895,5.2895,5.3389,5.3783,5.3984,5.4906,5.5483,5.5666,5.6,5.62,5.62,5.62,5.62,5.62,5.62,5.62,5.62,5.62,5.62,5.62,5.62,5.62,5.62,5.62,5.62,5.62,5.62,5.62,5.62,5.62,5.62,5.62,4.4589,0.0,0.0,0.0,0.0,0.0,0.0,0.0,0.0,0.0,4.5984,0.0,4.6813,0.0,4.75,0.0,4.7908,4.7908,4.7908,4.7908,0.0,4.8209,4.8209,0.0,0.0,0.0,0.0,0.0,0.0,4.938,4.9405,5.0293,5.072,5.0745,5.1322,5.1574,5.1615,5.2176,5.2385,0.0,0.0,5.2895,0.0,0.0,5.2895,5.2895,0.0,5.2895,5.2895,5.2895,5.2895,5.2895,5.2895,5.2895,5.2895,5.2895,5.2895,5.2895,5.2895,5.2895,0.0,5.2895,5.2895,0.0,5.2895,0.0,0.0,0.0,0.0,0.0,0.0,0.0,0.0,0.0,0.0,0.0,0.0,5.2895,0.0,0.0,0.0,0.0,0.0,5.2895,5.2895,5.2895,5.3213,5.3507,0.0,0.0,5.4963,5.5383,5.5742,5.6018,5.62,5.62,5.62,5.62,5.62,5.62,5.62,5.62,5.62,5.62,5.62,5.62,5.62,5.62,5.62,5.62,5.62,5.62,5.62,5.62,5.62,5.62,0.0,0.0,0.0,0.0,4.4715,0.0,0.0,0.0,4.6562,0.0,4.7591,4.7908,4.7942,4.7942,4.7983,4.8033,4.8018,0.0,4.8083,4.8083,0.0,0.0,4.8919,4.9154,4.9665,0.0,0.0,0.0,0.0,5.0452,5.0452,5.1046,5.1339,5.1364,5.19,5.2151,5.2176,5.2686,5.2895,5.2895,5.2895,5.2895,5.2895,5.2895,5.2895,5.2895,5.2895,5.2895,5.2895,5.2895,5.2895,5.2895,5.2895,5.2895,5.2895,5.2895,5.2895,5.2895,5.2895,5.2895,5.2895,5.2895,0.0,0.0,0.0,0.0,5.2895,0.0,0.0,0.0,0.0,0.0,0.0,0.0,0.0,0.0,0.0,0.0,0.0,0.0,0.0,0.0,0.0,5.2895,5.2895,5.2895,5.2895,5.3113,0.0,0.0,5.421,5.5333,5.5383,5.5641,5.6175,5.62,5.62,5.62,5.62,5.62,5.62,5.62,5.62,5.62,5.62,5.62,5.62,5.62,5.62,5.62,5.62,5.62,5.62,5.62,5.62,5.62,4.6963,4.7039,4.7039,0.0,4.6386,4.6185,0.0,0.0,0.0,0.0,4.7817,4.8083,4.8526,4.8576,4.8903,4.9674,4.975,0.0,0.0,0.0,0.0,5.0636,5.0661,5.0711,5.0862,5.0862,0.0,5.0862,0.0,5.1063,5.1071,5.1624,5.19,5.1925,5.246,5.2686,5.2711,5.2845,5.2895,5.2895,5.2895,5.2895,0.0,0.0,5.2895,5.2895,5.2895,5.2895,5.2895,5.2895,5.2895,5.2895,5.2895,5.2895,5.2895,5.2895,5.2895,5.2895,5.2895,5.2895,5.2895,5.2895,5.2895,5.2895,0.0,0.0,0.0,0.0,0.0,0.0,0.0,0.0,0.0,0.0,0.0,0.0,0.0,0.0,0.0,5.2895,0.0,0.0,5.2895,5.2895,5.2895,5.2895,5.2895,5.2945,0.0,0.0,0.0,5.4798,5.5182,5.5641,5.6175,5.62,5.62,5.62,5.62,5.62,5.62,5.62,5.62,5.62,5.62,5.62,5.62,5.62,5.62,5.62,5.62,5.62,5.62,5.62,5.62,5.62,4.7842,0.0,0.0,4.8234,0.0,0.0,4.7867,0.0,0.0,4.8611,4.8862,0.0,4.9832,4.9882,5.0134,5.0745,5.0795,0.0,0.0,0.0,0.0,5.1289,5.1289,5.1289,5.1289,5.1289,0.0,5.1289,0.0,0.0,5.1649,5.2201,5.246,5.246,5.2762,5.2895,5.2895,5.2895,5.2895,5.2895,5.2895,0.0,0.0,5.2895,5.2895,5.2895,5.2895,5.2895,5.2895,5.2895,5.2895,5.2895,5.2895,5.2895,5.2895,5.2895,5.2895,5.2895,5.2895,5.2895,5.2895,5.2895,5.2895,5.2895,5.2895,5.2895,5.2895,0.0,0.0,0.0,0.0,0.0,0.0,0.0,0.0,0.0,0.0,0.0,0.0,0.0,5.2895,0.0,5.2895,5.2895,5.2895,5.2895,5.2895,0.0,0.0,0.0,0.0,5.4177,5.4755,5.5308,5.5842,5.6093,5.62,5.62,5.62,5.62,5.62,5.62,5.62,5.62,5.62,5.62,5.62,5.62,5.62,5.62,5.62,5.62,5.62,5.62,5.62,5.62,0.0,0.0,0.0,0.0,0.0,0.0,0.0,4.8802,0.0,4.9766,0.0,5.072,5.1239,5.1289,5.1339,5.1389,0.0,5.144,5.1498,5.1515,5.1515,5.1515,5.1515,5.1515,5.1515,5.1515,0.0,0.0,0.0,0.0,5.2209,5.2686,5.2895,5.2895,5.2895,5.2895,5.2895,5.2895,5.2895,5.2895,5.2895,5.2895,5.2895,5.2895,5.2945,5.2995,5.2995,5.2945,5.2895,5.2895,5.2895,5.2895,5.2895,5.2895,5.2895,5.2895,5.2895,5.2895,5.2895,5.2895,5.2895,5.2895,5.2895,5.2895,5.2895,5.2895,5.2895,5.2895,5.2895,5.2895,0.0,0.0,0.0,0.0,0.0,0.0,0.0,0.0,0.0,0.0,0.0,0.0,5.2895,5.2895,5.2895,5.2895,0.0,0.0,0.0,0.0,0.0,5.3683,5.4278,5.4873,5.5408,0.0,5.62,5.62,5.62,5.62,5.62,5.62,5.62,5.62,5.62,5.62,5.62,5.62,5.62,5.62,5.62,5.62,5.62,5.62,5.62,5.62,0.0,0.0,0.0,0.0,0.0,5.2514,5.0941,5.0787,5.0887,5.0987,5.1088,5.1188,5.1289,5.1289,5.149,5.1925,5.195,0.0,0.0,0.0,0.0,5.2611,5.2611,5.2611,5.2611,5.2611,5.2611,0.0,0.0,0.0,5.2744,5.2845,5.2895,5.2895,5.2895,5.2895,5.2895,5.2895,0.0,5.2895,5.2895,5.2895,5.2895,5.2895,5.3163,5.3557,5.3557,5.3264,5.2895,5.2895,5.2895,5.2895,5.2895,5.2895,5.2895,5.2895,5.2895,5.2895,5.2895,5.2895,5.2895,5.2895,5.2895,5.2895,5.2895,5.2895,5.2895,5.2895,5.2895,5.2895,5.2895,0.0,0.0,0.0,0.0,0.0,0.0,0.0,0.0,0.0,0.0,0.0,0.0,5.2895,5.2895,0.0,0.0,0.0,0.0,0.0,0.0,0.0,5.4278,0.0,0.0,0.0,5.62,5.62,5.62,5.62,5.62,5.62,5.62,5.62,5.62,5.62,5.62,5.62,5.62,5.62,5.62,5.62,5.62,5.62,5.62,5.62,0.0,0.0,0.0,0.0,0.0,0.0,0.0,5.403,0.0,5.1976,5.1699,5.1825,5.2101,5.2126,5.2234,5.2485,5.2511,5.2636,5.287,5.2895,5.2895,5.2895,5.2895,0.0,5.2895,0.0,5.2895,5.2895,0.0,0.0,0.0,5.2895,5.2895,5.2895,5.2895,5.2895,5.2895,0.0,0.0,5.3314,5.3314,5.349,5.3783,5.3783,5.3934,5.4177,5.4177,5.4002,5.3783,5.3783,5.3783,5.3783,5.3783,5.3783,5.3783,5.3783,5.3783,5.3783,5.3783,5.3557,5.3314,5.3314,5.3113,5.2895,5.2895,5.2895,5.2895,5.2895,5.2895,5.2895,5.2895,5.2895,0.0,0.0,0.0,0.0,0.0,0.0,0.0,0.0,0.0,0.0,0.0,0.0,0.0,0.0,0.0,0.0,0.0,0.0,0.0,0.0,0.0,0.0,0.0,0.0,0.0,5.62,5.62,5.62,5.62,5.62,5.62,5.62,5.62,5.62,5.62,5.62,5.62,5.62,5.62,5.62,5.62,5.62,5.62,5.62,0.0,5.2098,0.0,0.0,5.5349,0.0,5.5382,5.7152,5.7145,5.3297,5.2801,5.2962,5.3393,5.311,5.2895,5.2895,5.2895,5.2895,5.2895,5.2895,5.2895,5.2895,5.2895,5.2895,5.2895,5.2895,5.2895,0.0,0.0,0.0,0.0,0.0,5.2895,5.2895,5.2895,0.0,0.0,0.0,5.3389,5.3884,5.3884,5.4177,5.4597,5.4597,5.4672,5.4773,5.4773,5.4848,5.4931,5.4931,5.4798,5.4597,5.4597,5.4597,5.4597,5.4597,5.4597,5.4597,5.4597,5.4253,5.3884,5.3884,5.3565,5.3264,5.3264,5.3163,5.3063,5.3063,5.2988,5.2895,5.2895,5.2895,0.0,0.0,0.0,0.0,0.0,0.0,0.0,0.0,0.0,0.0,0.0,0.0,0.0,0.0,0.0,0.0,5.2895,0.0,0.0,0.0,0.0,5.4597,5.4597,0.0,5.62,0.0,5.62,5.62,5.62,5.62,5.62,5.62,5.62,5.62,5.62,5.62,5.62,5.62,5.62,5.62,5.62,5.62,5.62,5.62,0.0,0.0,0.0,0.0,0.0,0.0,5.7894,5.9153,5.903,5.5538,5.5102,5.5102,5.5155,5.3827,5.2895,5.2895,5.2895,5.2895,5.2895,5.2895,5.2895,5.2895,5.2895,5.2895,5.2895,5.2895,5.2895,0.0,0.0,0.0,0.0,0.0,0.0,0.0,0.0,0.0,0.0,5.3632,5.3976,5.4522,5.4522,5.4547,5.4597,5.4597,5.4906,5.5333,5.5333,5.5641,5.6068,5.6068,5.539,5.4597,5.4597,5.4597,5.4597,5.4597,5.4597,5.4597,5.4597,5.4572,5.4522,5.4522,5.4471,5.4446,5.4446,5.4027,5.3632,5.3632,5.3239,5.2895,5.2895,5.2895,5.2895,0.0,0.0,0.0,0.0,0.0,0.0,0.0,0.0,0.0,0.0,5.2895,0.0,0.0,5.2895,0.0,0.0,0.0,0.0,5.2895,0.0,5.4597,5.4597,5.5666,5.62,5.62,5.62,5.62,5.62,5.62,5.62,5.62,5.62,5.62,5.62,5.62,5.62,5.62,5.62,5.62,5.62,5.62,5.62,5.62,0.0,0.0,0.0,0.0,0.0,0.0,0.0,6.0974,6.1184,5.8765,5.7596,5.6553,5.5518,5.4782,5.4004,5.2998,5.2895,5.2895,5.2895,5.2895,5.2895,5.2895,5.2895,5.2895,5.2895,5.2895,5.2895,0.0,0.0,0.0,0.0,0.0,0.0,0.0,0.0,5.4052,5.4228,5.4228,5.4554,5.5082,5.5082,5.5282,5.5541,5.5541,5.5691,5.5892,5.5892,5.6018,5.62,5.62,5.5917,5.5541,5.5541,5.5541,5.5541,5.5541,5.5541,5.5541,5.5541,5.5333,5.5082,5.5082,5.4848,5.4597,5.4597,5.4403,5.4228,5.4228,5.3783,5.3364,5.3364,5.3113,5.2895,0.0,0.0,0.0,0.0,0.0,0.0,0.0,0.0,0.0,0.0,0.0,0.0,0.0,0.0,0.0,0.0,0.0,0.0,5.3364,0.0,5.4748,5.5082,5.5817,5.62,5.62,5.62,5.62,5.62,5.62,5.62,5.62,5.62,5.62,5.62,5.62,5.62,5.62,5.62,5.62,5.62,5.62,5.62,5.62,5.865,0.0,5.9287,0.0,6.1273,6.1273,6.1273,6.2454,6.291,6.1699,6.0666,5.9056,5.6461,5.5281,5.4181,5.299,5.2895,5.2895,5.2895,5.2895,5.297,5.3138,5.3138,0.0,5.3406,5.3389,5.3389,5.3389,5.3389,0.0,0.0,0.0,0.0,0.0,5.4403,5.4697,5.4848,5.4848,5.5132,5.5659,5.5659,5.5867,5.62,5.62,5.62,5.62,5.62,5.62,5.62,5.62,5.62,5.62,5.62,5.62,5.62,5.62,5.62,5.62,5.62,5.5917,5.5659,5.5659,5.5358,5.5056,5.5056,5.4956,5.4798,5.4622,5.4253,5.3959,5.3959,5.3507,5.3138,5.3138,0.0,0.0,0.0,0.0,0.0,0.0,0.0,5.2895,5.2895,5.2895,0.0,0.0,0.0,0.0,0.0,0.0,0.0,0.0,0.0,0.0,0.0,5.5942,5.62,5.62,5.62,5.62,5.62,5.62,5.62,5.62,5.62,5.62,5.62,5.62,5.62,5.62,5.62,5.62,5.62,5.62,5.62,5.62,6.0146,6.0465,6.1005,6.2774,6.3079,6.3079,6.3079,6.3588,6.3977,6.3947,6.4516,6.3126,5.8491,5.4951,5.2929,5.2895,5.2895,5.2895,5.2895,5.2895,5.3138,0.0,0.0,5.3976,5.4572,5.4572,5.4572,5.4572,0.0,0.0,5.4572,0.0,5.4572,5.4597,5.4597,5.4881,5.5408,5.5408,5.5691,5.6175,5.6175,5.6175,5.62,5.62,5.62,5.62,5.62,5.62,5.62,5.62,5.62,5.62,5.62,5.62,5.62,5.62,5.62,5.62,5.62,5.6219,5.6175,5.6175,5.6194,5.6175,5.6175,5.5767,5.5232,5.4723,5.4597,5.4597,5.4597,5.4102,5.3683,5.3683,0.0,0.0,0.0,0.0,0.0,0.0,5.2895,5.2895,5.2895,5.2895,0.0,0.0,0.0,0.0,0.0,0.0,0.0,5.3708,5.4805,0.0,5.5408,5.5942,5.62,5.62,5.62,5.62,5.62,5.62,5.62,5.62,5.62,5.62,5.62,5.62,5.62,5.62,5.62,5.62,5.62,5.62,5.62,5.62,6.2175,6.2588,6.3076,6.3634,6.4096,6.4411,6.4411,6.456,6.468,6.468,6.387,6.2744,6.1227,5.8994,5.7154,0.0,5.4769,5.4077,0.0,5.4077,5.4127,5.4321,5.4303,5.4403,5.4597,5.4597,5.4597,5.4597,0.0,0.0,0.0,5.4956,5.5157,5.5157,5.5516,5.5792,5.5942,5.5942,5.6043,5.62,5.62,5.62,5.62,5.62,5.62,5.62,5.62,5.62,5.62,5.62,5.62,5.62,5.62,5.62,5.62,5.62,5.62,5.62,5.62,5.62,5.62,5.62,5.62,5.62,5.62,5.6068,5.5892,5.5717,5.5408,5.5157,5.5157,5.468,5.4303,5.4303,5.4177,0.0,0.0,0.0,0.0,0.0,5.2895,5.2895,0.0,5.2895,0.0,0.0,0.0,0.0,0.0,0.0,0.0,0.0,5.5189,0.0,5.5942,5.61,5.62,5.62,5.62,5.62,5.62,5.62,5.62,5.62,5.62,5.62,5.62,5.62,5.62,5.62,5.62,5.62,5.62,5.62,5.62,5.62,6.3797,6.4126,6.4381,6.4381,6.474,6.4994,6.4994,6.5203,6.5398,6.5398,6.4685,6.4203,6.4203,6.2578,0.0,5.7554,5.5629,5.4597,5.4597,5.4597,5.4697,5.4898,5.4906,5.4981,5.5207,0.0,0.0,5.5207,5.5207,5.5207,5.5207,5.5541,5.5691,5.5717,5.6068,5.62,5.62,5.62,5.62,5.62,5.62,5.62,5.62,5.62,5.62,5.62,5.62,5.62,5.62,5.62,5.62,5.62,5.62,5.62,5.62,5.62,5.62,5.62,5.62,5.62,5.62,5.62,5.62,5.62,5.62,5.62,5.62,5.62,5.5942,5.5691,5.5691,5.5257,5.4906,5.4906,5.4723,5.4471,5.4102,0.0,0.0,0.0,0.0,0.0,0.0,5.3532,0.0,0.0,0.0,0.0,0.0,0.0,0.0,5.5383,5.5609,0.0,5.62,5.62,5.62,5.62,5.62,5.62,5.62,5.62,5.62,5.62,5.62,5.62,5.62,5.62,5.62,5.62,5.62,5.62,5.62,5.62,5.62,5.62,6.4994,6.5024,6.5084,0.0,6.5114,0.0,6.5144,6.5667,6.6056,6.6056,6.661,6.7014,6.7014,6.5374,6.2538,5.817,0.0,0.0,0.0,5.4723,5.4931,5.5433,5.5458,5.5691,5.6175,5.62,5.62,5.62,5.62,5.62,5.62,5.62,5.62,5.62,5.62,5.62,5.62,5.62,5.62,5.62,5.62,5.62,5.62,5.62,5.62,5.62,5.62,5.62,5.62,5.62,5.62,5.62,5.62,5.62,5.62,5.62,5.62,5.62,5.62,5.62,5.62,5.62,5.62,5.62,5.62,5.62,5.62,5.62,5.62,5.62,5.62,5.5792,5.5458,5.5458,5.5031,5.4697,5.4672,0.0,0.0,0.0,0.0,0.0,0.0,5.4597,5.4622,0.0,0.0,0.0,0.0,0.0,5.5458,5.5458,5.5942,5.62,5.62,5.62,5.62,5.62,5.62,5.62,5.62,5.62,5.62,5.62,5.62,5.62,5.62,5.62,5.62,5.62,5.62,5.62,5.62,5.62,5.62,5.62,0.0,0.0,6.5757,6.5757,6.6191,6.652,6.652,6.667,6.6759,6.6759,6.6894,6.7014,6.7014,6.5374,6.3861,6.2725,5.9713,5.7294,5.5908,5.5817,5.5892,5.6018,5.6018,5.6068,5.62,5.62,5.62,5.62,5.62,5.62,5.62,5.62,5.62,5.62,5.62,5.62,5.62,5.62,5.62,5.62,5.62,5.62,5.62,5.62,5.62,5.62,5.62,5.62,5.62,5.62,5.62,5.62,5.62,5.62,5.62,5.62,5.62,5.62,5.62,5.62,5.62,5.62,5.62,5.62,5.62,5.62,5.62,5.62,5.62,5.62,5.62,5.6118,5.6018,5.6018,5.5917,5.5666,5.5282,5.5207,0.0,0.0,5.4597,5.4597,5.4597,5.4597,5.4773,0.0,0.0,0.0,0.0,5.6018,5.6018,5.6018,5.6125,5.62,5.62,5.62,5.62,5.62,5.62,5.62,5.62,5.62,5.62,5.62,5.62,5.62,5.62,5.62,5.62,5.62,5.62,5.62,5.62,5.62,5.62,5.62,6.5906,6.6221,6.646,6.646,6.6759,6.7014,6.7014,6.7014,6.7014,6.7014,6.7014,6.7014,6.7014,6.6122,6.52,6.4361,6.1746,5.9712,5.8736,5.7877,5.7421,5.7421,5.6624,5.62,5.62,5.62,5.62,5.62,5.62,5.62,5.62,5.62,5.62,5.62,5.62,5.6326,5.6577,5.6577,5.6728,5.6972,5.6972,5.6972,5.6972,5.6972,5.6972,5.6972,5.6972,5.6972,5.6972,5.6972,5.6778,5.6577,5.6577,5.6401,5.62,5.62,5.62,5.62,5.62,5.62,5.62,5.62,5.62,5.62,5.62,5.62,5.62,5.62,5.62,5.62,5.62,5.62,5.62,5.62,5.62,5.6118,5.5817,5.5767,0.0,5.5383,5.5333,5.5333,5.5333,5.5333,5.544,5.5742,5.5767,0.0,5.6175,5.62,5.62,5.62,5.62,5.62,5.62,5.62,5.62,5.62,5.62,5.62,5.62,5.62,5.62,5.62,5.62,5.62,5.62,5.62,5.62,5.62,5.62,5.62,5.62,5.62,5.62,5.62,6.7014,6.7014,6.7014,6.7014,6.7014,6.7014,6.7014,6.7014,6.7014,6.7014,6.7104,6.7164,6.7164,6.7254,6.6681,6.5128,6.3597,6.2259,6.1269,5.9747,5.8956,5.9052,5.7585,5.6946,5.7306,5.7022,5.6738,5.647,5.647,5.647,5.647,5.647,5.647,5.647,5.647,5.6702,5.7154,5.7154,5.743,5.7901,5.7901,5.7901,5.7901,5.7901,5.7901,5.7901,5.7901,5.7901,5.7901,5.7901,5.7556,5.7111,5.7035,5.6702,5.6301,5.6226,5.62,5.62,5.62,5.62,5.62,5.62,5.62,5.62,5.62,5.62,5.62,5.62,5.62,5.62,5.62,5.62,5.62,5.62,5.62,5.62,5.62,0.0,5.62,5.62,5.62,5.62,5.62,5.62,5.62,5.62,5.62,5.62,5.62,5.62,5.62,5.62,5.62,5.62,5.62,5.62,5.62,5.62,5.62,5.62,5.62,5.62,5.62,5.62,5.62,5.62,5.62,5.62,5.62,5.62,5.62,5.62,5.62,5.62,5.62,5.62,6.7014,6.7014,6.7014,6.7014,6.7014,6.7014,6.7014,6.7014,6.7014,6.7014,6.7493,6.7822,6.7822,6.8361,6.858,6.8282,6.7998,6.5429,5.9706,5.906,5.9132,5.9722,5.9482,6.0297,6.2425,6.0838,5.9218,5.765,5.765,5.765,5.765,5.765,5.765,5.765,5.765,5.7675,5.775,5.775,5.7801,5.7901,5.7901,5.7901,5.7901,5.7901,5.7901,5.7901,5.7901,5.7901,5.7901,5.7901,5.7851,5.7656,5.7161,5.6935,5.6803,5.6326,5.62,5.62,5.62,5.62,5.62,5.62,5.62,5.62,5.62,5.62,5.62,5.62,5.62,5.62,5.62,5.62,5.62,5.62,5.62,5.62,5.62,0.0,5.62,5.62,5.62,5.62,5.62,5.62,5.62,5.62,5.62,5.62,5.62,5.62,5.62,5.62,5.62,5.62,5.62,5.62,5.62,5.62,5.62,5.62,5.62,5.62,5.62,5.62,5.62,5.62,5.62,5.62,5.62,5.62,5.62,5.62,5.62,5.62,5.62,5.62,6.7014,6.7014,6.7014,6.7014,6.7014,6.7134,6.7493,6.7523,6.7673,6.8016,6.8361,6.8541,6.8541,6.8794,6.9004,6.9004,6.9004,6.7262,6.3156,6.1921,6.1457,6.1763,5.9897,5.983,6.1985,6.1157,6.0265,5.9411,5.9411,5.8883,5.7901,5.7901,5.7901,5.7901,5.7901,5.8052,5.8334,5.8334,5.8504,5.8755,5.8755,5.8755,5.8755,5.8755,5.8755,5.8755,5.8755,5.8755,5.8755,5.8755,5.8579,5.8284,5.8008,5.7487,5.6935,5.6684,5.6426,5.62,5.62,5.62,5.62,5.62,5.62,5.62,5.62,5.62,5.62,5.62,5.62,5.62,5.62,5.62,5.62,5.62,5.62,0.0,0.0,5.62,5.62,5.62,5.62,5.62,5.62,5.62,5.62,5.62,5.62,5.62,5.62,5.62,5.62,5.62,5.62,5.62,5.62,5.62,5.62,5.62,5.62,5.62,5.62,5.62,5.62,5.62,5.62,5.62,5.62,5.62,5.62,5.62,5.62,5.62,5.62,5.62,5.62,5.62,6.7194,6.7224,6.7284,6.7433,6.7448,6.7643,6.8151,6.8211,6.8421,6.8944,6.9123,6.9243,6.9243,6.9363,6.9453,6.9453,6.9453,6.885,6.7449,6.5561,6.4452,6.4313,6.2122,6.1385,6.239,6.1988,6.1521,6.1095,6.0621,5.9687,5.8278,5.8278,5.8278,5.8278,5.8278,5.8504,5.8886,5.8886,5.9112,5.9483,5.9483,5.9483,5.9483,5.9483,5.9483,5.9483,5.9483,5.9483,5.9483,5.9483,5.9232,5.8861,5.8736,5.8008,5.7179,5.7035,5.6627,5.62,5.62,5.62,5.62,5.62,5.62,5.62,5.62,5.62,5.62,5.62,5.62,5.62,5.62,5.62,5.62,5.62,0.0,0.0,0.0,5.62,5.62,5.62,5.62,5.62,5.62,5.62,5.62,5.62,5.62,5.62,5.62,5.62,5.62,5.62,5.62,5.62,5.62,5.62,5.62,5.62,5.62,5.62,5.62,5.62,5.62,5.62,5.62,5.62,5.62,5.62,5.62,5.62,5.62,5.62,5.62,5.62,5.62,5.62,6.7808,6.7928,6.8122,6.8734,6.8854,6.8884,6.8914,6.8914,6.8944,6.9004,6.9558,6.9917,6.9917,7.0426,7.0769,7.0769,7.0769,7.0704,7.0561,6.8806,6.7527,6.7036,6.8884,6.919,6.7581,6.5782,6.4029,6.2254,6.0475,5.9511,5.9382,5.9382,5.9382,5.9382,5.9382,5.9408,5.9433,5.9433,5.9458,5.9483,5.9483,5.9483,5.9483,5.9483,5.9483,5.9483,5.9483,5.9483,5.9483,5.9483,5.9458,5.9357,5.8861,5.8284,5.7725,5.7161,5.6627,5.62,5.62,5.62,5.62,5.62,5.62,5.62,5.62,5.62,5.62,5.62,5.62,5.62,5.62,5.62,5.62,5.62,0.0,0.0,5.62,5.62,5.62,5.62,5.62,5.62,5.62,5.62,5.62,5.62,5.62,5.62,5.62,5.62,5.62,5.62,5.62,5.62,5.62,5.62,5.62,5.62,5.62,5.62,5.62,5.62,5.62,5.62,5.62,5.62,5.62,5.62,5.62,5.62,5.62,5.62,5.62,5.62,5.62,5.62,6.8571,6.863,6.872,6.8944,6.9004,6.9123,6.9558,6.9618,6.9752,7.0141,7.041,7.056,7.056,7.0769,7.0889,7.0889,7.0889,7.0889,7.0889,7.0239,6.8689,6.612,6.6872,6.761,6.8112,6.6185,6.4857,6.4147,6.2238,6.0679,5.9483,5.9483,5.9483,5.9483,5.9483,5.9483,5.9483,5.9483,5.9483,5.9483,5.9483,5.9483,5.9483,5.9483,5.9483,5.9483,5.9483,5.9483,5.9483,5.9483,5.9483,5.9458,5.9257,5.883,5.8208,5.7261,5.6627,5.62,5.62,5.62,5.62,5.62,5.62,5.62,5.62,5.62,5.62,5.62,5.62,5.62,5.62,5.62,5.62,5.62,0.0,5.62,5.62,5.62,5.62,5.62,5.62,5.62,5.62,5.62,5.62,5.62,5.62,5.62,5.62,5.62,5.62,5.62,5.62,5.62,5.62,5.62,5.62,5.62,5.62,5.62,5.62,5.62,5.62,5.62,5.62,5.62,5.62,5.62,5.62,5.62,5.62,5.62,5.62,5.62,5.62,5.62,6.9273,6.9303,6.9363,6.9572,6.9602,6.9752,7.0201,7.0277,7.0426,7.0859,7.0889,7.0889,7.0889,7.0889,7.0889,7.0889,7.0889,7.0889,7.0889,7.0889,6.9718,6.7089,6.6985,6.7599,6.8969,6.7083,6.6097,6.6097,6.422,6.2601,6.129,6.129,6.129,6.1271,6.0679,6.0393,6.038,5.9753,5.9483,5.9483,5.9483,5.9483,5.9483,5.9483,5.9483,5.9483,5.9483,5.9483,5.9483,5.9483,5.9483,5.9483,5.9483,5.9031,5.8259,5.7305,5.6627,5.62,5.62,5.62,5.62,5.62,5.62,5.62,5.62,5.62,5.62,5.62,5.62,5.62,5.62,5.62,5.62,5.62,5.62,5.62,5.62,5.62,5.62,5.62,5.62,5.62,5.62,5.62,5.62,5.62,5.62,5.62,5.62,5.62,5.62,5.62,5.62,5.62,5.62,5.62,5.62,5.62,5.62,5.62,5.62,5.62,5.62,5.62,5.62,5.62,5.62,5.62,5.62,5.62,5.62,5.62,5.62,5.62,5.62,5.62,6.9887,7.0007,7.0187,7.0799,7.0889,7.0889,7.0889,7.0889,7.0889,7.0889,7.0889,7.0889,7.0889,7.0889,7.0889,7.0889,7.0889,7.0889,7.0889,7.0889,7.0889,7.0889,7.0889,7.0889,7.0889,6.9069,6.8112,6.8112,6.615,6.5186,6.5186,6.5186,6.5186,6.5115,6.3245,6.2431,6.2301,6.0361,5.9502,5.9502,5.9502,5.9502,5.9502,5.9502,5.9502,5.9502,5.9502,5.9483,5.9483,5.9483,5.9483,5.9483,5.9483,5.8755,5.7775,5.7179,5.6627,5.62,5.62,5.62,5.62,5.62,5.62,5.62,5.62,5.62,5.62,5.62,5.62,5.62,5.62,5.62,5.62,5.62,5.62,5.62,5.62,5.62,5.62,5.62,5.62,5.62,5.62,5.62,5.62,5.62,5.62,5.62,5.62,5.62,5.62,5.62,5.62,5.62,5.62,5.62,5.62,5.62,5.62,5.62,5.62,5.62,5.62,5.62,5.62,5.62,5.62,5.62,5.62,5.62,5.62,5.62,5.62,5.62,5.62,5.62,7.059,7.062,7.0679,7.0859,7.0889,7.0889,7.0889,7.0889,7.0889,7.0889,7.0889,7.0889,7.0889,7.0889,7.0889,7.0889,7.0889,7.0889,7.0889,7.0889,7.0889,7.0889,7.0889,7.0889,7.0889,6.9069,6.8112,6.8112,6.615,6.5186,6.5186,6.5186,6.5186,6.5196,6.4606,6.4355,6.4228,6.2349,6.1542,6.1429,6.0035,6.0323,6.1391,6.0016,6.0361,6.1354,5.9978,5.9483,5.9483,5.9483,5.9483,5.9483,5.9483,5.8755,5.7851,5.7681,5.6953,5.62,5.62,5.62,5.62,5.62,5.62,5.62,5.62,5.62,5.62,5.62,5.62,5.62,5.62,5.62,5.62,5.62,5.62,5.62,5.62,5.62,5.62,5.62,5.62,5.62,5.62,5.62,5.62,5.62,5.62,5.62,5.62,5.62,5.62,5.62,5.62,5.62,5.62,5.62,5.62,5.62,5.6577,5.6778,5.6778,5.7204,5.7399,5.7399,5.7399,5.7154,5.6778,5.6778,5.6552,5.62,5.62,5.62,5.62,5.62,5.62,5.62,7.0889,7.0889,7.0889,7.0889,7.0889,7.0889,7.0889,7.0889,7.0889,7.0889,7.0889,7.0889,7.0889,7.0889,7.0889,7.0889,7.0889,7.0889,7.0889,7.0889,7.0889,7.0889,7.0889,7.0889,7.0889,6.9798,6.9203,6.9203,6.802,6.7444,6.7444,6.7444,6.7444,6.7427,6.6684,6.637,6.6202,6.4328,6.3493,6.3383,6.223,6.2453,6.3319,6.1365,6.1391,6.2152,6.0208,5.9483,5.9483,5.9483,5.9483,5.9483,5.9483,5.8755,5.7901,5.7901,5.7097,5.62,5.62,5.62,5.62,5.62,5.62,5.62,5.62,5.62,5.62,5.62,5.62,5.62,5.62,5.62,5.62,5.62,5.62,5.62,5.62,5.62,5.62,5.62,5.62,5.62,5.62,5.62,5.62,5.62,5.62,5.62,5.62,5.62,5.62,5.62,5.62,5.6301,5.6502,5.6527,5.6527,5.6527,5.7104,5.7355,5.738,5.7732,5.7901,5.7901,5.7901,5.77,5.7355,5.7355,5.7154,5.6846,5.6602,5.6527,5.6502,5.6276,5.62,5.62,7.0889,7.0889,7.0889,7.0889,7.0889,7.0889,7.0889,7.0889,7.0889,7.0889,7.0889,7.0889,7.0889,7.0889,7.0889,7.0889,7.0889,7.0889,7.0889,7.0889,7.0889,7.0889,7.0889,7.0889,7.0889,7.0889,7.0889,7.0889,7.0889,7.0889,7.0889,7.0889,7.0889,7.0824,6.9119,6.8349,6.8202,6.6272,6.5462,6.5445,6.5257,6.5293,6.5267,6.3374,6.2646,6.2386,6.045,5.9637,5.9483,5.9483,5.9483,5.9483,5.9483,5.8755,5.7901,5.7901,5.7097,5.62,5.62,5.62,5.62,5.62,5.62,5.62,5.62,5.62,5.62,5.62,5.62,5.62,5.62,5.62,5.62,5.62,5.62,5.62,5.62,5.62,5.62,5.62,5.62,5.62,5.62,5.62,5.62,5.62,5.62,5.62,5.62,5.62,5.62,5.62,5.6251,5.6502,5.6985,5.7085,5.7136,5.7085,5.77,5.7976,5.7976,5.8027,5.8052,5.8052,5.8052,5.8027,5.7976,5.7976,5.7951,5.7851,5.7255,5.6985,5.6935,5.6401,5.62,5.62,7.0889,7.0889,7.0889,7.0889,7.0889,7.0889,7.0889,7.0889,7.0889,7.0889,7.0889,7.0889,7.0889,7.0889,7.0889,7.0889,7.0889,7.0889,7.0889,7.0889,7.0889,7.0889,7.0889,7.0889,7.0889,7.0889,7.0889,7.0889,7.0889,7.0889,7.0889,7.0889,7.0889,7.0873,7.0452,7.0288,7.0173,6.827,6.7456,6.7335,6.5816,6.6097,6.7266,6.532,6.4588,6.4337,6.2461,6.0793,5.9483,5.9483,5.9483,5.9483,5.9483,5.8755,5.7901,5.7901,5.7097,5.62,5.62,5.62,5.62,5.62,5.62,5.62,5.62,5.62,5.62,5.62,5.62,5.62,5.62,5.62,5.62,5.62,5.62,5.62,5.62,5.62,5.62,5.62,5.62,5.62,5.62,5.62,5.62,5.62,5.62,5.62,5.62,5.62,5.62,5.62,5.6602,5.6885,5.6985,5.7907,5.8108,5.7725,5.8259,5.8535,5.8535,5.8956,5.9156,5.9156,5.9156,5.8905,5.8535,5.8535,5.8278,5.7851,5.7255,5.6985,5.6935,5.6401,5.62,5.62,7.0889,7.0889,7.0889,7.0889,7.0889,7.0889,7.0889,7.0889,7.0889,7.0889,7.0889,7.0889,7.0889,7.0889,7.0889,7.0889,7.0889,7.0889,7.0889,7.0889,7.0889,7.0889,7.0889,7.0889,7.0889,7.0889,7.0889,7.0889,7.0889,7.0889,7.0889,7.0889,7.0889,7.0889,7.0889,7.0889,7.0824,6.9847,6.942,6.9353,6.8337,6.854,6.9236,6.7318,6.6009,6.4964,6.3062,6.1146,5.9483,5.9483,5.9483,5.9483,5.9483,5.8956,5.8227,5.7976,5.7255,5.6527,5.6276,5.62,5.62,5.62,5.62,5.62,5.62,5.62,5.62,5.62,5.62,5.62,5.62,5.62,5.62,5.62,5.62,5.62,5.62,5.62,5.62,5.62,5.62,5.62,5.62,5.62,5.62,5.62,5.62,5.62,5.62,5.62,5.6326,5.6577,5.6835,5.7261,5.7807,5.8409,5.8685,5.8654,5.8956,5.9062,5.9106,5.9382,5.9483,5.9483,5.9483,5.9332,5.9062,5.9062,5.893,5.8604,5.8033,5.7656,5.7355,5.6803,5.6426,5.62,7.0889,7.0889,7.0889,7.0889,7.0889,7.0889,7.0889,7.0889,7.0889,7.0889,7.0889,7.0889,7.0889,7.0889,7.0889,7.0889,7.0889,7.0889,7.0889,7.0889,7.0889,7.0889,7.0889,7.0889,7.0889,7.0889,7.0889,7.0889,7.0889,7.0889,7.0889,7.0889,7.0889,7.0889,7.0889,7.0889,7.0889,7.0889,7.0889,7.0889,7.0889,7.0889,7.0726,6.917,6.7387,6.5445,6.3575,6.1422,5.9483,5.9483,5.9483,5.9483,5.9483,5.9112,5.8585,5.8052,5.7481,5.6885,5.6351,5.62,5.62,5.62,5.62,5.62,5.62,5.62,5.62,5.62,5.62,5.62,5.62,5.62,5.62,5.62,5.62,5.62,5.62,5.62,5.62,5.62,5.62,5.62,5.62,5.62,5.62,5.62,5.62,5.62,5.62,5.62,5.6451,5.6985,5.7085,5.7656,5.8685,5.8786,5.9056,5.9483,5.9483,5.9483,5.9483,5.9483,5.9483,5.9483,5.9483,5.9483,5.9483,5.9483,5.9483,5.9433,5.8911,5.8359,5.7826,5.7129,5.6577,5.62,7.0889,7.0889,7.0889,7.0889,7.0889,7.0889,7.0889,7.0889,7.0889,7.0889,7.0889,7.0889,7.0889,7.0889,7.0889,7.0889,7.0889,7.0889,7.0889,7.0889,7.0889,7.0889,7.0889,7.0889,7.0889,7.0889,7.0889,7.0889,7.0889,7.0889,7.0889,7.0889,7.0889,7.0889,7.0889,7.0889,7.0889,7.0889,7.0889,7.0889,7.0889,7.0889,7.0856,7.0629,6.9353,6.7439,6.5516,6.2545,5.9483,5.9483,5.9483,5.9483,5.9483,5.9112,5.8585,5.8052,5.7481,5.6885,5.6351,5.62,5.62,5.62,5.62,5.62,5.62,5.62,5.62,5.62,5.62,5.62,5.62,5.62,5.62,5.62,5.62,5.62,5.62,5.62,5.62,5.62,5.62,5.62,5.62,5.62,5.62,5.62,5.62,5.62,5.62,5.62,5.6451,5.6985,5.7506,5.8058,5.8685,5.9156,5.9433,5.9483,5.9483,5.9483,5.9483,5.9483,5.9483,5.9483,5.9483,5.9483,5.9483,5.9483,5.9483,5.9433,5.8911,5.8359,5.7775,5.6702,5.6251,5.62,7.0889,7.0889,7.0889,7.0889,7.0889,7.0889,7.0889,7.0889,7.0889,7.0889,7.0889,7.0889,7.0889,7.0889,7.0889,7.0889,7.0889,7.0889,7.0889,7.0889,7.0889,7.0889,7.0889,7.0889,7.0889,7.0889,7.0889,7.0889,7.0889,7.0889,7.0889,7.0889,7.0889,7.0889,7.0889,7.0889,7.0889,7.0889,7.0889,7.0889,7.0889,7.0889,7.0889,7.0889,6.9731,6.7707,6.4706,6.2545,6.0938,5.9869,5.9483,5.9483,5.9483,5.9332,5.9056,5.8485,5.7951,5.738,5.6803,5.6426,5.62,5.62,5.62,5.62,5.62,5.62,5.62,5.62,5.62,5.62,5.62,5.62,5.62,5.62,5.62,5.62,5.62,5.62,5.62,5.62,5.62,5.62,5.62,5.62,5.62,5.62,5.62,5.62,5.62,5.6477,5.6903,5.7481,5.8033,5.8585,5.9137,5.9382,5.9483,5.9483,5.9483,5.9483,5.9483,5.9483,5.9483,5.9483,5.9483,5.9483,5.9483,5.9483,5.9483,5.9483,5.9257,5.8654,5.775,5.662,5.62,5.62]}]]